[[{"header":{"parameterUnit":"m.s-1","parameterCategory":1,"la1":30.6,"la2":28.766,"lo1":-90.7593,"lo2":-88.6598,"dy":0.0162,"dx":0.0183,"nx":116,"ny":114,"refTime":"2023-07-22T12:00:00:Z","depth":0,"parameterNumber":2,"parameterNumberName":"U-component_of_WINDS"},"data":[0.0,0.0,0.0,0.0,0.0,0.0,0.0,0.0,0.0,0.0,0.0,0.0,0.0,0.0,0.0,0.0,0.0,0.0,0.0,0.0,0.0,0.0,0.0,0.0,0.0,0.0,0.0,0.0,0.0,0.0,0.0,0.0,0.0,0.0,0.0,0.0,0.0,0.0,0.0,0.0,0.0,0.0,0.0,0.0,0.0,0.0,0.0,0.0,0.0,0.0,0.0,0.0,0.0,0.0,0.0,0.0,0.0,0.0,0.0,0.0,0.0,0.0,0.0,0.0,0.0,0.0,0.0,0.0,0.0,0.0,0.0,0.0,0.0,0.0,0.0,0.0,0.0,0.0,0.0,0.0,0.0,0.0,0.0,0.0,0.0,0.0,0.0,0.0,0.0,0.0,0.0,0.0,0.0,0.0,0.0,0.0,0.0,0.0,0.0,0.0,0.0,0.0,0.0,0.0,0.0,0.0,0.0,0.0,0.0,0.0,0.0,0.0,0.0,0.0,0.0,0.0,0.0,0.0,0.0,0.0,0.0,0.0,0.0,0.0,0.0,0.0,0.0,0.0,0.0,0.0,0.0,0.0,0.0,0.0,0.0,0.0,0.0,0.0,0.0,0.0,0.0,0.0,0.0,0.0,0.0,0.0,0.0,0.0,0.0,0.0,0.0,0.0,0.0,0.0,0.0,0.0,0.0,0.0,0.0,0.0,0.0,0.0,0.0,0.0,0.0,0.0,0.0,0.0,0.0,0.0,0.0,0.0,0.0,0.0,0.0,0.0,0.0,0.0,0.0,0.0,0.0,0.0,0.0,0.0,0.0,0.0,0.0,0.0,0.0,0.0,0.0,0.0,0.0,0.0,0.0,0.0,0.0,0.0,0.0,0.0,0.0,0.0,0.0,0.0,0.0,0.0,0.0,0.0,0.0,0.0,0.0,0.0,0.0,0.0,0.0,0.0,0.0,0.0,0.0,0.0,0.0,0.0,0.0,0.0,0.0,0.0,0.0,0.0,0.0,0.0,0.0,0.0,0.0,0.0,0.0,0.0,0.0,0.0,0.0,0.0,0.0,0.0,0.0,0.0,0.0,0.0,0.0,0.0,0.0,0.0,0.0,0.0,0.0,0.0,0.0,0.0,0.0,0.0,0.0,0.0,0.0,0.0,0.0,0.0,0.0,0.0,0.0,0.0,0.0,0.0,0.0,0.0,0.0,0.0,0.0,0.0,0.0,0.0,0.0,0.0,0.0,0.0,0.0,0.0,0.0,0.0,0.0,0.0,0.0,0.0,0.0,0.0,0.0,0.0,0.0,0.0,0.0,0.0,0.0,0.0,0.0,0.0,0.0,0.0,0.0,0.0,0.0,0.0,0.0,0.0,0.0,0.0,0.0,0.0,0.0,0.0,0.0,0.0,0.0,0.0,0.0,0.0,0.0,0.0,0.0,0.0,0.0,0.0,0.0,0.0,0.0,0.0,0.0,0.0,0.0,0.0,0.0,0.0,0.0,0.0,0.0,0.0,0.0,0.0,0.0,0.0,0.0,0.0,0.0,0.0,0.0,0.0,0.0,0.0,0.0,0.0,0.0,0.0,0.0,0.0,0.0,0.0,0.0,0.0,0.0,0.0,0.0,0.0,0.0,0.0,0.0,0.0,0.0,0.0,0.0,0.0,0.0,0.0,0.0,0.0,0.0,0.0,0.0,0.0,0.0,0.0,0.0,0.0,0.0,0.0,0.0,0.0,0.0,0.0,0.0,0.0,0.0,0.0,0.0,0.0,0.0,0.0,0.0,0.0,0.0,0.0,0.0,0.0,0.0,0.0,0.0,0.0,0.0,0.0,0.0,0.0,0.0,0.0,0.0,0.0,0.0,0.0,0.0,0.0,0.0,0.0,0.0,0.0,0.0,0.0,0.0,0.0,0.0,0.0,0.0,0.0,0.0,0.0,0.0,0.0,0.0,0.0,0.0,0.0,0.0,0.0,0.0,0.0,0.0,0.0,0.0,0.0,0.0,0.0,0.0,0.0,0.0,0.0,0.0,0.0,0.0,0.0,0.0,0.0,0.0,0.0,0.0,0.0,0.0,0.0,0.0,0.0,0.0,0.0,0.0,0.0,0.0,0.0,0.0,0.0,0.0,0.0,0.0,0.0,0.0,0.0,0.0,0.0,0.0,0.0,0.0,0.0,0.0,0.0,0.0,0.0,0.0,0.0,0.0,0.0,0.0,0.0,0.0,0.0,0.0,0.0,0.0,0.0,0.0,0.0,0.0,0.0,0.0,0.0,0.0,0.0,0.0,0.0,0.0,0.0,0.0,0.0,0.0,0.0,0.0,0.0,0.0,0.0,0.0,0.0,0.0,0.0,0.0,0.0,0.0,0.0,0.0,0.0,0.0,0.0,0.0,0.0,0.0,0.0,0.0,0.0,0.0,0.0,0.0,0.0,0.0,0.0,0.0,0.0,0.0,0.0,0.0,0.0,0.0,0.0,0.0,0.0,0.0,0.0,0.0,0.0,0.0,0.0,0.0,0.0,0.0,0.0,0.0,0.0,0.0,0.0,0.0,0.0,0.0,0.0,0.0,0.0,0.0,0.0,0.0,0.0,0.0,0.0,0.0,0.0,0.0,0.0,0.0,0.0,0.0,0.0,0.0,0.0,0.0,0.0,0.0,0.0,0.0,0.0,0.0,0.0,0.0,0.0,0.0,0.0,0.0,0.0,0.0,0.0,0.0,0.0,0.0,0.0,0.0,0.0,0.0,0.0,0.0,0.0,0.0,0.0,0.0,0.0,0.0,0.0,0.0,0.0,0.0,0.0,0.0,0.0,0.0,0.0,0.0,0.0,0.0,0.0,0.0,0.0,0.0,0.0,0.0,0.0,0.0,0.0,0.0,0.0,0.0,0.0,0.0,0.0,0.0,0.0,0.0,0.0,0.0,0.0,0.0,0.0,0.0,0.0,0.0,0.0,0.0,0.0,0.0,0.0,0.0,0.0,0.0,0.0,0.0,0.0,0.0,0.0,0.0,0.0,0.0,0.0,0.0,0.0,0.0,0.0,0.0,0.0,0.0,0.0,0.0,0.0,0.0,0.0,0.0,0.0,0.0,0.0,0.0,0.0,0.0,0.0,0.0,0.0,0.0,0.0,0.0,0.0,0.0,0.0,0.0,0.0,0.0,0.0,0.0,0.0,0.0,0.0,0.0,0.0,0.0,0.0,0.0,0.0,0.0,0.0,0.0,0.0,0.0,0.0,0.0,0.0,0.0,0.0,0.0,0.0,0.0,0.0,0.0,0.0,0.0,0.0,0.0,0.0,0.0,0.0,0.0,0.0,0.0,0.0,0.0,0.0,0.0,0.0,0.0,0.0,0.0,0.0,0.0,0.0,0.0,0.0,0.0,0.0,0.0,0.0,0.0,0.0,0.0,0.0,0.0,0.0,0.0,0.0,0.0,0.0,0.0,0.0,0.0,0.0,0.0,0.0,0.0,0.0,0.0,0.0,0.0,0.0,0.0,0.0,0.0,0.0,0.0,0.0,0.0,0.0,0.0,0.0,0.0,0.0,0.0,0.0,0.0,0.0,0.0,0.0,0.0,0.0,0.0,0.0,0.0,0.0,0.0,0.0,0.0,0.0,0.0,0.0,0.0,0.0,0.0,0.0,0.0,0.0,0.0,0.0,0.0,0.0,0.0,0.0,0.0,0.0,0.0,0.0,0.0,0.0,0.0,0.0,0.0,0.0,0.0,0.0,0.0,0.0,0.0,0.0,0.0,0.0,0.0,0.0,0.0,0.0,0.0,0.0,0.0,0.0,0.0,0.0,0.0,0.0,0.0,0.0,0.0,0.0,0.0,0.0,0.0,0.0,0.0,0.0,0.0,0.0,0.0,0.0,0.0,0.0,0.0,0.0,0.0,0.0,0.0,0.0,0.0,0.0,0.0,0.0,0.0,0.0,0.0,0.0,0.0,0.0,0.0,0.0,0.0,0.0,0.0,0.0,0.0,0.0,0.0,0.0,0.0,0.0,0.0,0.0,0.0,0.0,0.0,0.0,0.0,0.0,0.0,0.0,0.0,0.0,0.0,0.0,0.0,0.0,0.0,0.0,0.0,0.0,0.0,0.0,0.0,0.0,0.0,0.0,0.0,0.0,0.0,0.0,0.0,0.0,0.0,0.0,0.0,0.0,0.0,0.0,0.0,0.0,0.0,0.0,0.0,0.0,0.0,0.0,0.0,0.0,0.0,0.0,0.0,0.0,0.0,0.0,0.0,0.0,0.0,0.0,0.0,0.0,0.0,0.0,0.0,0.0,0.0,0.0,0.0,0.0,0.0,0.0,0.0,0.0,0.0,0.0,0.0,0.0,0.0,0.0,0.0,0.0,0.0,0.0,0.0,0.0,0.0,0.0,0.0,0.0,0.0,0.0,0.0,0.0,0.0,0.0,0.0,0.0,0.0,0.0,0.0,0.0,0.0,0.0,0.0,0.0,0.0,0.0,0.0,0.0,0.0,0.0,0.0,0.0,0.0,0.0,0.0,0.0,0.0,0.0,0.0,0.0,0.0,0.0,0.0,0.0,0.0,0.0,0.0,0.0,0.0,0.0,0.0,0.0,0.0,0.0,0.0,0.0,0.0,0.0,0.0,0.0,0.0,0.0,0.0,0.0,0.0,0.0,0.0,0.0,0.0,0.0,0.0,0.0,0.0,0.0,0.0,0.0,0.0,0.0,0.0,0.0,0.0,0.0,0.0,0.0,0.0,0.0,0.0,0.0,0.0,0.0,0.0,0.0,0.0,0.0,0.0,0.0,0.0,0.0,0.0,0.0,0.0,0.0,0.0,0.0,0.0,0.0,0.0,0.0,0.0,0.0,0.0,0.0,0.0,0.0,0.0,0.0,0.0,0.0,0.0,0.0,0.0,0.0,0.0,0.0,0.0,0.0,0.0,0.0,0.0,0.0,0.0,0.0,0.0,0.0,0.0,0.0,0.0,0.0,0.0,0.0,0.0,0.0,0.0,0.0,0.0,0.0,0.0,0.0,0.0,0.0,0.0,0.0,0.0,0.0,0.0,0.0,0.0,0.0,0.0,0.0,0.0,0.0,0.0,0.0,0.0,0.0,0.0,0.0,0.0,0.0,0.0,0.0,0.0,0.0,0.0,0.0,0.0,0.0,0.0,0.0,0.0,0.0,0.0,0.0,0.0,0.0,0.0,0.0,0.0,0.0,0.0,0.0,0.0,0.0,0.0,0.0,0.0,0.0,0.0,0.0,0.0,0.0,0.0,0.0,0.0,0.0,0.0,0.0,0.0,0.0,0.0,0.0,0.0,0.0,0.0,0.0,0.0,0.0,0.0,0.0,0.0,0.0,0.0,0.0,0.0,0.0,0.0,0.0,0.0,0.0,0.0,0.0,0.0,0.0,0.0,0.0,0.0,0.0,0.0,0.0,0.0,0.0,0.0,0.0,0.0,0.0,0.0,0.0,0.0,0.0,0.0,0.0,0.0,0.0,0.0,0.0,0.0,0.0,0.0,0.0,0.0,0.0,0.0,0.0,0.0,0.0,0.0,0.0,0.0,0.0,0.0,0.0,0.0,0.0,0.0,0.0,0.0,0.0,0.0,0.0,0.0,0.0,0.0,0.0,0.0,0.0,0.0,0.0,0.0,0.0,0.0,0.0,0.0,0.0,0.0,0.0,0.0,0.0,0.0,0.0,0.0,0.0,0.0,0.0,0.0,0.0,0.0,0.0,0.0,0.0,0.0,0.0,0.0,0.0,0.0,0.0,0.0,0.0,0.0,0.0,0.0,0.0,0.0,0.0,0.0,0.0,0.0,0.0,0.0,0.0,0.0,0.0,0.0,0.0,0.0,0.0,0.0,0.0,0.0,0.0,0.0,0.0,0.0,0.0,0.0,0.0,0.0,0.0,0.0,0.0,0.0,0.0,0.0,0.0,0.0,0.0,0.0,0.0,0.0,0.0,0.0,0.0,0.0,0.0,0.0,0.0,0.0,0.0,0.0,0.0,0.0,0.0,0.0,0.0,0.0,0.0,0.0,0.0,0.0,0.0,0.0,0.0,0.0,0.0,0.0,0.0,0.0,0.0,0.0,0.0,0.0,0.0,0.0,0.0,-4.624,0.0,0.0,0.0,0.0,0.0,0.0,0.0,0.0,0.0,0.0,0.0,0.0,0.0,0.0,0.0,0.0,0.0,0.0,0.0,0.0,0.0,0.0,0.0,0.0,0.0,0.0,0.0,0.0,0.0,0.0,0.0,0.0,0.0,0.0,0.0,0.0,0.0,0.0,0.0,0.0,0.0,0.0,0.0,0.0,0.0,0.0,0.0,0.0,0.0,0.0,0.0,0.0,0.0,0.0,0.0,0.0,0.0,0.0,0.0,0.0,0.0,0.0,0.0,0.0,0.0,0.0,0.0,0.0,0.0,0.0,0.0,0.0,0.0,0.0,0.0,0.0,0.0,0.0,0.0,0.0,0.0,0.0,0.0,0.0,0.0,0.0,0.0,0.0,0.0,0.0,0.0,0.0,0.0,0.0,0.0,0.0,0.0,0.0,0.0,0.0,0.0,0.0,0.0,0.0,0.0,0.0,0.0,0.0,0.0,0.0,0.0,0.0,0.0,0.0,0.0,0.0,-4.6206,0.0,0.0,0.0,0.0,0.0,0.0,0.0,0.0,0.0,0.0,0.0,0.0,0.0,0.0,0.0,0.0,0.0,0.0,0.0,0.0,0.0,0.0,0.0,0.0,0.0,0.0,0.0,0.0,0.0,0.0,0.0,0.0,0.0,0.0,0.0,0.0,0.0,0.0,0.0,0.0,0.0,0.0,0.0,0.0,0.0,0.0,0.0,0.0,0.0,0.0,0.0,0.0,0.0,0.0,0.0,0.0,0.0,0.0,0.0,0.0,0.0,0.0,0.0,0.0,0.0,0.0,0.0,0.0,0.0,0.0,0.0,0.0,0.0,0.0,0.0,0.0,0.0,0.0,0.0,0.0,0.0,0.0,0.0,0.0,0.0,0.0,0.0,0.0,0.0,0.0,0.0,0.0,0.0,0.0,0.0,0.0,0.0,0.0,0.0,0.0,0.0,0.0,0.0,0.0,0.0,0.0,0.0,0.0,-4.6295,-4.6306,-4.63,-4.63,-4.63,-4.63,-4.624,-4.6211,-4.6201,0.0,0.0,0.0,0.0,0.0,0.0,0.0,0.0,0.0,0.0,0.0,0.0,0.0,0.0,0.0,0.0,0.0,0.0,0.0,0.0,0.0,0.0,0.0,0.0,0.0,0.0,0.0,0.0,0.0,0.0,0.0,0.0,0.0,0.0,0.0,0.0,0.0,0.0,0.0,-3.9452,-3.967,-3.9873,-4.0099,-4.045,0.0,0.0,0.0,0.0,0.0,0.0,0.0,0.0,0.0,0.0,0.0,0.0,0.0,0.0,0.0,0.0,0.0,0.0,0.0,0.0,0.0,0.0,0.0,0.0,0.0,0.0,0.0,0.0,0.0,0.0,0.0,0.0,0.0,0.0,0.0,0.0,0.0,0.0,0.0,0.0,0.0,0.0,0.0,-4.58,-4.58,0.0,0.0,0.0,0.0,0.0,0.0,0.0,0.0,0.0,0.0,0.0,0.0,0.0,-4.6301,-4.6301,-4.6308,-4.6301,-4.6301,-4.6309,-4.6303,-4.63,-4.63,-4.63,-4.63,-4.6288,0.0,-4.6206,-4.619,0.0,0.0,0.0,0.0,0.0,0.0,0.0,0.0,0.0,0.0,0.0,0.0,0.0,0.0,0.0,0.0,0.0,0.0,0.0,0.0,0.0,0.0,0.0,0.0,0.0,0.0,0.0,0.0,0.0,0.0,0.0,0.0,0.0,0.0,0.0,0.0,-3.8676,-3.8913,-3.9129,-3.9376,-3.9575,-3.9739,-4.0042,-4.0334,-4.0615,-4.0723,0.0,0.0,0.0,0.0,0.0,0.0,0.0,0.0,0.0,0.0,0.0,0.0,0.0,0.0,0.0,0.0,0.0,0.0,0.0,0.0,0.0,0.0,0.0,0.0,0.0,0.0,0.0,0.0,0.0,0.0,0.0,0.0,0.0,0.0,0.0,0.0,0.0,0.0,0.0,-4.58,-4.58,-4.58,-4.58,-4.58,0.0,0.0,0.0,0.0,0.0,0.0,0.0,0.0,0.0,-4.6206,-4.627,-4.6301,-4.6301,-4.6307,-4.6301,-4.6301,-4.6309,-4.63,-4.63,-4.63,-4.63,-4.63,-4.6296,-4.6264,-4.6206,-4.619,-4.6154,-4.6093,0.0,0.0,0.0,0.0,-4.5703,-4.564,0.0,0.0,0.0,0.0,0.0,0.0,0.0,0.0,0.0,0.0,0.0,0.0,0.0,0.0,0.0,-3.6259,0.0,0.0,0.0,0.0,0.0,0.0,0.0,0.0,0.0,0.0,0.0,0.0,-3.8446,-3.8603,-3.8773,-3.9055,-3.9272,-3.9427,-3.967,-4.0021,-4.0422,-4.0574,-4.0681,0.0,0.0,0.0,0.0,0.0,0.0,0.0,0.0,0.0,0.0,0.0,0.0,0.0,0.0,0.0,0.0,0.0,0.0,0.0,0.0,0.0,0.0,0.0,0.0,0.0,0.0,0.0,0.0,0.0,0.0,0.0,0.0,0.0,0.0,0.0,0.0,0.0,0.0,-4.58,-4.58,-4.58,-4.58,-4.5814,0.0,0.0,0.0,0.0,0.0,0.0,-4.6093,-4.6151,-4.6206,-4.6206,-4.627,-4.6419,-4.6633,-4.662,-4.6633,-4.6633,-4.6622,-4.6515,-4.63,-4.63,-4.63,-4.63,-4.63,-4.6273,-4.6211,-4.6203,-4.6162,-4.6093,-4.6047,-4.5972,-4.5887,-4.5805,-4.575,-4.569,0.0,0.0,0.0,0.0,0.0,0.0,0.0,0.0,0.0,0.0,0.0,0.0,0.0,0.0,-3.6225,-3.6225,-3.6079,-3.6019,0.0,0.0,0.0,0.0,0.0,0.0,0.0,0.0,0.0,-3.7934,-3.8207,-3.8354,-3.8415,-3.8773,-3.9007,-3.9129,-3.9401,-3.9769,-4.0233,-4.0372,-4.05,-4.0615,0.0,0.0,0.0,0.0,0.0,0.0,0.0,0.0,0.0,0.0,0.0,0.0,0.0,0.0,0.0,0.0,0.0,0.0,0.0,0.0,0.0,0.0,0.0,0.0,0.0,0.0,0.0,0.0,0.0,0.0,0.0,0.0,0.0,0.0,0.0,0.0,0.0,0.0,0.0,-4.58,-4.58,0.0,0.0,0.0,0.0,-4.5991,-4.6056,-4.6093,-4.6093,-4.6151,-4.6206,-4.6206,-4.627,-4.6692,-4.7532,-4.7538,-4.7532,-4.7532,-4.7536,-4.71,-4.63,-4.63,-4.63,-4.63,-4.63,-4.6296,-4.6284,-4.6231,-4.617,-4.6093,-4.6105,-4.6025,-4.5905,-4.5827,-4.5757,-4.5684,0.0,0.0,0.0,0.0,0.0,0.0,0.0,0.0,0.0,0.0,0.0,0.0,0.0,-3.6208,-3.6122,-3.5949,-3.5905,-3.5861,-3.5861,0.0,0.0,0.0,0.0,0.0,0.0,0.0,-3.7966,-3.8233,-3.8528,-3.8707,-3.8793,-3.8652,-3.8664,-3.8796,-3.911,-3.9433,-3.9769,-4.0081,-4.0304,-4.0531,-4.1157,-4.1459,0.0,0.0,0.0,0.0,0.0,0.0,0.0,0.0,0.0,0.0,0.0,0.0,0.0,0.0,0.0,0.0,0.0,0.0,0.0,0.0,0.0,0.0,0.0,0.0,0.0,0.0,0.0,0.0,0.0,0.0,0.0,0.0,0.0,0.0,0.0,0.0,0.0,-4.58,-4.58,0.0,-4.5893,-4.5893,-4.5917,-4.5991,-4.6056,-4.6346,-4.6911,-4.6989,-4.7298,-4.7864,-4.7946,-4.8118,-4.843,-4.8437,-4.8433,-4.845,-4.844,-4.7982,-4.7139,-4.7139,-4.6827,-4.63,-4.63,-4.6296,-4.6284,-4.6231,-4.6183,-4.6154,-4.6122,-4.6037,-4.5949,-4.5887,-4.5791,-4.57,0.0,0.0,0.0,0.0,0.0,0.0,0.0,0.0,0.0,0.0,0.0,-3.6259,-3.6225,-3.6165,-3.6036,-3.5817,-3.5745,-3.5701,-3.5701,0.0,0.0,0.0,0.0,0.0,0.0,-3.7945,-3.8438,-3.87,-3.8993,-3.9185,-3.9299,-3.91,-3.9085,-3.9282,-3.9607,-3.99,-4.0199,-4.0552,-4.0705,-4.0748,-4.1428,-4.1931,-4.236,0.0,0.0,0.0,0.0,0.0,0.0,0.0,0.0,0.0,0.0,0.0,0.0,0.0,0.0,0.0,0.0,0.0,0.0,0.0,0.0,0.0,0.0,0.0,0.0,0.0,0.0,0.0,0.0,0.0,0.0,0.0,0.0,0.0,0.0,0.0,-4.5814,-4.5827,-4.5827,-4.586,-4.5932,-4.5937,-4.6077,-4.641,-4.6504,-4.6911,-4.7786,-4.7905,-4.8195,-4.8781,-4.8864,-4.9035,-4.9309,-4.9336,-4.9333,-4.933,-4.9324,-4.8867,-4.8021,-4.7725,-4.7276,-4.6729,-4.6436,-4.6296,-4.6288,-4.6236,-4.6195,-4.619,-4.6138,-4.6056,-4.5983,-4.5925,-4.5833,-4.5715,0.0,0.0,0.0,0.0,0.0,0.0,0.0,0.0,0.0,0.0,-3.6301,-3.6259,-3.6208,-3.6079,-3.5932,-3.5817,-3.5611,-3.5492,-3.5492,-3.5417,0.0,0.0,0.0,0.0,-3.8584,-3.8684,-3.8921,-3.9298,-3.9529,-3.9731,-3.9911,-4.0103,-4.0347,-4.0598,-4.0873,-4.118,-4.1505,-4.1773,-4.1676,-4.1371,-4.1512,-4.2144,-4.3133,0.0,0.0,0.0,0.0,0.0,0.0,0.0,0.0,0.0,0.0,0.0,0.0,0.0,0.0,0.0,0.0,0.0,0.0,0.0,0.0,0.0,0.0,0.0,0.0,0.0,0.0,0.0,0.0,0.0,0.0,0.0,0.0,0.0,-4.58,-4.58,-4.5814,-4.5893,-4.5893,-4.5951,-4.603,-4.603,-4.6391,-4.7279,-4.7408,-4.7825,-4.8701,-4.8801,-4.8859,-4.8878,-4.8942,-4.9348,-5.0129,-5.0215,-5.0233,-5.0232,-5.0166,-4.9729,-4.8909,-4.8041,-4.7627,-4.7549,-4.6671,-4.63,-4.63,-4.624,-4.6206,-4.6181,-4.6135,-4.6066,-4.5997,-4.5929,-4.586,-4.5765,0.0,0.0,0.0,0.0,0.0,0.0,0.0,0.0,0.0,0.0,-3.6343,-3.6216,-3.6062,-3.6019,-3.5888,-3.5667,-3.5566,-3.5492,-3.5492,0.0,0.0,0.0,0.0,0.0,-3.8044,-3.8836,-3.9388,-3.9586,-3.9791,-4.0009,-4.0264,-3.9984,-3.9935,-4.0182,-4.0563,-4.0854,-4.1167,-4.1415,-4.1941,-4.2629,-4.297,-4.3321,-4.375,0.0,0.0,0.0,0.0,0.0,0.0,0.0,0.0,0.0,0.0,0.0,0.0,0.0,0.0,0.0,0.0,0.0,0.0,0.0,0.0,0.0,0.0,0.0,0.0,0.0,0.0,0.0,0.0,0.0,0.0,0.0,0.0,-4.5795,-4.58,-4.58,-4.5814,-4.5893,-4.5893,-4.6171,-4.6884,-4.6942,-4.7303,-4.8191,-4.8302,-4.872,-4.9596,-4.9698,-5.0029,-5.0673,-5.0695,-5.0828,-5.1047,-5.1053,-5.1074,-5.1072,-5.1052,-5.0598,-4.9748,-4.8926,-4.82,-4.7549,-4.6671,-4.63,-4.63,-4.6288,-4.6236,-4.6201,-4.6189,-4.6132,-4.6066,-4.6003,-4.5874,-4.5715,0.0,0.0,0.0,0.0,0.0,0.0,0.0,0.0,0.0,0.0,-3.6444,-3.6318,-3.6122,-3.6019,-3.5888,-3.5711,0.0,0.0,0.0,0.0,0.0,0.0,0.0,-3.8588,-3.8768,-3.9387,-3.9867,-4.0105,-4.0274,-4.0502,-4.0726,-4.0574,-4.0654,-4.0877,-4.1227,-4.1542,-4.1878,-4.2147,-4.273,-4.3461,-4.3834,-4.4137,-4.4443,-4.5088,-4.54,-4.5514,-4.5584,-4.5635,-4.5651,-4.57,0.0,0.0,0.0,0.0,0.0,0.0,0.0,0.0,0.0,0.0,0.0,0.0,0.0,0.0,0.0,0.0,0.0,0.0,0.0,0.0,0.0,0.0,0.0,0.0,-4.5735,-4.5781,-4.5791,-4.58,-4.5827,-4.5899,-4.6229,-4.6661,-4.7245,-4.7625,-4.8219,-4.9088,-4.9207,-4.9624,-5.049,-5.0575,-5.0842,-5.1375,-5.141,-5.1408,-5.1394,-5.1402,-5.1406,-5.1406,-5.1405,-5.113,-5.0598,-4.9422,-4.8616,0.0,-4.6834,-4.6303,-4.63,-4.6308,-4.626,0.0,0.0,0.0,0.0,0.0,-4.588,-4.5715,0.0,0.0,0.0,0.0,0.0,0.0,0.0,0.0,0.0,0.0,0.0,-3.6461,-3.6208,-3.6191,-3.6068,0.0,0.0,0.0,0.0,0.0,0.0,-3.8502,-3.9135,-3.9694,-4.002,-4.0037,-4.0238,-4.0648,-4.0728,-4.0948,-4.1163,-4.1408,-4.1719,-4.2061,-4.2274,-4.2595,-4.2939,-4.3286,-4.3582,-4.3897,-4.4207,-4.4587,-4.4967,-4.5125,-4.5235,-4.5379,-4.5514,-4.5568,-4.5603,-4.5651,0.0,0.0,0.0,0.0,0.0,0.0,0.0,0.0,0.0,0.0,0.0,0.0,0.0,0.0,0.0,0.0,0.0,0.0,0.0,0.0,0.0,0.0,0.0,0.0,-4.5687,-4.5754,-4.5916,-4.5945,-4.5963,-4.6041,-4.6816,-4.7403,-4.7578,-4.8289,-4.9116,-4.9984,-5.0092,-5.049,-5.1267,0.0,0.0,0.0,0.0,-5.1398,-5.1408,-5.14,-5.1404,-5.1404,-5.1406,-5.1405,-5.1346,-4.9664,-4.8897,-4.8792,-4.7054,-4.6309,-4.63,-4.6292,-4.626,-4.6206,-4.619,-4.6146,-4.6075,-4.5949,-4.5852,-4.5781,0.0,0.0,0.0,0.0,0.0,0.0,0.0,0.0,0.0,-3.7872,-3.7149,-3.6544,-3.6318,-3.6758,0.0,0.0,0.0,-3.7436,0.0,0.0,-3.8477,-3.9093,-3.9365,-3.9554,-3.959,-3.9729,-3.9935,-4.0238,-4.0221,-4.0485,-4.0965,-4.1088,-4.13,-4.1736,-4.2019,-4.2274,-4.2537,-4.2939,-4.3286,-4.36,-4.3897,0.0,-4.4712,-4.487,-4.5061,-4.5235,-4.5338,-4.5438,-4.5513,-4.5531,-4.5566,-4.562,-4.562,0.0,0.0,0.0,0.0,0.0,0.0,0.0,0.0,0.0,0.0,0.0,0.0,0.0,0.0,0.0,0.0,0.0,0.0,0.0,0.0,-4.5693,-4.5709,-4.5973,-4.6746,-4.6858,-4.6864,-4.6939,-4.7727,-4.8548,-4.9318,-4.9551,-5.0009,-5.0878,-5.0967,-5.1064,-5.1287,-5.1289,0.0,-5.1317,-5.1366,-5.1406,-5.1398,-5.1408,-5.1396,-5.14,0.0,0.0,-5.1347,-4.9667,-4.8902,-4.8799,-4.7057,-4.6293,-4.629,-4.63,-4.6269,-4.6181,-4.6142,-4.6113,-4.6076,-4.5941,-4.5854,-4.5786,0.0,0.0,0.0,0.0,0.0,0.0,0.0,0.0,0.0,0.0,-3.8351,-3.7923,-3.7721,0.0,0.0,0.0,-3.7894,0.0,0.0,-3.8795,-3.8907,-3.9255,-3.9379,-3.9432,-3.9501,-3.959,-3.9677,-3.9884,-4.002,-4.0238,-4.0534,-4.0806,-4.1088,-4.1318,-4.1675,-4.2019,-4.2292,-4.2652,-4.2995,-4.3375,0.0,0.0,-4.4335,-4.4667,-4.4895,-4.5061,-4.5235,-4.5339,-4.5419,-4.5438,-4.5495,-4.555,-4.555,-4.5568,-4.5586,0.0,0.0,0.0,0.0,0.0,0.0,0.0,0.0,0.0,0.0,0.0,0.0,0.0,0.0,-4.5359,0.0,0.0,-4.5495,-4.5586,-4.5657,-4.5998,-4.6877,-4.7391,-4.7738,-4.7785,-4.8606,-4.9343,-4.98,-5.0258,-5.0728,-5.1169,-5.119,-5.122,-5.1306,-5.13,-5.1303,-5.1291,-5.133,-5.1366,-5.1406,-5.1398,-5.1408,-5.1394,-5.14,-5.1404,-5.1347,-4.9668,-4.8906,-4.8804,-4.7065,-4.63,-4.6293,-4.63,-4.6264,-4.6201,-4.615,-4.613,-4.6095,-4.5986,-4.5905,-4.5847,0.0,0.0,0.0,0.0,0.0,0.0,0.0,0.0,0.0,0.0,0.0,-3.9353,-3.9168,0.0,0.0,0.0,0.0,0.0,0.0,-3.9379,-3.9325,-3.9272,-3.9272,-3.9272,-3.9379,-3.9379,-3.9468,-3.9625,-3.9884,-4.002,-4.0121,-4.0534,-4.0823,-4.0995,-4.1318,-4.1675,-4.2019,-4.2351,-4.2709,-4.3087,0.0,0.0,-4.3986,-4.443,-4.4719,-4.4895,-4.5148,-4.5254,-4.5317,-4.5361,-4.5438,-4.5495,-4.5495,-4.5513,-4.555,-4.5495,-4.5476,0.0,0.0,0.0,0.0,0.0,0.0,0.0,0.0,0.0,-4.4857,-4.501,-4.5048,-4.5126,-4.536,-4.54,-4.5419,-4.5476,-4.572,-4.6196,-4.7024,-4.794,-4.862,-4.8866,-4.9548,-5.0048,-5.0047,-5.0751,-5.1194,-5.1208,-5.119,-5.124,-5.1306,-5.1304,-5.1308,-5.1303,-5.1291,-5.1323,-5.1372,-5.1386,-5.1394,-5.1405,-5.1394,-5.14,-5.1344,-4.9666,-4.8906,-4.8808,-4.7069,-4.6303,-4.6293,-4.63,-4.6264,-4.6231,-4.6203,-4.6169,-4.6102,-4.6027,-4.5972,-4.5899,0.0,0.0,0.0,0.0,0.0,0.0,0.0,0.0,0.0,0.0,0.0,0.0,0.0,0.0,0.0,0.0,0.0,0.0,-3.9537,-3.9501,-3.9432,-3.9325,-3.9148,-3.9023,-3.9077,-3.9077,-3.9148,-3.9325,-3.9484,-3.9746,-4.007,-4.0171,-4.0436,-4.0935,-4.1041,-4.1272,-4.1692,-4.2019,-4.2351,0.0,0.0,0.0,-4.3777,-4.4102,-4.4439,-4.4745,-4.4895,-4.5103,-4.5297,-4.5317,-4.5361,-4.5419,-4.5419,-4.5419,-4.5419,-4.5419,0.0,-4.5246,-4.446,-4.3635,-4.2962,-4.2867,-4.2905,-4.2962,0.0,0.0,-4.3291,-4.3997,-4.415,-4.44,-4.5245,-4.5399,-4.54,-4.54,-4.6129,-4.6992,-4.7854,-4.8757,-4.9676,-5.0513,-5.0767,-5.0893,-5.0959,-5.1037,-5.1152,-5.1208,-5.12,-5.124,-5.1306,-5.1295,-5.1304,-5.13,-5.1303,-5.1297,-5.1317,-5.1366,-5.1401,-5.1401,-5.1402,-5.1391,-5.1333,-4.9664,-4.8905,-4.8807,-4.705,-4.6303,-4.6293,-4.629,-4.63,-4.6279,-4.6226,-4.6203,-4.6162,-4.6056,-4.5997,-4.5975,0.0,0.0,0.0,0.0,0.0,0.0,0.0,0.0,0.0,0.0,0.0,0.0,0.0,0.0,0.0,0.0,0.0,0.0,-3.9746,-3.9606,-3.9379,-3.9148,-3.9023,-3.8969,-3.8914,-3.886,-3.8914,-3.904,-3.9272,-3.9484,-3.9625,-3.9918,-4.0221,-4.0436,-4.0758,-4.1088,-4.1391,-4.1805,-4.2228,0.0,0.0,0.0,-4.3615,-4.3923,-4.4199,-4.4439,-4.4777,-4.4967,0.0,0.0,-4.5277,-4.536,-4.538,-4.54,-4.54,-4.54,-4.5035,0.0,-4.352,-4.3002,0.0,0.0,-4.2269,-4.2519,-4.2001,-4.2309,-4.2923,-4.3764,-4.3956,-4.4244,-4.5165,-4.5359,-4.5399,0.0,-4.6148,-4.705,-4.7934,-4.8837,-4.9777,-5.0623,-5.0844,-5.0975,-5.1048,-5.1069,-5.1108,-5.1132,-5.1167,-5.12,-5.1249,-5.1278,-5.1295,-5.1304,-5.13,-5.1303,-5.1291,-5.133,-5.1355,-5.1405,-5.1406,-5.1121,-5.0601,-4.9383,-4.8315,-4.7342,-4.6621,-4.6307,-4.6301,-4.6295,-4.6306,-4.6292,-4.6264,-4.622,-4.619,-4.613,-4.6076,-4.5997,0.0,0.0,0.0,0.0,0.0,0.0,0.0,0.0,0.0,0.0,0.0,0.0,0.0,0.0,0.0,0.0,0.0,0.0,0.0,-3.9694,-3.9362,-3.9023,-3.8969,-3.886,-3.8766,-3.875,-3.875,-3.875,-3.904,-3.9218,-3.9325,-3.9677,-3.9986,-4.0138,-4.0534,-4.0871,-4.1134,-4.1569,-4.2019,0.0,0.0,0.0,-4.3444,-4.3734,-4.3986,-4.424,-4.4648,-4.4846,0.0,0.0,-4.5213,-4.5297,-4.5338,-4.538,-4.538,-4.5379,-4.4593,-4.3541,-4.2601,0.0,0.0,-4.1119,-4.1426,-4.1732,-4.11,-4.1445,-4.2174,-4.3035,-4.3378,-4.3819,-4.4739,-4.5144,-4.5317,-4.5317,-4.6278,-4.7219,-4.7851,-4.897,-4.9913,-5.0529,-5.072,-5.0844,-5.0925,-5.1015,-5.1082,-5.1095,-5.1144,-5.1178,-5.1189,-5.1249,-5.1278,-5.1306,-5.1304,-5.13,-5.1303,-5.1291,-5.1317,-5.1369,-5.1152,-5.0713,-5.0063,-4.8961,-4.7686,-4.6307,-4.6308,-4.6308,-4.6307,-4.63,-4.6293,-4.6303,-4.6292,-4.6275,-4.6234,-4.6215,-4.6149,-4.6047,0.0,0.0,0.0,0.0,0.0,0.0,0.0,0.0,0.0,0.0,0.0,0.0,0.0,0.0,0.0,0.0,0.0,0.0,0.0,-3.9781,-3.952,-3.9023,-3.886,-3.8766,-3.8616,-3.8632,-3.8632,-3.8632,-3.8766,-3.8985,-3.9272,-3.9325,-3.9625,-4.0138,-4.0238,-4.0534,-4.0918,-4.129,0.0,0.0,0.0,0.0,-4.3251,-4.3597,-4.3873,-4.417,-4.4477,0.0,0.0,0.0,-4.5148,-4.5213,-4.5297,-4.5297,0.0,-4.5297,-4.4131,0.0,0.0,0.0,-4.0153,-4.0074,-4.0053,-4.0072,-4.0053,-4.0114,-4.0421,-4.1317,-4.2117,-4.2917,-4.3792,-4.4592,-4.5125,-4.5125,-4.6587,-4.7783,-4.7802,-4.9343,-5.0485,-5.0606,-5.0606,-5.0663,0.0,-5.0925,-5.1029,-5.1095,-5.1095,-5.1132,-5.1208,-5.1189,-5.124,-5.1306,-5.1306,-5.1304,-5.13,-5.1303,-5.1291,-5.1291,-5.0511,-5.0137,-5.003,-4.8392,-4.7159,-4.6307,-4.6307,-4.6308,-4.6307,-4.6303,-4.6297,-4.629,-4.6292,-4.6303,-4.6279,-4.6215,-4.6203,-4.6177,0.0,0.0,0.0,0.0,0.0,0.0,0.0,0.0,0.0,0.0,0.0,0.0,0.0,0.0,0.0,0.0,0.0,0.0,0.0,-3.9935,-3.9504,-3.9023,-3.886,-3.8639,-3.8351,-3.8335,-3.8335,-3.8335,-3.8448,-3.8616,-3.8838,-3.9164,-3.9432,-3.9694,-4.0037,-4.0387,-4.0793,-4.1134,0.0,0.0,0.0,0.0,-4.316,-4.3495,-4.3795,-4.4079,0.0,0.0,0.0,0.0,-4.508,-4.5148,-4.5256,0.0,0.0,-4.3959,-4.2832,-4.1724,0.0,0.0,-4.0057,-3.9954,-3.9933,-3.9933,-3.9933,-3.9954,-4.0241,-4.1138,-4.1977,-4.2813,-4.3732,-4.4551,-4.5103,-4.5103,-4.61,-4.7057,-4.759,-4.8774,-4.9781,-5.032,-5.0526,0.0,0.0,0.0,0.0,-5.0966,-5.1048,-5.1102,-5.1132,-5.1125,-5.1159,-5.124,-5.1269,-5.1295,-5.1304,-5.13,-5.1016,-5.0412,-4.9029,-4.8371,-4.8333,-4.7249,-4.658,-4.63,-4.6303,-4.6306,-4.6308,-4.6307,-4.6303,-4.6297,-4.6309,-4.6296,-4.6225,-4.5631,-4.5382,-4.5339,0.0,0.0,0.0,0.0,0.0,0.0,0.0,0.0,0.0,0.0,0.0,0.0,0.0,0.0,0.0,0.0,0.0,0.0,0.0,0.0,-3.9573,-3.9023,-3.8805,-3.8528,-3.8237,-3.8107,-3.8107,-3.8107,-3.8221,-3.8391,-3.856,-3.8947,-3.9218,-3.9448,-3.9833,-4.0238,-4.06,0.0,0.0,0.0,0.0,0.0,-4.303,-4.3339,-4.3631,0.0,0.0,0.0,0.0,0.0,0.0,0.0,0.0,-4.5065,-4.4571,-4.3195,-4.2183,-4.1304,-4.0366,-4.0117,-4.0057,-3.9954,-3.9911,-3.9889,-3.9889,-3.9889,-4.0063,-4.0634,-4.1639,-4.2606,-4.3179,-4.4185,-4.4943,-4.4943,-4.5732,-4.6611,-4.7409,-4.8386,-4.9339,-5.0206,-5.0399,0.0,0.0,0.0,0.0,-5.0893,-5.0975,-5.1034,-5.1056,-5.1088,-5.1125,-5.1159,-5.122,-5.1269,-5.1306,-5.0992,-5.024,-4.9099,-4.8009,-4.7345,-4.7011,-4.6514,-4.6296,-4.6309,-4.6297,-4.6303,-4.6307,-4.6308,-4.6307,-4.6264,-4.5963,-4.5838,-4.573,-4.4864,-4.4309,-4.4041,0.0,0.0,0.0,0.0,0.0,0.0,0.0,0.0,0.0,0.0,0.0,0.0,0.0,0.0,0.0,0.0,0.0,0.0,0.0,0.0,0.0,-3.9023,-3.875,-3.8488,-3.818,-3.7992,-3.7892,-3.7924,-3.8113,-3.8286,-3.8456,-3.8704,-3.9002,-3.9325,-3.9694,-4.0054,-4.0337,0.0,0.0,0.0,0.0,0.0,-4.2822,-4.3105,0.0,0.0,0.0,0.0,0.0,0.0,0.0,0.0,0.0,-4.4624,-4.3806,-4.3023,-4.2144,-4.1266,-4.0425,-4.0157,-4.0077,-4.0036,-3.9954,-3.9911,-3.9889,-3.9889,-3.9889,-3.9804,-4.1146,-4.2295,0.0,0.0,-4.4712,-4.4712,-4.5495,-4.643,-4.7264,-4.8201,-4.9181,0.0,0.0,0.0,0.0,0.0,0.0,-5.0883,0.0,-5.0921,-5.0986,-5.1056,-5.1088,-5.1093,-5.1147,-5.122,-5.1228,-5.0313,-4.9083,-4.7482,-4.7444,-4.7002,-4.6203,-4.6275,-4.6308,-4.63,-4.6309,-4.63,-4.6307,-4.625,-4.623,-4.615,-4.5263,-4.4926,-4.4826,-4.395,-4.3107,-4.2494,0.0,0.0,0.0,0.0,0.0,0.0,0.0,0.0,0.0,0.0,0.0,0.0,0.0,0.0,0.0,0.0,0.0,0.0,0.0,0.0,0.0,0.0,0.0,0.0,0.0,0.0,0.0,0.0,0.0,-3.8702,-3.9011,-3.9153,-3.9201,0.0,-3.9415,-3.9798,-4.0188,0.0,0.0,0.0,0.0,0.0,-4.2688,0.0,0.0,0.0,0.0,0.0,0.0,0.0,0.0,0.0,0.0,-4.4284,-4.308,-4.287,-4.1762,-4.054,-4.0272,-4.0196,-4.0157,-4.0017,-3.9975,-3.9954,-3.9911,-3.9867,-3.9826,-3.9804,-4.108,-4.2227,0.0,0.0,0.0,-4.4712,-4.4926,0.0,-4.711,-4.7586,0.0,-4.9892,0.0,-5.0302,-5.0348,-5.0459,0.0,0.0,-5.0757,-5.0841,-5.0921,-5.0937,-5.0995,-5.1108,-5.1125,-5.0848,-5.0257,-4.8797,-4.7848,-4.742,-4.6819,-4.6424,-4.6203,-4.6215,-4.625,-4.6308,-4.63,-4.6309,-4.6258,-4.5603,-4.5332,-4.5234,-4.4372,-4.4034,-4.3928,-4.3046,-4.2594,-4.2331,0.0,0.0,0.0,0.0,0.0,0.0,0.0,0.0,0.0,0.0,0.0,0.0,0.0,0.0,0.0,0.0,0.0,0.0,0.0,0.0,0.0,0.0,0.0,0.0,0.0,0.0,0.0,0.0,0.0,0.0,0.0,-3.9253,-3.9211,-3.886,-3.9218,-3.9642,-4.0037,0.0,0.0,0.0,0.0,0.0,0.0,0.0,0.0,0.0,0.0,0.0,0.0,0.0,0.0,-4.517,-4.5297,-4.4172,-4.2814,-4.2833,0.0,-4.0291,-4.0253,-4.0215,-4.0176,-4.0077,-4.0017,-3.9975,-3.9911,-3.9867,-3.9804,-3.9758,-4.1052,0.0,0.0,0.0,0.0,0.0,0.0,0.0,-4.642,-4.7038,-4.7889,0.0,-4.9854,0.0,-5.0255,-5.0348,-5.0457,0.0,-5.0644,-5.0738,-5.0808,-5.0874,-5.0937,-5.1009,-5.0701,-4.9955,-4.8777,-4.7864,-4.7209,-4.6867,-4.6415,-4.6196,-4.6196,-4.6203,-4.6215,-4.627,0.0,-4.6085,-4.5685,-4.5206,-4.4763,-4.4335,-4.3476,-4.3122,-4.3019,-4.2156,-4.1839,-4.1755,0.0,0.0,0.0,0.0,0.0,0.0,0.0,0.0,0.0,0.0,0.0,0.0,0.0,0.0,0.0,0.0,0.0,0.0,0.0,0.0,0.0,0.0,0.0,0.0,0.0,0.0,0.0,0.0,0.0,0.0,0.0,0.0,0.0,0.0,0.0,0.0,0.0,0.0,0.0,0.0,0.0,0.0,0.0,0.0,0.0,0.0,0.0,0.0,0.0,0.0,-4.5103,-4.5148,-4.5338,-4.4192,-4.2814,-4.2889,-4.1682,-4.0307,-4.0307,-4.0272,-4.0196,-4.0117,-4.0057,-3.9996,-3.9911,-3.9826,-3.9781,-3.9712,0.0,-4.2025,-4.1919,-4.3259,-4.4373,-4.4314,0.0,-4.4768,-4.5585,-4.66,-4.7613,-4.8564,-4.9459,-5.0057,-5.0163,-5.0255,-5.0325,-5.039,-5.0504,-5.0606,-5.0682,-5.0808,-5.0832,-5.0751,-4.9896,-4.8761,-4.7306,-4.7252,-4.688,-4.6197,-4.6205,-4.6201,-4.6196,-4.6196,-4.6144,-4.6033,0.0,0.0,-4.4813,-4.4708,-4.421,-4.3436,-4.2578,-4.2226,-4.2146,-4.1379,-4.1099,-4.1097,0.0,0.0,0.0,0.0,0.0,0.0,0.0,0.0,0.0,0.0,0.0,0.0,0.0,0.0,0.0,0.0,0.0,0.0,0.0,0.0,0.0,0.0,0.0,0.0,0.0,0.0,0.0,0.0,0.0,0.0,0.0,0.0,0.0,0.0,0.0,0.0,0.0,0.0,0.0,0.0,0.0,0.0,0.0,0.0,0.0,0.0,0.0,0.0,0.0,0.0,-4.5103,-4.5213,-4.5338,-4.425,-4.2889,-4.2889,-4.17,-4.0362,-4.0325,-4.0289,-4.0252,-4.0118,-4.0077,-4.0057,-3.9933,-3.9823,0.0,0.0,0.0,-4.1919,-4.1892,-4.3203,0.0,-4.4314,0.0,0.0,0.0,0.0,-4.7419,0.0,0.0,0.0,0.0,0.0,0.0,0.0,0.0,-5.0483,-5.0606,-5.0682,-5.0482,-4.9939,-4.8443,-4.7527,-4.7303,-4.6599,-4.6202,-4.6114,-4.6169,-4.6212,-4.6193,-4.6196,-4.58,-4.5136,-4.5148,0.0,-4.3868,-4.3144,-4.2763,-4.2532,-4.1677,-4.1328,-4.1306,-4.1169,-4.1105,-4.1099,0.0,0.0,0.0,0.0,0.0,0.0,0.0,0.0,0.0,0.0,0.0,0.0,0.0,0.0,0.0,0.0,0.0,0.0,0.0,0.0,0.0,0.0,0.0,0.0,0.0,0.0,0.0,0.0,0.0,0.0,0.0,0.0,0.0,0.0,0.0,0.0,0.0,0.0,0.0,0.0,0.0,0.0,0.0,0.0,0.0,0.0,0.0,0.0,0.0,0.0,-4.5125,-4.5256,-4.538,-4.4269,-4.2944,-4.2998,-4.179,-4.0449,-4.0396,-4.0342,-4.0289,-4.0177,-4.0138,-4.0077,-3.9975,0.0,0.0,0.0,-4.086,-4.1892,-4.1838,0.0,0.0,0.0,0.0,0.0,0.0,0.0,0.0,0.0,0.0,0.0,0.0,0.0,0.0,0.0,0.0,-5.0459,-5.0605,-5.0279,-4.9541,-4.8381,-4.7569,-4.6952,-4.6584,-4.6185,-4.6016,-4.6056,-4.6114,-4.6169,-4.6185,-4.5733,-4.5299,-4.4865,-4.4415,0.0,-4.2997,-4.2565,-4.2129,-4.1689,-4.1265,-4.1092,-4.1094,-4.1093,-4.0836,-4.048,0.0,0.0,0.0,0.0,0.0,0.0,0.0,0.0,0.0,0.0,0.0,0.0,0.0,0.0,0.0,0.0,0.0,0.0,0.0,0.0,0.0,0.0,0.0,0.0,0.0,0.0,0.0,0.0,0.0,0.0,0.0,0.0,0.0,0.0,0.0,0.0,0.0,0.0,0.0,0.0,0.0,0.0,0.0,0.0,0.0,0.0,0.0,0.0,0.0,0.0,-4.5125,-4.5277,-4.5361,-4.4421,-4.3265,-4.3126,-4.2011,-4.0748,-4.054,-4.0396,-4.0307,-4.0215,-4.0138,-4.0077,-4.0036,-3.9826,0.0,0.0,-4.0729,-4.1678,-4.1764,0.0,0.0,0.0,0.0,0.0,0.0,0.0,0.0,0.0,0.0,0.0,0.0,0.0,0.0,0.0,0.0,0.0,-5.0294,-4.9433,-4.8349,-4.7101,-4.6897,-4.6496,-4.5893,-4.5925,-4.5972,-4.5997,-4.5881,-4.5842,-4.5866,-4.5017,-4.4526,-4.4306,-4.3623,0.0,0.0,-4.2124,-4.1729,-4.1097,-4.1103,-4.0991,-4.0838,-4.084,-4.0312,-3.9626,0.0,0.0,0.0,0.0,0.0,0.0,0.0,0.0,0.0,0.0,0.0,0.0,0.0,0.0,0.0,0.0,0.0,0.0,0.0,0.0,0.0,0.0,0.0,0.0,0.0,0.0,0.0,0.0,0.0,0.0,0.0,0.0,0.0,0.0,0.0,0.0,0.0,0.0,0.0,0.0,0.0,0.0,0.0,0.0,0.0,0.0,0.0,0.0,0.0,0.0,0.0,-4.5235,-4.5361,-4.4842,-4.4047,-4.3316,0.0,0.0,-4.0729,-4.0449,-4.0362,-4.0233,-4.0138,-4.0077,-4.0036,0.0,0.0,-3.9689,-4.0297,-4.1023,-4.167,-4.2462,-4.3241,0.0,0.0,0.0,0.0,0.0,0.0,0.0,0.0,0.0,0.0,0.0,0.0,0.0,0.0,0.0,-4.9411,-4.7914,-4.7008,-4.6906,-4.6205,-4.5819,-4.5814,-4.5814,-4.5867,-4.5983,-4.5267,-4.4929,-4.4899,-4.4086,-4.3284,-4.2532,-4.2526,0.0,0.0,-4.1222,-4.1179,-4.1091,-4.1097,-4.0656,-4.0017,-4.0018,-3.9453,-3.8728,0.0,0.0,0.0,0.0,0.0,0.0,0.0,0.0,0.0,0.0,0.0,0.0,0.0,0.0,0.0,0.0,0.0,0.0,0.0,0.0,0.0,0.0,0.0,0.0,0.0,0.0,0.0,0.0,0.0,0.0,0.0,0.0,0.0,0.0,0.0,0.0,0.0,0.0,0.0,0.0,0.0,0.0,0.0,0.0,0.0,0.0,0.0,0.0,0.0,0.0,0.0,0.0,-4.5361,-4.5227,0.0,0.0,-4.2489,-4.1623,-4.0742,-4.0479,-4.0432,-4.0344,-4.0234,-4.0138,-4.0077,0.0,-3.98,-3.9712,-4.0265,-4.0982,-4.1679,-4.2387,-4.3148,0.0,0.0,0.0,0.0,0.0,0.0,0.0,0.0,0.0,0.0,0.0,0.0,0.0,0.0,0.0,-4.768,-4.7127,-4.6606,-4.614,-4.5847,-4.5719,-4.5742,-4.5786,-4.5576,-4.5151,-4.4874,-4.4491,-4.3996,-4.3138,-4.2599,-4.2272,-4.176,0.0,0.0,-4.1106,-4.1105,-4.1042,-4.0522,-4.0142,-3.9836,-3.9312,-3.8573,-3.7812,0.0,0.0,0.0,0.0,0.0,0.0,0.0,0.0,0.0,0.0,0.0,0.0,0.0,0.0,0.0,0.0,0.0,0.0,0.0,0.0,0.0,0.0,0.0,0.0,0.0,0.0,0.0,0.0,0.0,0.0,0.0,0.0,0.0,0.0,0.0,0.0,0.0,0.0,0.0,0.0,0.0,0.0,0.0,0.0,0.0,0.0,0.0,0.0,0.0,0.0,0.0,0.0,0.0,0.0,0.0,0.0,-4.2854,-4.1989,-4.1123,-4.0688,-4.0466,-4.0415,-4.0289,-4.0177,0.0,0.0,-3.9867,-3.9758,-4.0131,-4.076,-4.1696,-4.2258,-4.2899,0.0,0.0,0.0,0.0,0.0,0.0,0.0,0.0,0.0,0.0,0.0,0.0,0.0,0.0,0.0,0.0,-4.632,-4.6129,-4.5569,-4.5622,-4.5637,-4.5668,-4.5495,-4.5114,-4.4601,-4.4136,-4.3632,-4.3092,-4.2208,-4.1846,-4.1887,0.0,0.0,0.0,-4.0822,-4.0716,-4.0637,-3.9751,-3.9295,-3.9069,-3.8448,-3.7652,-3.6913,0.0,0.0,0.0,0.0,0.0,0.0,0.0,0.0,0.0,0.0,0.0,0.0,0.0,0.0,0.0,0.0,0.0,0.0,0.0,0.0,0.0,0.0,0.0,0.0,0.0,0.0,0.0,0.0,0.0,0.0,0.0,0.0,0.0,0.0,0.0,0.0,0.0,0.0,0.0,0.0,0.0,0.0,0.0,0.0,0.0,0.0,0.0,0.0,0.0,0.0,0.0,0.0,0.0,0.0,0.0,0.0,-4.372,-4.2893,-4.2027,-4.1168,-4.0466,-4.0415,-4.0289,-4.0177,0.0,0.0,-3.9889,-3.9804,-3.975,-4.0177,-4.1717,-4.1902,-4.2333,-4.3953,0.0,0.0,0.0,0.0,0.0,0.0,0.0,0.0,0.0,0.0,0.0,0.0,0.0,0.0,0.0,-4.5378,-4.5419,-4.54,-4.5476,-4.5531,-4.5586,-4.4809,-4.4484,-4.4581,-4.2841,-4.2078,-4.2168,-4.1306,-4.0945,0.0,0.0,0.0,0.0,-4.0148,-3.9808,-3.9736,-3.8842,-3.8037,-3.7321,-3.7329,-3.6769,-3.6011,0.0,0.0,0.0,0.0,0.0,0.0,0.0,0.0,0.0,0.0,0.0,0.0,0.0,0.0,0.0,0.0,0.0,0.0,0.0,0.0,0.0,0.0,0.0,0.0,0.0,0.0,0.0,0.0,0.0,0.0,0.0,0.0,0.0,0.0,0.0,0.0,0.0,0.0,0.0,0.0,0.0,0.0,0.0,0.0,0.0,0.0,0.0,0.0,0.0,0.0,0.0,0.0,0.0,0.0,0.0,0.0,0.0,0.0,-4.2047,-4.1146,-4.0476,-4.0432,-4.0362,-4.0308,-4.0177,-4.0098,-4.0015,-3.9889,-3.9777,-4.0169,-4.1717,-4.1938,-4.2399,-4.3994,-4.4274,0.0,0.0,0.0,0.0,0.0,0.0,0.0,0.0,0.0,0.0,0.0,0.0,0.0,0.0,-4.5317,-4.5359,-4.5419,-4.4882,-4.4651,-4.4706,-4.391,-4.3265,-4.2748,-4.224,-4.1712,-4.1168,-4.0983,0.0,0.0,0.0,0.0,0.0,-3.9831,-3.9402,-3.8819,-3.7947,-3.7472,-3.7237,-3.6632,-3.6231,-3.6007,0.0,0.0,0.0,0.0,0.0,0.0,0.0,0.0,0.0,0.0,0.0,0.0,0.0,0.0,0.0,0.0,0.0,0.0,0.0,0.0,0.0,0.0,0.0,0.0,0.0,0.0,0.0,0.0,0.0,0.0,0.0,0.0,0.0,0.0,0.0,0.0,0.0,0.0,0.0,0.0,0.0,0.0,-4.1471,0.0,0.0,0.0,0.0,0.0,0.0,0.0,0.0,0.0,0.0,0.0,0.0,0.0,-4.3724,0.0,0.0,-4.1162,-4.0473,-4.0413,-4.0398,-4.0344,-4.0234,-4.0157,-4.0057,-3.9954,-3.9826,-4.0222,-4.1795,-4.2018,-4.2462,-4.4063,-4.4344,0.0,0.0,0.0,0.0,0.0,0.0,0.0,0.0,0.0,0.0,0.0,0.0,0.0,0.0,-4.4819,-4.4687,-4.444,-4.425,-4.402,-4.3731,-4.2958,-4.2316,-4.1863,-4.1605,-4.1196,-4.0694,-4.0792,0.0,0.0,0.0,0.0,0.0,-3.8884,-3.8455,-3.7912,-3.706,-3.6738,-3.6711,-3.6189,-3.6004,-3.5996,0.0,0.0,0.0,0.0,0.0,0.0,0.0,0.0,0.0,0.0,0.0,0.0,0.0,0.0,0.0,0.0,0.0,0.0,0.0,0.0,0.0,0.0,0.0,0.0,0.0,0.0,0.0,-4.0053,-3.9662,-3.9329,-3.9023,0.0,0.0,0.0,0.0,0.0,0.0,0.0,0.0,0.0,0.0,0.0,0.0,0.0,0.0,0.0,0.0,0.0,0.0,0.0,0.0,0.0,0.0,0.0,0.0,0.0,0.0,0.0,0.0,0.0,0.0,0.0,-4.0398,-4.0381,-4.0234,-4.0157,0.0,-4.0017,-3.9892,-4.0291,-4.192,-4.2096,-4.2535,-4.4149,-4.4411,0.0,0.0,0.0,0.0,0.0,0.0,0.0,0.0,0.0,0.0,0.0,0.0,0.0,0.0,-4.3921,-4.3539,-4.2737,-4.3483,-4.3541,-4.2718,-4.1967,-4.1632,-4.1684,-4.0943,-4.0626,-4.0694,-4.0636,0.0,0.0,0.0,0.0,0.0,-3.7495,-3.7157,-3.7038,-3.6216,-3.5909,-3.5909,-3.5962,-3.599,-3.6001,0.0,0.0,0.0,0.0,0.0,0.0,0.0,0.0,0.0,0.0,0.0,0.0,0.0,0.0,0.0,0.0,0.0,0.0,0.0,0.0,0.0,0.0,0.0,0.0,0.0,0.0,0.0,-4.0594,-4.0103,-3.9731,-3.952,-3.9131,0.0,0.0,0.0,0.0,0.0,0.0,0.0,0.0,0.0,0.0,0.0,0.0,0.0,0.0,-4.2902,-4.3338,0.0,0.0,0.0,0.0,0.0,0.0,0.0,0.0,-4.2673,-4.186,-4.1027,0.0,-4.0473,-4.0413,-4.0398,-4.0381,0.0,-4.0215,-4.0157,0.0,0.0,0.0,-4.1992,-4.2172,-4.2622,-4.4269,-4.4551,0.0,0.0,0.0,0.0,0.0,0.0,0.0,0.0,0.0,0.0,0.0,0.0,0.0,0.0,-4.308,-4.2698,-4.182,-4.2011,-4.2049,-4.1876,-4.1052,-4.0684,-4.0806,-4.0604,-4.0549,-4.0596,-4.0043,0.0,0.0,0.0,0.0,-3.7389,-3.7194,-3.6748,-3.6183,-3.5986,-3.5899,-3.5909,-3.5914,-3.5962,-3.6009,0.0,0.0,0.0,0.0,0.0,0.0,0.0,0.0,0.0,0.0,0.0,0.0,0.0,0.0,0.0,0.0,0.0,0.0,0.0,0.0,0.0,0.0,0.0,0.0,0.0,0.0,0.0,0.0,0.0,-4.0237,0.0,0.0,0.0,0.0,0.0,0.0,0.0,0.0,0.0,0.0,0.0,0.0,0.0,0.0,0.0,0.0,-4.2729,-4.3178,0.0,-4.3936,-4.4306,-4.4587,0.0,0.0,0.0,0.0,-4.2276,-4.1522,-4.0726,-4.0492,-4.0473,-4.0413,-4.0398,-4.0381,-4.0329,0.0,0.0,0.0,0.0,0.0,0.0,0.0,0.0,0.0,0.0,0.0,0.0,0.0,0.0,0.0,0.0,0.0,0.0,0.0,0.0,0.0,0.0,0.0,0.0,-4.2202,-4.182,-4.0979,-4.096,-4.0979,-4.0997,-4.0538,-4.0325,-4.0396,-4.006,-3.9946,-3.9986,-3.9206,-3.867,0.0,0.0,0.0,-3.6498,-3.6491,-3.6268,-3.5905,-3.5897,-3.5908,-3.5899,-3.5899,-3.5929,-3.5899,0.0,0.0,0.0,0.0,0.0,0.0,0.0,0.0,0.0,0.0,0.0,0.0,0.0,0.0,0.0,0.0,0.0,0.0,0.0,0.0,0.0,0.0,0.0,0.0,0.0,0.0,0.0,0.0,0.0,0.0,0.0,0.0,-3.9884,0.0,0.0,0.0,0.0,0.0,0.0,0.0,-4.0534,0.0,0.0,0.0,0.0,0.0,0.0,0.0,0.0,-4.3749,-4.4097,-4.4402,-4.4542,0.0,0.0,0.0,0.0,0.0,-4.0677,-4.0479,-4.0476,-4.0413,-4.0379,-4.0381,0.0,0.0,0.0,0.0,0.0,0.0,0.0,0.0,0.0,0.0,0.0,0.0,0.0,0.0,0.0,0.0,0.0,0.0,0.0,0.0,0.0,0.0,0.0,0.0,0.0,-4.1323,-4.0998,-4.0329,-4.0291,-4.0215,-4.0081,-4.0099,-4.0116,-4.0116,-3.9342,-3.9039,-3.9065,-3.8252,-3.7527,0.0,0.0,0.0,-3.5791,-3.5795,-3.5845,-3.5905,-3.5905,-3.5897,-3.5908,-3.5908,-3.5821,-3.5578,0.0,0.0,0.0,0.0,0.0,0.0,0.0,0.0,0.0,0.0,0.0,0.0,0.0,0.0,0.0,0.0,0.0,0.0,0.0,0.0,0.0,0.0,0.0,0.0,0.0,0.0,0.0,0.0,0.0,0.0,-4.1071,-4.0614,-4.0238,0.0,0.0,0.0,-3.9901,-4.0037,-4.0238,-4.0534,-4.0631,0.0,0.0,0.0,0.0,0.0,0.0,0.0,0.0,-4.3631,-4.3968,-4.4167,-4.3766,0.0,0.0,0.0,0.0,0.0,-4.0417,-4.0432,-4.0413,-4.0396,-4.0362,-4.0307,-4.0291,0.0,0.0,0.0,0.0,0.0,0.0,0.0,0.0,0.0,0.0,0.0,0.0,0.0,0.0,0.0,0.0,0.0,0.0,0.0,0.0,0.0,0.0,0.0,0.0,0.0,-4.0444,-4.031,-4.0253,-3.9872,-3.9128,-3.9165,-3.9238,-3.9272,-3.8429,-3.8073,-3.8161,-3.731,-3.6903,0.0,0.0,-3.5785,-3.5718,-3.5782,-3.585,-3.5905,-3.5898,-3.5897,-3.5908,-3.5908,-3.5421,-3.4569,0.0,0.0,0.0,0.0,0.0,0.0,0.0,0.0,0.0,0.0,0.0,0.0,0.0,0.0,0.0,0.0,0.0,0.0,0.0,0.0,0.0,0.0,0.0,0.0,0.0,0.0,0.0,0.0,0.0,-4.1924,-4.1596,-4.1007,-4.0614,-4.0355,0.0,0.0,-4.0238,-4.0271,-4.0436,-4.0648,0.0,0.0,0.0,0.0,0.0,0.0,0.0,0.0,0.0,0.0,-4.3873,-4.4061,-4.3536,0.0,0.0,0.0,0.0,0.0,-4.0326,-4.0345,-4.0364,-4.0344,-4.0325,-4.0289,-4.0291,0.0,0.0,0.0,0.0,0.0,0.0,0.0,0.0,0.0,0.0,0.0,0.0,0.0,0.0,0.0,0.0,0.0,0.0,0.0,0.0,0.0,0.0,0.0,0.0,0.0,-4.0062,-3.9566,-3.9509,-3.909,-3.8213,-3.7756,-3.7811,-3.8323,-3.7496,-3.7124,-3.7168,-3.6402,-3.6092,-3.6126,0.0,-3.5629,-3.5708,-3.5775,-3.5826,-3.5845,-3.5885,-3.5612,-3.5137,-3.472,-3.4004,-3.3132,0.0,0.0,0.0,0.0,0.0,0.0,0.0,0.0,0.0,0.0,0.0,0.0,0.0,0.0,0.0,0.0,0.0,0.0,0.0,0.0,0.0,0.0,0.0,0.0,0.0,0.0,-4.3656,-4.3248,-4.2847,-4.24,-4.1941,-4.1463,-4.1088,0.0,0.0,0.0,-4.0583,-4.0631,-4.0697,-4.0793,0.0,0.0,0.0,0.0,0.0,0.0,0.0,0.0,0.0,0.0,0.0,0.0,0.0,0.0,0.0,-4.1271,-4.0613,-4.0177,-4.029,-4.0291,-4.0291,-4.029,0.0,-4.029,-4.0291,0.0,0.0,0.0,0.0,0.0,0.0,0.0,0.0,0.0,0.0,0.0,0.0,0.0,0.0,0.0,0.0,0.0,0.0,0.0,0.0,0.0,0.0,0.0,0.0,0.0,-3.9585,-3.8651,-3.8613,-3.8175,-3.73,-3.6634,-3.6671,-3.7374,-3.6566,-3.6195,-3.6192,-3.5686,-3.546,-3.5507,-3.5577,-3.5626,-3.5678,-3.5757,-3.5782,-3.5784,-3.5658,-3.5074,-3.4222,-3.3395,-3.2659,-3.2065,0.0,0.0,0.0,0.0,0.0,0.0,0.0,0.0,0.0,0.0,0.0,0.0,0.0,0.0,0.0,0.0,0.0,0.0,0.0,0.0,0.0,0.0,0.0,0.0,0.0,-4.4519,-4.4136,-4.3754,-4.3283,-4.2714,-4.2103,-4.1917,-4.1613,-4.1163,0.0,0.0,-4.0888,-4.1,-4.1047,-4.1093,-4.1134,0.0,0.0,0.0,0.0,0.0,0.0,0.0,0.0,0.0,0.0,0.0,0.0,0.0,-4.1925,-4.0585,-4.0155,-4.0137,-4.0253,-4.031,-4.031,-4.031,-4.031,0.0,-4.031,-4.031,0.0,0.0,0.0,0.0,0.0,0.0,0.0,0.0,0.0,0.0,0.0,0.0,0.0,0.0,0.0,0.0,0.0,0.0,0.0,0.0,0.0,0.0,0.0,0.0,0.0,-3.7811,-3.7737,-3.7281,-3.6407,-3.6312,-3.6368,-3.6478,-3.5677,-3.5327,-3.5388,-3.5339,-3.5379,-3.5507,-3.5566,-3.5601,-3.5618,-3.5689,-3.5736,-3.5721,-3.497,-3.4211,-3.3375,-3.2504,-3.2153,-3.1982,0.0,0.0,0.0,0.0,0.0,0.0,0.0,0.0,0.0,0.0,0.0,0.0,0.0,0.0,0.0,0.0,0.0,0.0,0.0,0.0,0.0,0.0,0.0,-4.5776,-4.5536,-4.5039,-4.4606,-4.4299,-4.3735,-4.3231,-4.2732,-4.2498,0.0,0.0,0.0,0.0,-4.1373,-4.1426,-4.1398,-4.1443,-4.1542,-4.1631,0.0,0.0,0.0,0.0,0.0,0.0,0.0,0.0,-4.3463,-4.3178,0.0,0.0,-4.1288,-4.0357,-4.0117,-4.0137,-4.0253,-4.031,-4.031,-4.031,-4.0291,0.0,0.0,0.0,0.0,0.0,0.0,0.0,0.0,0.0,0.0,0.0,0.0,0.0,0.0,0.0,0.0,0.0,0.0,0.0,0.0,0.0,0.0,0.0,0.0,0.0,0.0,0.0,0.0,-3.6861,-3.6786,-3.635,-3.5439,-3.5439,-3.5458,-3.5531,-3.5299,-3.5217,-3.5231,-3.5277,-3.532,-3.5379,-3.5489,-3.5565,-3.5604,-3.5679,-3.5417,-3.485,-3.3504,-3.2822,-3.2488,-3.1617,-3.1291,-3.1237,0.0,0.0,0.0,0.0,0.0,0.0,0.0,0.0,0.0,0.0,0.0,0.0,0.0,0.0,0.0,0.0,0.0,0.0,0.0,0.0,0.0,0.0,0.0,-4.6033,-4.5966,-4.5517,-4.5125,-4.4781,-4.4223,-4.3721,-4.3336,0.0,0.0,0.0,0.0,0.0,0.0,-4.1856,-4.1849,-4.1823,-4.1909,-4.1995,0.0,0.0,0.0,0.0,0.0,0.0,0.0,0.0,0.0,0.0,0.0,0.0,0.0,0.0,-4.0117,-4.0137,-4.0253,-4.0291,-4.0291,0.0,0.0,0.0,0.0,0.0,0.0,0.0,0.0,0.0,0.0,0.0,0.0,0.0,0.0,0.0,0.0,0.0,0.0,0.0,0.0,0.0,0.0,0.0,0.0,0.0,0.0,0.0,0.0,0.0,0.0,0.0,-3.593,-3.559,-3.4908,-3.4908,-3.4927,-3.4964,-3.5092,-3.5183,-3.52,-3.5264,-3.5289,-3.5315,-3.5449,-3.5547,-3.5581,-3.5387,-3.468,-3.3596,-3.2454,-3.1863,-3.1626,-3.1013,-3.0799,-3.0804,0.0,0.0,0.0,0.0,0.0,0.0,0.0,0.0,0.0,0.0,0.0,0.0,0.0,0.0,0.0,0.0,0.0,0.0,0.0,0.0,0.0,0.0,0.0,-4.6162,-4.6096,-4.5966,-4.5679,-4.5207,-4.4663,-4.4184,-4.3804,-4.3605,0.0,0.0,0.0,0.0,0.0,0.0,-4.2374,-4.2328,-4.2328,-4.2351,-4.2414,0.0,0.0,0.0,0.0,0.0,0.0,0.0,-4.3527,0.0,0.0,0.0,0.0,0.0,-4.0117,-4.0137,-4.0253,-4.0309,-4.0307,0.0,0.0,0.0,0.0,0.0,0.0,0.0,0.0,0.0,0.0,0.0,0.0,0.0,0.0,0.0,0.0,0.0,0.0,0.0,0.0,0.0,0.0,0.0,0.0,0.0,0.0,0.0,0.0,0.0,0.0,0.0,-3.5092,-3.5039,-3.4908,-3.4908,-3.4908,-3.4908,-3.5039,-3.5129,-3.52,-3.5264,-3.5289,-3.5315,-3.5427,-3.5528,-3.5526,-3.4717,-3.343,-3.2,-3.2,-3.1493,-3.0808,-3.0799,-3.0799,-3.0804,0.0,0.0,0.0,0.0,0.0,0.0,0.0,0.0,0.0,0.0,0.0,0.0,0.0,0.0,0.0,0.0,0.0,0.0,0.0,0.0,0.0,0.0,0.0,0.0,0.0,0.0,-4.5764,-4.5342,-4.4988,-4.4657,0.0,0.0,0.0,-4.3679,0.0,0.0,0.0,-4.3014,-4.2957,-4.2938,-4.2938,-4.2938,-4.2957,0.0,0.0,0.0,0.0,0.0,0.0,0.0,0.0,0.0,0.0,0.0,0.0,-4.0112,-4.0137,-4.0196,-4.0272,-4.0289,0.0,0.0,0.0,0.0,0.0,0.0,0.0,0.0,0.0,0.0,0.0,0.0,0.0,0.0,0.0,0.0,0.0,0.0,0.0,0.0,0.0,0.0,0.0,0.0,0.0,0.0,0.0,0.0,0.0,0.0,0.0,0.0,-3.5092,-3.5039,-3.4908,-3.4908,-3.4908,-3.4908,-3.5039,-3.5092,-3.5129,-3.5212,-3.5258,-3.5277,-3.474,-3.4578,-3.4569,-3.3209,-3.2372,-3.1868,-3.1307,-3.0936,-3.0734,-3.0774,-3.0808,-3.0798,0.0,0.0,0.0,0.0,0.0,0.0,0.0,0.0,0.0,0.0,0.0,0.0,0.0,0.0,0.0,0.0,0.0,0.0,0.0,0.0,0.0,0.0,0.0,0.0,0.0,-4.6086,-4.591,0.0,0.0,0.0,0.0,0.0,0.0,-4.4279,0.0,-4.3799,0.0,0.0,-4.3495,-4.3461,-4.3426,-4.3391,-4.3391,0.0,0.0,0.0,0.0,0.0,0.0,0.0,0.0,0.0,0.0,0.0,0.0,-4.0099,-4.0177,-4.0234,-4.0307,0.0,0.0,0.0,0.0,0.0,0.0,0.0,0.0,0.0,0.0,0.0,0.0,0.0,0.0,0.0,0.0,0.0,0.0,0.0,0.0,0.0,0.0,0.0,0.0,0.0,0.0,0.0,0.0,0.0,0.0,0.0,0.0,0.0,-3.4751,-3.4527,-3.4415,-3.4074,-3.3903,-3.3903,-3.4049,-3.4103,-3.4122,-3.4527,-3.4569,-3.428,-3.3846,-3.3537,-3.323,-3.2299,-3.1712,-3.1387,-3.0899,-3.0703,-3.0703,-3.0769,-3.0808,-3.0802,0.0,0.0,0.0,0.0,0.0,0.0,0.0,0.0,0.0,0.0,0.0,0.0,0.0,0.0,0.0,0.0,0.0,0.0,0.0,0.0,0.0,0.0,0.0,0.0,0.0,0.0,0.0,0.0,0.0,0.0,0.0,0.0,-4.4943,-4.477,0.0,-4.4402,0.0,-4.4121,-4.3999,-4.3886,-4.3809,-4.3777,-4.3795,-4.3929,0.0,0.0,0.0,0.0,0.0,0.0,0.0,0.0,-4.2295,0.0,-4.0058,-4.0177,-4.0215,-4.0252,-4.0362,0.0,0.0,0.0,0.0,0.0,0.0,0.0,0.0,0.0,0.0,0.0,0.0,0.0,0.0,0.0,0.0,0.0,0.0,0.0,0.0,0.0,0.0,0.0,0.0,0.0,0.0,0.0,0.0,0.0,0.0,0.0,0.0,0.0,-3.4127,-3.3654,-3.3581,-3.2804,-3.2406,0.0,-3.2547,-3.2561,-3.2504,-3.3459,-3.3459,-3.2689,-3.2832,-3.2439,-3.1699,-3.1757,-3.1355,-3.068,-3.0698,-3.0697,-3.0703,-3.0769,-3.0808,-3.0806,0.0,0.0,0.0,0.0,0.0,0.0,0.0,0.0,0.0,0.0,0.0,0.0,0.0,0.0,0.0,0.0,0.0,0.0,0.0,0.0,0.0,0.0,0.0,0.0,0.0,0.0,0.0,0.0,0.0,0.0,0.0,0.0,0.0,-4.5161,0.0,-4.4868,-4.4751,-4.461,-4.4503,-4.4421,-4.4421,-4.4364,-4.4306,-4.4354,-4.4354,0.0,0.0,0.0,0.0,0.0,0.0,0.0,-4.1727,-4.0958,-4.0233,-4.027,-4.0307,-4.0379,0.0,-4.0502,0.0,0.0,0.0,0.0,0.0,0.0,0.0,0.0,0.0,0.0,0.0,0.0,0.0,0.0,0.0,0.0,0.0,0.0,0.0,0.0,0.0,0.0,0.0,0.0,0.0,0.0,0.0,0.0,0.0,0.0,0.0,-3.407,-3.3216,-3.2762,-3.2691,-3.2501,-3.2406,0.0,-3.2547,-3.2238,-3.1594,-3.2546,-3.2565,-3.1864,-3.1936,-3.1515,-3.079,-3.084,-3.077,-3.0637,-3.0683,-3.0698,-3.0703,-3.0784,-3.0789,-3.0794,0.0,0.0,0.0,0.0,0.0,0.0,0.0,0.0,0.0,0.0,0.0,0.0,0.0,0.0,0.0,0.0,0.0,0.0,0.0,0.0,0.0,0.0,0.0,0.0,0.0,0.0,0.0,0.0,0.0,0.0,0.0,0.0,0.0,-4.5526,0.0,-4.5244,-4.518,-4.5007,-4.4915,-4.4881,-4.4846,-4.484,-4.477,-4.4745,-4.4745,-4.4789,-4.477,0.0,0.0,0.0,0.0,0.0,0.0,0.0,-4.0358,-4.0427,-4.0479,-4.0495,0.0,0.0,0.0,0.0,0.0,0.0,0.0,0.0,0.0,0.0,0.0,0.0,0.0,0.0,0.0,0.0,0.0,0.0,0.0,0.0,0.0,0.0,0.0,0.0,0.0,0.0,0.0,0.0,0.0,0.0,0.0,-3.3648,-3.3194,-3.3178,-3.2326,-3.1855,-3.1838,-3.1421,-3.1212,-3.1246,-3.135,-3.1169,-3.078,-3.1278,-3.1298,-3.0983,-3.1046,-3.0868,-3.0509,-3.0579,-3.0606,-3.061,-3.0676,-3.0691,-3.0703,-3.0778,-3.0789,-3.0798,0.0,0.0,0.0,0.0,0.0,0.0,0.0,0.0,0.0,0.0,0.0,0.0,0.0,0.0,0.0,0.0,0.0,0.0,0.0,0.0,0.0,0.0,0.0,0.0,0.0,0.0,0.0,0.0,0.0,0.0,0.0,0.0,0.0,-4.5822,0.0,0.0,-4.5524,-4.5343,-4.5283,-4.5243,-4.5197,-4.5151,-4.5151,-4.5084,-4.5106,-4.5132,-4.4935,-4.4484,-4.3899,-4.3633,0.0,0.0,0.0,0.0,-4.0469,-4.0583,-4.0617,-4.0631,0.0,0.0,0.0,0.0,0.0,0.0,0.0,0.0,0.0,0.0,0.0,0.0,0.0,0.0,0.0,0.0,0.0,0.0,0.0,0.0,0.0,0.0,0.0,0.0,0.0,0.0,0.0,0.0,0.0,0.0,-3.3572,-3.274,-3.2269,-3.2269,-3.1438,-3.0985,-3.0985,-3.0248,-2.994,-3.0007,-3.0068,-3.0147,-3.0204,-3.0194,-3.0253,-3.0292,-3.0362,-3.0433,-3.0509,-3.0569,-3.0597,-3.061,-3.0668,-3.0691,-3.0703,-3.0759,-3.0789,-3.0798,0.0,0.0,0.0,0.0,0.0,0.0,0.0,0.0,0.0,0.0,0.0,0.0,0.0,0.0,0.0,0.0,0.0,0.0,-4.5873,0.0,0.0,-4.6003,-4.6026,0.0,0.0,0.0,0.0,0.0,0.0,0.0,0.0,0.0,0.0,-4.5968,0.0,0.0,0.0,-4.568,-4.5563,-4.5454,-4.5457,-4.54,-4.5361,-4.5361,-4.5361,-4.5265,-4.4557,-4.423,-4.3942,-4.2556,-4.1953,0.0,0.0,0.0,-4.0654,-4.0688,-4.07,-4.07,0.0,0.0,0.0,0.0,0.0,0.0,0.0,0.0,0.0,0.0,0.0,0.0,0.0,0.0,0.0,0.0,0.0,0.0,0.0,0.0,0.0,0.0,0.0,0.0,0.0,0.0,0.0,0.0,0.0,0.0,-3.2632,-3.1836,-3.1364,-3.1364,-3.053,-3.0059,-3.0059,-2.9945,-2.994,-3.0007,-3.0064,-3.0142,-3.0204,-3.0199,-3.0226,-3.0292,-3.0324,-3.0379,-3.0499,-3.0509,-3.055,-3.0602,-3.061,-3.0644,-3.0703,-3.0703,-3.074,-3.0798,0.0,0.0,0.0,0.0,0.0,0.0,0.0,0.0,0.0,0.0,0.0,0.0,0.0,0.0,0.0,-4.767,-4.7237,-4.6642,-4.5808,-4.5805,-4.586,-4.5899,-4.596,-4.6016,0.0,0.0,0.0,0.0,0.0,0.0,0.0,-4.6228,-4.6175,0.0,0.0,0.0,0.0,0.0,-4.5822,-4.5733,-4.5727,-4.568,0.0,0.0,-4.5288,-4.4842,-4.4495,-4.3759,-4.2849,-4.215,-4.1586,-4.1131,-4.081,0.0,0.0,0.0,0.0,0.0,0.0,0.0,0.0,0.0,0.0,0.0,0.0,0.0,0.0,0.0,0.0,0.0,0.0,0.0,0.0,0.0,0.0,0.0,0.0,0.0,0.0,0.0,0.0,0.0,0.0,0.0,0.0,0.0,0.0,-3.2615,-3.1781,-3.0928,-3.0473,-3.0473,-3.0097,-2.9888,-2.9888,-2.994,-2.9988,-3.0049,-3.0109,-3.0171,-3.0204,-3.0204,-3.0245,-3.0292,-3.0292,-3.0386,-3.0499,-3.0499,-3.054,-3.0602,-3.0602,-3.0637,-3.0703,-3.0703,-3.0424,-3.0076,0.0,0.0,0.0,0.0,0.0,0.0,0.0,0.0,0.0,0.0,0.0,0.0,0.0,0.0,0.0,0.0,-4.6799,-4.6378,-4.5742,-4.5761,-4.5771,-4.5771,-4.5887,-4.5949,-4.5953,0.0,0.0,0.0,0.0,0.0,-4.6261,-4.627,-4.6269,0.0,-4.6153,0.0,0.0,0.0,0.0,0.0,0.0,0.0,0.0,0.0,0.0,0.0,-4.4072,-4.3118,-4.202,-4.1807,-4.1296,-4.0765,-4.0839,-4.0859,0.0,0.0,0.0,0.0,0.0,0.0,0.0,0.0,0.0,0.0,0.0,0.0,0.0,0.0,0.0,0.0,0.0,0.0,0.0,0.0,0.0,0.0,0.0,0.0,0.0,0.0,0.0,0.0,0.0,0.0,0.0,0.0,0.0,-3.1726,-3.0911,-3.0248,-2.9907,-2.9888,-2.9888,-2.9888,-2.9888,-2.9972,-3.0053,-3.0109,-3.0171,-3.0204,-3.0204,-3.0204,-3.0245,-3.0292,-3.0292,-3.0386,-3.0499,-3.0499,-3.054,-3.0602,-3.0602,-3.0637,-3.0684,-3.0469,-3.002,-2.9471,0.0,0.0,0.0,0.0,0.0,0.0,0.0,0.0,0.0,0.0,0.0,0.0,0.0,-4.6379,-4.6143,-4.6846,-4.614,-4.5678,-4.5709,-4.5703,-4.5715,-4.5715,-4.5771,0.0,-4.5814,0.0,0.0,0.0,0.0,0.0,-4.6209,-4.6206,-4.6238,-4.6285,-4.6225,-4.6199,-4.6181,0.0,0.0,0.0,0.0,0.0,0.0,0.0,0.0,0.0,0.0,0.0,-4.2063,-4.1247,-4.0936,-4.0904,-4.096,-4.0984,0.0,0.0,0.0,0.0,0.0,0.0,0.0,0.0,0.0,0.0,0.0,0.0,0.0,0.0,0.0,0.0,0.0,0.0,0.0,0.0,0.0,0.0,0.0,0.0,0.0,0.0,0.0,0.0,0.0,0.0,0.0,0.0,0.0,-3.082,-3.0007,-2.9931,-2.9893,-2.9888,-2.9888,-2.9888,-2.9888,-3.0022,-3.0098,-3.0109,-3.0171,-3.0204,-3.0204,-3.0204,-3.0245,-3.0292,-3.0292,-3.0386,-3.0499,-3.0499,-3.054,-3.0602,-3.0602,-3.0637,-3.0606,-2.9839,-2.9537,-2.9393,0.0,0.0,0.0,0.0,0.0,0.0,0.0,0.0,0.0,0.0,0.0,0.0,0.0,-4.5893,-4.5806,-4.6044,-4.5741,-4.555,-4.5568,-4.5637,-4.5706,-4.5706,-4.5715,-4.5761,-4.581,-4.5847,0.0,0.0,0.0,-4.6075,-4.6135,-4.6183,-4.6201,-4.6234,-4.6265,-4.6267,-4.6267,-4.6241,0.0,0.0,0.0,0.0,0.0,0.0,0.0,0.0,0.0,0.0,0.0,-4.1069,-4.0967,-4.0987,-4.1039,0.0,0.0,0.0,0.0,0.0,0.0,0.0,0.0,0.0,0.0,0.0,0.0,0.0,0.0,0.0,0.0,0.0,0.0,0.0,0.0,0.0,0.0,0.0,0.0,0.0,0.0,0.0,0.0,0.0,0.0,0.0,0.0,0.0,0.0,0.0,-2.9863,-2.9878,-2.9912,-2.9893,-2.9907,-2.994,-3.0022,-3.0087,-3.0132,-3.0171,-3.0185,-3.0204,-3.0204,-3.0204,-3.0245,-3.0292,-3.0292,-3.0386,-3.0499,-3.0499,-3.054,-3.0543,-3.0028,-2.986,-2.9827,-2.8987,-2.8333,-2.7855,0.0,0.0,0.0,0.0,0.0,0.0,0.0,0.0,0.0,0.0,0.0,0.0,0.0,0.0,-4.5622,-4.555,-4.5495,-4.5476,-4.5476,-4.555,-4.5622,-4.564,-4.5654,-4.5703,-4.577,-4.5761,0.0,0.0,0.0,0.0,0.0,-4.6102,-4.6142,-4.6177,-4.6245,-4.628,0.0,0.0,0.0,-4.6225,0.0,0.0,-4.4904,0.0,0.0,0.0,0.0,0.0,0.0,0.0,0.0,0.0,0.0,0.0,0.0,0.0,0.0,0.0,0.0,0.0,0.0,0.0,0.0,0.0,0.0,0.0,0.0,0.0,0.0,0.0,0.0,0.0,0.0,0.0,0.0,0.0,0.0,0.0,0.0,0.0,0.0,0.0,0.0,0.0,0.0,0.0,0.0,0.0,-2.9809,-2.9806,-2.9859,-2.9895,-2.9891,-2.9956,-3.0102,-3.0102,-3.0132,-3.0204,-3.0204,-3.0204,-3.0204,-3.0204,-3.0245,-3.0273,-2.9986,-3.0117,-3.0479,-3.0171,-3.0115,-3.0125,-2.9292,-2.8994,-2.8952,-2.8097,-2.7441,-2.6958,0.0,0.0,0.0,0.0,0.0,0.0,0.0,0.0,0.0,0.0,0.0,0.0,0.0,0.0,0.0,-4.54,-4.54,-4.54,-4.54,-4.54,-4.5419,-4.5495,-4.5568,-4.5622,-4.5693,-4.5703,0.0,0.0,0.0,0.0,0.0,0.0,-4.6027,0.0,-4.6181,-4.6231,-4.628,0.0,-4.6307,-4.6307,0.0,-4.5733,-4.4867,0.0,0.0,0.0,-4.1404,-4.1091,0.0,0.0,0.0,0.0,0.0,0.0,0.0,0.0,0.0,0.0,0.0,0.0,0.0,0.0,0.0,0.0,0.0,0.0,0.0,0.0,0.0,0.0,0.0,0.0,0.0,0.0,0.0,0.0,0.0,0.0,0.0,0.0,0.0,0.0,0.0,0.0,0.0,0.0,0.0,-2.9699,-2.9699,-2.9717,-2.9753,-2.9895,-2.9891,-2.9956,-3.0102,-3.0102,-3.0132,-3.0204,-3.0204,-3.0204,-3.0204,-3.0166,-3.0207,-3.0216,-2.934,-2.9521,-3.0364,-2.9515,-2.9235,-2.9272,-2.8407,-2.81,-2.8057,-2.7191,-2.6899,-2.6844,0.0,0.0,0.0,0.0,0.0,0.0,0.0,0.0,0.0,0.0,0.0,0.0,0.0,0.0,0.0,-4.5399,-4.5399,-4.5399,-4.5399,-4.54,-4.5419,-4.5419,-4.5457,-4.5457,-4.5495,-4.5586,0.0,0.0,0.0,0.0,0.0,0.0,0.0,0.0,-4.6095,-4.6146,-4.6164,-4.6206,0.0,0.0,-4.5603,-4.4843,0.0,0.0,0.0,0.0,0.0,-4.1092,-4.1092,0.0,-4.1093,-4.0996,0.0,0.0,0.0,0.0,0.0,0.0,-3.9214,0.0,0.0,0.0,0.0,0.0,0.0,0.0,0.0,0.0,0.0,0.0,0.0,0.0,0.0,0.0,0.0,0.0,0.0,0.0,0.0,0.0,0.0,0.0,0.0,0.0,0.0,0.0,-2.9867,-2.9699,-2.9701,-2.9755,-2.9825,-2.9895,-2.9891,-2.9956,-3.0102,-3.0102,-3.0132,-3.0204,-3.0204,-3.0204,-3.0185,-2.9535,-2.9308,-2.9302,-2.849,-2.831,-2.8589,-2.8357,-2.8345,-2.8369,-2.7503,-2.7194,-2.7162,-2.6342,-2.6048,-2.6025,0.0,0.0,0.0,0.0,0.0,0.0,0.0,0.0,0.0,0.0,0.0,0.0,0.0,0.0,0.0,-4.5256,-4.5256,-4.5256,-4.5256,-4.5279,-4.5301,-4.5361,-4.5361,-4.5361,-4.54,-4.5476,0.0,0.0,0.0,0.0,0.0,0.0,0.0,0.0,0.0,0.0,0.0,0.0,0.0,0.0,-4.533,0.0,0.0,-4.2729,-4.1852,0.0,0.0,0.0,-4.1108,-4.1108,-4.0853,0.0,0.0,0.0,0.0,0.0,0.0,0.0,0.0,0.0,0.0,0.0,0.0,0.0,-4.0567,-4.0845,0.0,0.0,0.0,0.0,0.0,0.0,0.0,0.0,0.0,0.0,0.0,0.0,0.0,0.0,0.0,0.0,0.0,0.0,0.0,-2.9846,-2.9735,-2.97,-2.9701,-2.9755,-2.9825,-2.9861,-2.9891,-2.9956,-3.0102,-3.0102,-3.0132,-3.0204,-3.0204,-3.0013,-2.965,-2.9148,-2.8785,-2.8452,-2.7651,-2.7332,-2.7383,-2.7045,-2.7155,-2.7477,-2.6598,-2.6306,-2.6311,-2.5859,-2.5701,-2.5693,0.0,0.0,0.0,0.0,0.0,0.0,0.0,0.0,0.0,0.0,0.0,0.0,0.0,0.0,0.0,0.0,0.0,-4.508,-4.5103,-4.5103,0.0,-4.5275,-4.5275,-4.5319,-4.5361,-4.5381,0.0,0.0,0.0,0.0,0.0,0.0,0.0,0.0,0.0,0.0,0.0,0.0,0.0,-4.5961,-4.5177,-4.4372,0.0,0.0,-4.1768,0.0,-4.1104,-4.1104,-4.1085,-4.0987,-4.0317,0.0,0.0,0.0,0.0,0.0,-3.8194,0.0,0.0,0.0,0.0,0.0,0.0,0.0,-3.9647,-4.0248,-4.0578,0.0,0.0,0.0,0.0,0.0,0.0,0.0,0.0,0.0,0.0,0.0,0.0,0.0,0.0,0.0,0.0,-3.0456,-2.9891,-2.9825,-2.9735,-2.97,-2.9701,-2.9755,-2.9808,-2.9808,-2.9874,-2.9956,-3.0102,-3.0102,-3.0094,-3.0051,-3.0051,-2.9593,-2.8771,-2.8753,-2.8332,-2.762,-2.6811,-2.6497,-2.6495,-2.5785,-2.596,-2.6578,-2.581,-2.5554,-2.5615,-2.5683,-2.5701,-2.5693,-4.562,0.0,0.0,0.0,0.0,0.0,0.0,0.0,0.0,0.0,0.0,0.0,0.0,0.0,0.0,0.0,0.0,0.0,0.0,-4.5014,-4.5057,-4.5148,-4.5148,-4.5148,-4.5151,-4.5277,0.0,0.0,0.0,0.0,0.0,0.0,0.0,0.0,0.0,0.0,0.0,0.0,0.0,-4.4996,-4.4199,0.0,-4.3446,-4.193,-4.1247,-4.1111,-4.1111,-4.1061,-4.0914,0.0,-3.9018,-3.7681,0.0,0.0,0.0,0.0,0.0,0.0,0.0,0.0,0.0,0.0,0.0,0.0,-3.868,-3.8804,-3.8877,0.0,0.0,0.0,0.0,0.0,0.0,0.0,0.0,0.0,0.0,0.0,0.0,0.0,0.0,0.0,0.0,-3.02,-3.0,-2.9891,-2.977,-2.97,-2.9701,-2.9755,-2.9808,-2.9808,-2.9874,-2.9956,-3.0102,-3.0102,-2.9789,-2.914,-2.914,-2.8733,-2.7899,-2.728,-2.6895,-2.671,-2.5908,-2.5592,-2.5646,-2.5534,-2.5592,-2.5732,-2.5634,-2.559,-2.5615,-2.5675,-2.5707,-2.5693,-4.5438,0.0,0.0,0.0,0.0,0.0,0.0,0.0,0.0,0.0,0.0,0.0,0.0,0.0,0.0,0.0,0.0,0.0,0.0,0.0,-4.487,-4.4943,-4.4967,-4.5033,-4.5057,-4.5148,0.0,0.0,0.0,0.0,0.0,0.0,0.0,0.0,0.0,0.0,0.0,0.0,-4.5072,-4.4641,-4.386,0.0,-4.2812,-4.1546,-4.1059,-4.1059,-4.1059,-4.0753,-4.0154,-3.8882,-3.7863,0.0,0.0,-3.62,-3.5834,0.0,-3.5754,-3.5745,0.0,0.0,0.0,-3.6348,0.0,0.0,0.0,-3.7977,-3.819,-3.7778,0.0,0.0,0.0,0.0,0.0,0.0,0.0,0.0,0.0,0.0,0.0,0.0,0.0,0.0,0.0,-3.0202,-3.0075,-2.9905,-2.9823,-2.9754,-2.9756,-2.9808,-2.9842,-2.9842,-2.9891,-2.9956,-3.0102,-2.9669,-2.926,-2.8891,-2.8485,-2.788,-2.7101,-2.6684,-2.6277,-2.5878,-2.5505,-2.5397,-2.544,-2.5488,-2.5524,-2.5544,-2.5587,-2.562,-2.5648,-2.5681,-2.5693,-2.5698,-4.5192,0.0,0.0,0.0,0.0,0.0,0.0,0.0,0.0,0.0,0.0,0.0,0.0,0.0,0.0,0.0,0.0,0.0,0.0,0.0,0.0,0.0,-4.4796,-4.487,-4.4943,-4.5014,-4.5061,0.0,0.0,0.0,0.0,0.0,0.0,0.0,0.0,0.0,0.0,0.0,0.0,-4.4041,0.0,-4.285,-4.2185,-4.131,-4.0971,-4.0952,-4.0796,-4.0068,-3.8974,-3.7558,0.0,-3.6686,-3.5987,-3.5756,0.0,0.0,0.0,0.0,0.0,0.0,0.0,0.0,0.0,-3.6609,0.0,0.0,0.0,-3.6841,0.0,0.0,0.0,0.0,0.0,0.0,0.0,0.0,0.0,0.0,0.0,0.0,0.0,0.0,0.0,-3.0279,-3.0133,-2.9956,-2.9857,-2.9825,-2.9825,-2.9859,-2.9895,-2.9895,-2.9907,-2.9972,-3.0102,-2.925,-2.8779,-2.8657,-2.7842,-2.7044,-2.627,-2.6269,-2.5917,-2.5322,-2.5397,-2.544,-2.5492,-2.5505,-2.5544,-2.5607,-2.5599,-2.5649,-2.5703,-2.5704,-2.5696,-2.5703,-4.4895,-4.4962,0.0,0.0,0.0,0.0,0.0,0.0,0.0,0.0,0.0,0.0,0.0,0.0,0.0,0.0,0.0,0.0,-4.444,0.0,0.0,0.0,0.0,0.0,-4.4719,-4.4846,-4.4919,0.0,0.0,0.0,0.0,0.0,0.0,0.0,-4.5477,0.0,0.0,0.0,-4.3597,0.0,-4.2195,-4.2187,0.0,-4.1247,-4.0917,-4.082,-4.0043,-3.8704,-3.7288,0.0,-3.6463,-3.5745,0.0,-3.5629,0.0,0.0,0.0,0.0,0.0,0.0,0.0,0.0,-3.5495,0.0,0.0,0.0,-3.5695,-3.5681,0.0,0.0,0.0,0.0,0.0,0.0,0.0,0.0,0.0,0.0,0.0,0.0,0.0,0.0,0.0,0.0,-3.0161,-3.0068,-2.9956,-2.9891,-2.9895,-2.9895,-2.9895,-2.9895,-2.9959,-3.0022,-3.0102,-2.9294,-2.8534,-2.7835,-2.7012,-2.6205,-2.5435,-2.5447,-2.5418,-2.5398,-2.5459,-2.5484,-2.5492,-2.557,-2.5587,-2.5599,-2.56,-2.5639,-2.5703,-2.5704,-2.5698,-2.5707,-4.4519,-4.4659,0.0,0.0,0.0,0.0,0.0,0.0,0.0,0.0,0.0,0.0,0.0,0.0,0.0,0.0,0.0,-4.4147,0.0,0.0,0.0,0.0,0.0,0.0,-4.4578,-4.4685,-4.4745,-4.477,-4.487,0.0,0.0,0.0,0.0,0.0,-4.4804,0.0,-4.4115,0.0,0.0,0.0,0.0,0.0,0.0,-4.0905,-4.0483,-3.9979,-3.9054,-3.7959,-3.6853,0.0,-3.5879,0.0,0.0,0.0,0.0,0.0,0.0,0.0,0.0,0.0,0.0,0.0,0.0,0.0,0.0,0.0,-3.5296,0.0,0.0,0.0,0.0,0.0,0.0,0.0,0.0,0.0,0.0,0.0,0.0,0.0,0.0,0.0,0.0,0.0,0.0,0.0,0.0,-3.0019,-3.0026,-3.0026,-3.0026,-3.0026,-3.0038,-2.9859,-2.9408,-2.8616,-2.7797,-2.6993,-2.6197,-2.5636,-2.5293,-2.5341,-2.5388,-2.5451,-2.5495,-2.5515,-2.5557,-2.5589,-2.5624,-2.5658,-2.5663,-2.5679,-2.5701,-2.569,-2.5703,-2.5693,-4.3482,0.0,0.0,0.0,0.0,0.0,0.0,0.0,0.0,0.0,0.0,0.0,-4.3968,-4.3923,0.0,0.0,0.0,-4.3878,0.0,0.0,-4.3986,0.0,0.0,0.0,0.0,0.0,-4.4465,-4.432,0.0,0.0,0.0,0.0,0.0,0.0,0.0,-4.3519,-4.3273,0.0,0.0,-4.1255,-4.0761,-4.0408,-4.0211,-4.0287,-3.9805,-3.8974,-3.8048,-3.7193,-3.637,-3.5701,-3.5463,0.0,-3.5402,0.0,0.0,0.0,0.0,0.0,-3.5245,0.0,0.0,0.0,0.0,0.0,0.0,0.0,0.0,0.0,0.0,0.0,0.0,0.0,0.0,0.0,0.0,0.0,0.0,0.0,0.0,0.0,0.0,0.0,0.0,0.0,0.0,0.0,-3.0188,-3.0157,-3.0132,-3.0117,-3.0102,-3.0102,-3.0102,-2.9713,-2.8902,-2.8089,-2.7318,-2.6523,-2.5685,-2.5322,-2.5332,-2.5407,-2.5451,-2.5492,-2.5515,-2.5557,-2.5601,-2.5618,-2.5668,-2.5699,-2.5691,-2.5704,-2.5696,-2.5701,-2.5709,-2.5697,-4.149,-4.3025,0.0,0.0,0.0,0.0,0.0,0.0,0.0,0.0,0.0,0.0,0.0,0.0,0.0,0.0,0.0,-4.3548,-4.3631,0.0,-4.3697,0.0,0.0,-4.4048,0.0,0.0,0.0,0.0,0.0,0.0,0.0,0.0,0.0,0.0,0.0,-4.2153,-4.1492,-4.1495,-4.1055,-4.0345,-4.0398,-3.9898,-3.9147,0.0,-3.881,-3.7924,-3.7055,0.0,0.0,-3.5412,-3.5354,0.0,0.0,0.0,0.0,0.0,0.0,0.0,0.0,0.0,0.0,-3.4927,0.0,0.0,0.0,0.0,-3.4718,0.0,0.0,0.0,0.0,0.0,0.0,0.0,0.0,0.0,0.0,0.0,0.0,0.0,0.0,0.0,0.0,0.0,0.0,-3.0398,-3.0323,-3.0272,-3.0204,-3.0142,-3.0113,-3.0102,-3.0113,-2.9723,-2.8911,-2.8109,-2.7328,-2.6591,-2.5726,-2.5332,-2.5406,-2.5468,-2.5511,-2.5492,-2.557,-2.5601,-2.5607,-2.5678,-2.5699,-2.5703,-2.5696,-2.5707,-2.5707,-2.5707,-2.5694,-2.57,0.0,0.0,0.0,0.0,0.0,0.0,0.0,-4.3781,0.0,0.0,0.0,0.0,0.0,0.0,-4.3304,0.0,0.0,-4.3286,-4.3251,-4.3356,0.0,0.0,0.0,-4.3536,0.0,0.0,0.0,0.0,0.0,0.0,0.0,0.0,0.0,0.0,0.0,-4.1468,0.0,0.0,0.0,0.0,0.0,-3.9259,-3.9044,0.0,0.0,-3.6976,-3.6673,-3.601,0.0,-3.5223,-3.519,-3.5157,-3.5108,-3.5091,-3.5073,-3.5019,-3.4945,0.0,0.0,0.0,-3.4849,-3.479,0.0,0.0,0.0,0.0,0.0,0.0,0.0,0.0,0.0,0.0,0.0,0.0,0.0,0.0,0.0,0.0,0.0,0.0,0.0,0.0,0.0,0.0,0.0,-3.053,-3.0469,-3.039,0.0,-3.0273,-3.0234,-3.0226,-2.9672,-2.8996,-2.8185,-2.737,-2.657,-2.5736,-2.5495,-2.5404,-2.5468,-2.5499,-2.551,-2.557,-2.5589,-2.5624,-2.5678,-2.5691,-2.5694,-2.5696,-2.5705,-2.5693,-2.5699,-2.5697,-2.57,-2.5703,-3.9485,0.0,0.0,0.0,0.0,0.0,0.0,0.0,0.0,0.0,-4.3321,0.0,-4.316,0.0,-4.3031,0.0,-4.2956,-4.2994,-4.2974,-4.305,0.0,-4.3358,-4.3169,0.0,0.0,0.0,0.0,0.0,0.0,-4.1203,0.0,0.0,0.0,0.0,0.0,0.0,0.0,0.0,-3.9954,0.0,0.0,-3.8499,0.0,0.0,-3.7405,-3.6411,0.0,-3.5598,-3.5126,-3.5035,-3.5018,-3.5,-3.4926,-3.4946,-3.4908,-3.485,-3.4811,-3.4752,-3.4711,-3.4689,0.0,-3.4623,-3.4376,0.0,-3.4108,0.0,0.0,0.0,0.0,0.0,0.0,0.0,0.0,0.0,0.0,0.0,0.0,-3.0574,0.0,0.0,0.0,0.0,0.0,0.0,-3.0704,-3.0642,-3.0576,-3.052,0.0,0.0,-3.0359,-3.0349,-2.9493,-2.866,-2.7846,-2.7005,-2.6189,-2.536,-2.5421,-2.5453,-2.5503,-2.5524,-2.5557,-2.5599,-2.5629,-2.5654,-2.5703,-2.5694,-2.5693,-2.5707,-2.5694,-2.57,-2.5703,-2.5702,-2.5703,-2.57,0.0,0.0,0.0,0.0,-4.3011,0.0,0.0,0.0,-4.3214,0.0,-4.3123,-4.3012,-4.29,-4.2804,-4.2745,-4.2609,-4.257,0.0,-4.2783,-4.2783,0.0,0.0,-4.2359,-4.2026,-4.2142,0.0,0.0,0.0,0.0,0.0,0.0,0.0,0.0,0.0,-3.9477,0.0,-3.9599,-3.9735,-3.9762,-3.9671,-3.8885,-3.7618,-3.6196,-3.614,-3.6198,-3.6193,-3.5323,-3.5001,-3.4983,-3.4908,-3.4851,-3.4793,-3.4792,-3.4791,-3.4768,-3.4687,-3.4706,-3.4666,-3.4517,-3.4495,-3.4454,-3.4348,0.0,0.0,0.0,0.0,-3.1717,0.0,0.0,0.0,0.0,0.0,0.0,0.0,0.0,0.0,0.0,0.0,0.0,0.0,0.0,0.0,0.0,-3.0799,-3.0767,-3.0714,-3.0639,0.0,0.0,0.0,-3.0488,-3.0421,-2.9525,-2.867,-2.7913,-2.7007,-2.6195,-2.5492,-2.5495,-2.5505,-2.5505,-2.5576,-2.5604,-2.5615,-2.5671,-2.5707,-2.5697,-2.5701,-2.5709,-2.5691,-2.5702,-2.5703,-2.5703,-2.5703,-2.57,-2.5705,-3.8382,-3.9039,-3.9947,0.0,-4.1878,-4.2574,0.0,0.0,0.0,0.0,-4.2824,-4.2688,-4.2534,-4.2512,-4.2432,-4.2228,-4.2328,0.0,0.0,0.0,0.0,-4.1993,-4.1832,-4.1305,-4.0261,-4.0221,0.0,-3.9093,0.0,0.0,-3.9129,0.0,0.0,0.0,0.0,0.0,-3.9452,-3.9477,-3.9212,-3.8652,-3.7265,-3.6455,0.0,0.0,-3.5111,-3.5113,-3.4907,-3.485,-3.4849,-3.4769,-3.4749,-3.471,-3.4626,-3.4583,-3.4561,-3.4495,-3.4473,-3.4473,-3.4363,-3.434,-3.4167,-3.3478,-3.3115,-3.2818,0.0,0.0,0.0,0.0,0.0,0.0,0.0,0.0,0.0,0.0,0.0,0.0,0.0,0.0,0.0,-3.0528,0.0,0.0,-3.0798,-3.0798,-3.0784,-3.0778,-3.0716,0.0,0.0,0.0,0.0,-3.055,-2.9062,-2.8183,-2.798,-2.6528,-2.5681,-2.5498,-2.5551,-2.5562,-2.5576,-2.5586,-2.5624,-2.5683,-2.5697,-2.571,-2.5701,-2.5694,-2.57,-2.5703,-2.5703,-2.5697,-2.5705,-2.5693,-2.5707,-2.5693,-3.8219,0.0,0.0,-3.9962,0.0,0.0,-4.2868,0.0,0.0,-4.2691,-4.2552,0.0,-4.2269,-4.2246,-4.2163,-4.2055,-4.2139,0.0,0.0,0.0,0.0,-4.0917,-4.0596,-4.0113,-3.942,-3.9225,0.0,-3.8609,0.0,0.0,-3.8979,0.0,0.0,0.0,0.0,-3.9283,0.0,-3.8976,-3.8203,-3.7132,-3.6239,0.0,0.0,-3.4771,-3.4561,-3.4561,-3.4586,-3.4607,-3.4666,-3.4583,-3.4561,-3.4539,-3.445,-3.4409,-3.4386,-3.4293,-3.4269,-3.4245,-3.4197,-3.4173,-3.3963,-3.3074,-3.2588,-3.2107,-3.127,-3.0479,-2.9928,0.0,0.0,0.0,0.0,0.0,0.0,0.0,0.0,0.0,0.0,0.0,0.0,0.0,0.0,0.0,-3.0711,-3.0769,-3.0801,-3.0793,0.0,0.0,0.0,0.0,0.0,-3.0634,-2.8943,-2.8043,-2.8043,-2.6371,-2.5538,-2.5543,-2.5579,-2.563,-2.564,-2.5644,-2.5658,-2.5696,-2.5703,-2.5691,-2.5697,-2.5702,-2.5703,-2.5702,-2.5696,-2.5676,-2.5668,-2.5658,-2.5655,-2.5664,0.0,0.0,0.0,0.0,0.0,0.0,0.0,-4.2544,0.0,-4.2391,0.0,-4.2205,-4.2061,-4.2012,-4.1909,-4.1803,0.0,-4.1467,-4.0695,-4.0642,-4.037,-3.9843,-3.9165,-3.8885,-3.9082,-3.843,0.0,0.0,0.0,0.0,0.0,0.0,0.0,0.0,0.0,0.0,0.0,-3.807,-3.6939,0.0,-3.5562,-3.5077,-3.4404,-3.4381,-3.4363,-3.434,-3.4269,-3.434,-3.4473,-3.4404,-3.4363,-3.434,-3.4269,-3.4269,-3.4245,-3.4124,-3.4099,-3.4074,-3.3998,-3.3899,-3.3622,-3.2803,-3.1992,-3.1181,-3.0351,-2.9654,-2.9156,-2.9156,-2.9156,-2.9178,0.0,0.0,0.0,0.0,0.0,0.0,0.0,0.0,0.0,0.0,0.0,0.0,0.0,-3.0691,0.0,0.0,0.0,0.0,0.0,0.0,0.0,-3.071,-2.9026,0.0,-2.8113,0.0,-2.56,-2.5619,-2.5609,-2.5632,-2.5696,-2.5696,-2.5705,-2.5696,-2.57,-2.5702,-2.5703,-2.5701,-2.5697,-2.5694,-2.5693,-2.5644,-2.56,-2.56,-2.5595,-2.559,0.0,0.0,0.0,0.0,0.0,-3.9383,-4.0372,-4.1586,-4.231,-4.2187,-4.2097,-4.1987,-4.1866,-4.1823,-4.1551,-4.083,-4.076,0.0,0.0,0.0,0.0,-3.8791,-3.8803,-3.8524,-3.79,-3.8038,-3.8135,0.0,0.0,0.0,0.0,0.0,0.0,0.0,0.0,0.0,-3.6924,-3.624,0.0,-3.5473,-3.4862,-3.4493,-3.4316,-3.4245,-3.4197,-3.4148,-3.4074,-3.4173,-3.4316,-3.4197,-3.4148,-3.4148,-3.4074,-3.4049,-3.4049,-3.4023,-3.4023,-3.3998,-3.3868,-3.3364,-3.264,-3.1704,-3.0874,-3.007,-2.9265,-2.8967,-2.8858,-2.8858,-2.8905,-2.8975,-2.904,0.0,0.0,0.0,0.0,0.0,0.0,0.0,0.0,0.0,0.0,0.0,0.0,0.0,0.0,0.0,0.0,0.0,0.0,0.0,0.0,0.0,0.0,0.0,0.0,0.0,-2.5629,-2.5681,-2.5687,-2.5683,-2.5697,-2.5697,-2.57,-2.5703,-2.5703,-2.5702,-2.5701,-2.5707,-2.5668,-2.5625,-2.5628,-2.56,-2.5587,-2.5544,-2.5511,-2.5529,0.0,0.0,0.0,0.0,0.0,0.0,0.0,-4.0028,0.0,-4.0748,-4.0665,-4.0539,-4.0393,-4.0367,-4.0184,-3.9773,-3.9695,-3.9406,-3.866,-3.869,-3.8438,-3.7743,-3.7863,0.0,-3.7594,-3.7757,-3.7949,-3.8101,0.0,0.0,0.0,0.0,0.0,0.0,0.0,-3.662,0.0,0.0,0.0,-3.4673,-3.434,-3.4173,-3.4148,-3.4124,-3.4074,-3.4023,-3.3921,-3.3947,-3.4049,-3.4049,-3.4023,-3.3972,-3.3921,-3.3868,-3.386,-3.3788,-3.3788,-3.3688,-3.3213,-3.2783,-3.2198,-3.0914,-3.0287,-2.9794,-2.8992,-2.8785,-2.8785,-2.8785,-2.8834,-2.8881,-2.8929,-2.9062,0.0,0.0,0.0,0.0,0.0,0.0,0.0,0.0,0.0,0.0,0.0,0.0,0.0,0.0,0.0,0.0,0.0,0.0,0.0,0.0,0.0,0.0,0.0,0.0,0.0,-2.5693,-2.5694,-2.57,-2.5703,-2.5703,-2.5703,-2.5698,-2.5693,-2.5709,-2.5707,-2.5658,-2.5604,-2.5546,-2.5549,-2.5544,-2.5543,-2.5468,-2.5421,-2.5406,0.0,-3.7631,0.0,0.0,-3.7925,0.0,-3.802,-3.845,-3.8901,-3.9353,-3.9287,-3.9203,-3.9118,-3.905,-3.8955,-3.8781,-3.8763,-3.8432,-3.7607,-3.7655,-3.7498,-3.6965,-3.7048,-3.7223,-3.7521,-3.7594,-3.7667,0.0,0.0,0.0,0.0,0.0,0.0,0.0,0.0,0.0,0.0,0.0,-3.46,-3.3972,-3.3998,-3.3998,-3.3972,-3.3972,-3.3947,-3.3921,-3.3807,-3.3753,-3.378,-3.3868,-3.3868,-3.3834,-3.378,-3.3726,-3.3671,-3.3633,-3.3478,-3.3176,-3.2538,-3.2119,-3.151,-3.0228,-2.9792,-2.9501,-2.8857,-2.8712,-2.8712,-2.8712,-2.8737,-2.8761,-2.8815,-2.8881,0.0,0.0,0.0,0.0,0.0,0.0,0.0,0.0,0.0,0.0,0.0,0.0,0.0,0.0,0.0,0.0,0.0,0.0,0.0,0.0,0.0,-2.8476,-2.8299,0.0,-2.5879,0.0,-2.5703,-2.5702,-2.5696,-2.5696,-2.5689,-2.5679,-2.5684,-2.5675,-2.5644,-2.561,-2.5549,-2.5499,-2.5478,-2.5488,-2.5468,-2.5397,-2.5313,-2.5274,0.0,0.0,0.0,0.0,0.0,0.0,0.0,-3.7066,-3.7528,-3.8968,-3.9076,-3.9007,-3.9007,-3.9007,-3.8729,-3.7997,-3.7927,-3.7572,-3.6841,-3.6806,-3.6795,-3.6829,-3.693,-3.7105,-3.7334,-3.7521,-3.7345,0.0,0.0,0.0,0.0,0.0,0.0,0.0,0.0,0.0,0.0,-3.3997,-3.3994,-3.3921,-3.3972,-3.3972,-3.3895,-3.3842,-3.378,-3.3726,-3.3661,-3.3633,-3.3605,-3.3549,-3.3577,-3.3633,-3.3633,-3.3587,-3.3605,-3.3605,-3.3021,-3.2383,-3.2272,-3.1111,-2.9899,-2.9692,-2.9089,-2.8522,-2.845,-2.845,-2.845,-2.845,-2.8484,-2.8562,-2.8612,-2.8687,-2.8767,0.0,0.0,0.0,0.0,0.0,0.0,0.0,0.0,0.0,0.0,0.0,0.0,0.0,0.0,0.0,0.0,0.0,0.0,-3.0804,0.0,-2.9033,-2.8317,-2.7357,0.0,-2.5696,-2.5709,-2.5701,-2.5693,-2.5645,-2.5613,-2.5613,-2.56,-2.5571,-2.5512,-2.5506,-2.5498,-2.5492,-2.544,-2.5404,-2.5387,-2.5264,-2.5203,-2.5212,0.0,0.0,0.0,0.0,0.0,0.0,0.0,-3.6748,-3.6835,-3.7443,-3.7547,-3.7505,-3.7505,-3.7446,-3.7265,-3.6953,-3.6918,-3.6755,-3.6478,-3.6544,-3.6417,-3.6028,-3.6147,-3.6075,-3.5825,-3.5971,-3.5972,0.0,0.0,0.0,0.0,0.0,0.0,0.0,0.0,-3.4046,-3.3788,-3.3815,-3.3834,-3.378,-3.3807,-3.378,-3.3726,-3.3698,-3.3671,-3.3633,-3.352,-3.3481,-3.3452,-3.3316,-3.3345,-3.3481,-3.3422,-3.3375,-3.3298,-3.3298,-3.2737,-3.2004,-3.1506,-3.0522,-2.9503,-2.8973,-2.8587,-2.8327,-2.83,-2.8273,-2.8273,-2.8273,-2.8309,-2.8406,-2.8458,-2.8536,-2.8594,0.0,0.0,0.0,0.0,0.0,0.0,0.0,0.0,0.0,0.0,0.0,0.0,0.0,0.0,0.0,0.0,0.0,0.0,-3.0735,0.0,-2.9086,-2.8259,-2.7374,-2.6497,-2.5642,-2.5648,-2.5636,-2.5643,-2.5615,-2.5576,-2.5543,-2.5544,-2.5511,-2.5441,-2.5445,-2.5448,-2.5434,-2.5322,-2.5284,-2.5264,-2.5168,-2.5111,-2.5087,-3.7122,0.0,-3.6992,0.0,-3.6851,-3.6748,-3.6708,-3.6585,-3.6502,-3.6444,-3.6253,-3.6201,-3.6426,-3.6343,-3.6301,-3.6301,-3.6094,-3.5973,-3.5973,-3.5866,-3.5584,-3.5149,-3.5227,0.0,-3.478,-3.4906,-3.4977,-3.4952,-3.5068,0.0,0.0,0.0,0.0,0.0,-3.3671,-3.3698,-3.3753,-3.3753,-3.3726,-3.3671,-3.3671,-3.3643,-3.3605,-3.3549,-3.3549,-3.352,-3.3364,-3.3304,-3.3274,-3.3104,-3.3135,-3.3214,-3.3262,-3.3183,-3.3019,-3.2816,-3.2158,-3.1356,-3.0586,-2.9751,-2.898,-2.8362,-2.8219,-2.8191,-2.8164,-2.8136,-2.8136,-2.8136,-2.8191,-2.8219,-2.8318,-2.8353,-2.8432,-2.851,0.0,0.0,0.0,0.0,0.0,0.0,0.0,-2.9453,-2.9532,0.0,0.0,0.0,0.0,0.0,0.0,0.0,0.0,0.0,0.0,0.0,0.0,-2.754,-2.6665,-2.5576,-2.5565,-2.5568,-2.5576,-2.5538,-2.5492,-2.543,-2.5445,-2.5412,-2.5378,-2.536,-2.5332,-2.5322,-2.522,-2.5168,-2.5145,-2.5082,-2.5019,-2.4947,-3.6742,-3.6766,-3.6788,-3.6742,-3.6702,-3.6643,-3.6544,-3.6502,-3.6444,-3.6301,-3.5663,-3.5473,-3.6215,-3.6301,-3.6301,-3.6301,-3.5628,-3.5197,-3.5197,-3.4525,-3.4133,0.0,0.0,-3.4519,-3.4688,-3.4924,-3.4729,-3.4115,0.0,0.0,-3.3328,0.0,-3.3538,-3.3605,-3.3605,-3.3605,-3.3605,-3.3605,-3.3605,-3.3605,-3.3605,-3.3605,-3.3577,-3.3452,-3.3393,-3.3364,-3.3196,-3.3073,-3.2979,-3.2916,-3.287,-3.2838,-3.3024,-3.3073,-3.2867,-3.2145,-3.1201,-3.0261,-2.9532,-2.8674,-2.8014,-2.8014,-2.7996,-2.7996,-2.7996,-2.7996,-2.7996,-2.7996,-2.7996,-2.8025,-2.8099,-2.8154,-2.8237,-2.83,0.0,0.0,0.0,0.0,0.0,0.0,-2.9112,-2.9265,-2.9392,0.0,0.0,0.0,0.0,0.0,0.0,0.0,0.0,-3.0501,-3.0567,0.0,-2.802,-2.8,-2.7147,-2.5499,-2.549,-2.5495,-2.5495,-2.5421,-2.5359,-2.5302,-2.5303,-2.5293,-2.5311,-2.5222,-2.5201,-2.5206,-2.5137,-2.5069,-2.4994,-2.4985,-2.4917,-2.4794,-3.6597,-3.6289,-3.5924,-3.5884,-3.537,-3.4983,-3.4926,-3.4904,-3.4841,-3.48,-3.4594,-3.4525,-3.4766,-3.4783,-3.4783,0.0,-3.4576,-3.4438,0.0,-3.4214,-3.3891,-3.3471,-3.3512,-3.3397,-3.3001,-3.3213,-3.3209,-3.3095,0.0,0.0,0.0,-3.3352,-3.3422,-3.352,-3.352,-3.3549,-3.3605,-3.3605,-3.3577,-3.352,-3.3481,-3.3422,-3.3364,-3.3256,-3.3165,-3.3104,-3.3011,-3.2916,-3.2838,-3.2737,-3.2657,-3.2519,-3.2086,-3.1959,-3.1937,-3.1706,-3.0627,-2.9449,-2.9219,-2.8523,-2.7864,-2.7806,-2.7748,-2.7707,-2.7677,-2.7647,-2.7677,-2.7707,-2.7736,-2.7766,-2.7864,-2.7922,-2.7979,-2.8136,-2.8237,0.0,0.0,0.0,0.0,0.0,0.0,-2.8998,0.0,-2.9265,0.0,0.0,0.0,0.0,0.0,0.0,0.0,0.0,-3.0428,0.0,-2.7952,-2.7923,-2.7073,-2.5354,-2.5359,-2.536,-2.5361,-2.5283,-2.5252,-2.5222,-2.5182,-2.516,-2.5168,-2.5091,-2.5056,-2.5063,-2.4993,-2.4907,-2.4865,-2.4861,-2.4806,-2.4729,-3.5607,-3.5335,-3.4988,-3.4966,-3.4528,-3.4177,-3.4177,-3.4116,-3.4093,-3.4093,-3.3835,-3.3645,-3.3645,-3.3386,0.0,-3.4042,-3.3818,-3.3645,-3.3645,-3.3386,-3.3045,-3.2637,-3.2676,-3.2524,-3.2161,0.0,0.0,-3.2573,-3.2787,-3.2979,-3.3201,-3.3214,-3.3274,-3.3345,-3.3345,-3.3357,-3.3415,-3.3415,-3.3386,-3.3345,-3.3286,-3.3244,-3.3201,-3.3073,-3.2979,-3.2902,-3.2787,-3.2707,-3.2626,-3.2472,-3.221,-3.1826,-3.1352,-3.0858,-3.0434,-3.0497,-2.9761,-2.8886,-2.8587,-2.8117,-2.7689,-2.763,-2.76,-2.7557,-2.7496,-2.7496,-2.7496,-2.7557,-2.7557,-2.7587,-2.7689,-2.7719,-2.776,-2.794,-2.7996,-2.8081,-2.8219,0.0,0.0,0.0,0.0,0.0,0.0,-2.9044,0.0,0.0,0.0,0.0,0.0,0.0,0.0,-3.0188,-3.0247,0.0,-2.8245,-2.7961,-2.7108,-2.5714,-2.5376,-2.5209,-2.5195,-2.5141,-2.5118,-2.5087,-2.5043,-2.5012,-2.5012,-2.4955,-2.4915,-2.4915,-2.4837,-2.4798,-2.4772,-2.4726,-2.4682,-2.4617,-3.4116,-3.4103,0.0,0.0,-3.3955,0.0,-3.3921,-3.3921,-3.3921,-3.3921,-3.3283,-3.2817,-3.2817,-3.2214,-3.2369,-3.38,0.0,0.0,0.0,-3.2179,-3.18,-3.18,-3.1875,-3.1948,-3.2108,-3.2284,-3.2422,-3.2507,-3.2755,-3.2916,-3.2979,-3.3073,-3.3086,-3.3086,-3.3086,-3.3086,-3.3086,-3.3086,-3.3086,-3.3086,-3.3086,-3.3042,-3.2997,-3.2916,-3.2838,-3.2758,-3.2541,-3.2404,-3.2283,-3.2144,-3.1533,-3.0802,-3.075,-2.9776,-2.8679,-2.8757,-2.8722,-2.8436,-2.7687,-2.7496,-2.7496,-2.7496,-2.7465,-2.7465,-2.7465,-2.7465,-2.7465,-2.7465,-2.7465,-2.7465,-2.7496,-2.7526,-2.7617,-2.7672,-2.776,-2.7847,-2.8071,0.0,0.0,0.0,0.0,0.0,0.0,-2.8834,-2.8975,0.0,0.0,0.0,0.0,0.0,-2.9888,-2.9991,-3.0049,-2.966,-2.8789,-2.803,-2.7217,-2.627,-2.5463,-2.5051,-2.4999,-2.498,-2.4953,-2.4888,-2.4888,-2.4888,-2.4874,-2.4808,-2.4779,-2.4764,-2.4723,-2.4679,-2.4666,-2.4599,-2.4532,-2.4482,0.0,0.0,-3.3218,-3.3179,-3.2714,-3.2334,-3.2334,-3.2334,-3.2334,-3.2334,-3.2179,-3.2059,-3.2059,-3.1903,-3.1955,-3.23,-3.2162,-3.2059,-3.2059,-3.1903,-3.18,-3.18,-3.1875,-3.1948,-3.2108,-3.2196,-3.2336,-3.2507,-3.2606,-3.277,-3.2916,-3.2948,-3.2993,-3.3086,-3.3086,-3.3086,-3.3086,-3.3086,-3.3055,-3.3011,-3.2979,-3.2916,-3.2838,-3.2674,-3.2541,-3.2491,-3.2336,-3.183,-3.1237,-3.1202,-3.0595,-2.973,-2.916,-2.8645,-2.8319,-2.8647,-2.8293,-2.7739,-2.7548,-2.7386,-2.7276,-2.7276,-2.7198,-2.7137,-2.7137,-2.7137,-2.712,-2.7166,-2.7181,-2.723,-2.7407,-2.7438,-2.7452,-2.7557,-2.7659,-2.773,-2.7806,-2.794,0.0,0.0,-2.8237,-2.8345,-2.8484,-2.8612,-2.8737,0.0,0.0,0.0,0.0,-2.933,-2.9493,-2.977,-2.9787,-2.9389,-2.8591,-2.7793,-2.6654,-2.5177,-2.4965,-2.4861,-2.485,-2.4783,-2.4749,-2.4749,-2.4749,-2.4719,-2.467,-2.4642,-2.4629,-2.4543,-2.4493,-2.4461,-2.4465,-2.4393,-2.4321,-2.4266,-3.2955,-3.2697,-3.2403,-3.2403,-3.2076,-3.18,-3.18,-3.18,-3.18,-3.18,-3.18,-3.18,-3.18,-3.18,-3.18,-3.18,-3.18,-3.18,-3.18,-3.18,-3.18,-3.18,-3.1819,-3.1912,-3.202,-3.202,-3.2179,-3.2439,-3.2523,-3.2623,-3.277,-3.277,-3.2802,-3.2848,-3.2848,-3.2848,-3.2848,-3.2848,-3.2834,-3.2802,-3.277,-3.269,-3.2592,-3.2491,-3.2371,-3.2197,-3.1725,-3.1255,-3.0768,-3.037,-2.961,-2.8785,-2.839,-2.7963,-2.7638,-2.7853,-2.7624,-2.7279,-2.7279,-2.7184,-2.712,-2.712,-2.7055,-2.7007,-2.7007,-2.7007,-2.7007,-2.7055,-2.7055,-2.7087,-2.7233,-2.7247,-2.7296,-2.7421,-2.7526,-2.7569,-2.76,-2.7748,0.0,-2.7893,-2.8071,-2.8182,-2.8264,-2.838,-2.851,-2.8612,0.0,0.0,-2.8998,-2.9021,-2.9163,-2.9513,-2.9551,-2.9345,-2.8914,-2.7749,-2.651,-2.5201,-2.4829,-2.4645,-2.4629,-2.4578,-2.4559,-2.4559,-2.4564,-2.4547,-2.4495,-2.4426,-2.4392,-2.4356,-2.4321,-2.4321,-2.4303,-2.4209,-2.4153,-2.4096,-3.18,-3.18,-3.18,-3.18,-3.18,-3.18,-3.18,-3.18,-3.18,-3.18,-3.18,-3.18,-3.18,-3.18,-3.18,-3.18,-3.18,-3.18,-3.18,-3.18,-3.18,-3.18,-3.18,-3.1819,-3.1894,-3.193,-3.2055,-3.2354,-3.2439,-3.2489,-3.2573,-3.2573,-3.2606,-3.2606,-3.2606,-3.2606,-3.2606,-3.2606,-3.2606,-3.2573,-3.2573,-3.2489,-3.2336,-3.2231,-3.2039,-3.1776,-3.0889,-3.0455,-3.0195,-2.9454,-2.8631,-2.7913,-2.7913,-2.7486,-2.6942,-2.6942,-2.6942,-2.6942,-2.6975,-2.6975,-2.6992,-2.6942,-2.6942,-2.6942,-2.6942,-2.6942,-2.6975,-2.6975,-2.6975,-2.7007,-2.707,-2.707,-2.7135,-2.7345,-2.7376,-2.739,-2.7465,0.0,-2.7672,-2.7672,-2.7893,-2.8042,-2.8042,-2.8191,-2.83,-2.8353,-2.8432,-2.8543,0.0,-2.8737,-2.8887,-2.9188,-2.9291,-2.9295,-2.9165,-2.768,-2.6488,-2.5616,-2.4834,-2.4426,-2.4373,-2.4373,-2.4373,-2.4355,-2.4339,-2.4339,-2.4321,-2.4192,-2.4154,-2.4135,-2.4133,-2.4151,-2.4132,-2.3996,-2.3955,-2.3935,-3.18,-3.18,-3.18,-3.18,-3.18,-3.18,-3.18,-3.18,-3.18,-3.18,-3.18,-3.18,-3.18,-3.18,-3.18,-3.18,-3.18,-3.18,-3.18,-3.18,-3.18,-3.18,-3.18,-3.1819,-3.1894,-3.202,-3.2108,-3.2214,-3.2249,-3.2318,-3.2523,-3.2523,-3.2557,-3.2606,-3.2606,-3.2606,-3.2606,-3.2606,-3.2523,-3.2422,-3.2422,-3.2301,-3.2091,-3.1324,-3.0976,-3.0783,-2.9937,-2.9145,-2.8476,-2.8357,-2.7759,-2.7096,-2.7096,-2.6927,-2.6742,-2.6674,-2.664,-2.6708,-2.6942,-2.6959,-2.6893,-2.6775,-2.6742,-2.6742,-2.6742,-2.6742,-2.6775,-2.6876,-2.6926,-2.6959,-2.7007,-2.7007,-2.7023,-2.7135,-2.7198,-2.7261,-2.7407,0.0,-2.7509,-2.7509,-2.7659,-2.776,-2.776,-2.7996,-2.8154,-2.8154,-2.8219,-2.8327,-2.8458,-2.8458,-2.8536,-2.8694,-2.8952,-2.8732,-2.8051,-2.7135,-2.6234,-2.5349,-2.4596,-2.4247,-2.4228,-2.4228,-2.419,-2.4152,-2.4152,-2.4075,-2.3978,-2.3958,-2.3899,-2.3858,-2.3858,-2.3858,-2.3855,-2.385,-2.3786,-2.3743,-3.18,-3.18,-3.18,-3.18,-3.18,-3.18,-3.18,-3.18,-3.18,-3.18,-3.18,-3.18,-3.18,-3.18,-3.18,-3.18,-3.18,-3.18,-3.18,-3.18,-3.18,-3.18,-3.18,-3.1819,-3.1856,-3.1948,-3.202,-3.202,-3.2108,-3.2214,-3.2318,-3.2318,-3.2387,-3.2507,-3.2507,-3.2456,-3.237,-3.237,-3.2073,-3.1585,-3.1585,-3.1289,-3.0751,-3.0266,-3.0076,-2.9885,-2.9008,-2.8408,-2.7981,-2.7589,-2.7131,-2.6759,-2.6759,-2.6674,-2.6606,-2.6554,-2.6554,-2.6589,-2.6742,-2.6742,-2.6742,-2.6708,-2.6691,-2.6691,-2.6691,-2.6691,-2.6742,-2.6792,-2.6792,-2.6825,-2.6926,-2.6959,-2.6975,-2.7023,-2.7087,0.0,0.0,-2.7279,-2.7355,-2.7355,-2.7478,-2.76,-2.76,-2.7736,-2.7824,-2.7824,-2.7922,-2.8035,-2.8164,-2.8237,-2.8273,-2.8362,-2.8637,-2.8621,-2.8215,-2.7437,-2.6617,-2.5776,-2.4993,-2.4413,-2.3996,-2.3955,-2.3917,-2.3876,-2.3852,-2.3789,-2.3747,-2.3703,-2.366,-2.3638,-2.3638,-2.3638,-2.3638,-2.3589,-2.3544,-2.3476,-3.18,-3.18,-3.18,-3.18,-3.18,-3.18,-3.18,-3.18,-3.18,-3.18,-3.18,-3.18,-3.18,-3.18,-3.18,-3.18,-3.1627,-3.1541,-3.1541,-3.1369,-3.142,-3.1783,-3.18,-3.18,-3.18,-3.1839,-3.1858,-3.1894,-3.1984,-3.2108,-3.2179,-3.2179,-3.2232,-3.2301,-3.2126,-3.1987,-3.19,-3.1708,-3.1254,-3.0628,-3.0628,-3.023,-2.9608,-2.9317,-2.9145,-2.8973,-2.8118,-2.7794,-2.7589,-2.7046,-2.6725,-2.6589,-2.6589,-2.6554,-2.6485,-2.645,-2.645,-2.645,-2.6554,-2.6589,-2.6572,-2.664,-2.6674,-2.6674,-2.6674,-2.6691,-2.6691,-2.6691,-2.6691,-2.6742,-2.6842,-2.6842,-2.6876,-2.6942,0.0,0.0,0.0,-2.7087,-2.7166,-2.7166,-2.7293,-2.7404,-2.7404,-2.7465,-2.7509,-2.7557,-2.7659,-2.7777,-2.7882,-2.7957,-2.8025,-2.8091,-2.8362,-2.851,-2.851,-2.7716,-2.7013,-2.6381,-2.5384,-2.4572,-2.3959,-2.3718,-2.3624,-2.358,-2.3549,-2.3504,-2.3481,-2.343,-2.3424,-2.3424,-2.3424,-2.3424,-2.3383,-2.3336,-2.3289,-2.3193,-3.18,-3.18,-3.18,-3.18,-3.18,-3.18,-3.18,-3.18,-3.18,-3.18,-3.18,-3.18,-3.18,-3.18,-3.18,-3.18,-3.1179,-3.0765,-3.0765,-3.0075,-3.0317,-3.1731,-3.18,-3.18,-3.18,-3.18,-3.1856,-3.1894,-3.1894,-3.1984,-3.2108,-3.2108,-3.2108,-3.2091,-3.1342,-3.1011,-3.0958,-3.0262,-2.9915,-2.978,-2.978,-2.9644,-2.9334,-2.8647,-2.8271,-2.8015,-2.7266,-2.691,-2.6776,-2.6657,-2.6606,-2.6589,-2.652,-2.6485,-2.6485,-2.6347,-2.6258,-2.6239,-2.645,-2.6485,-2.652,-2.652,-2.6554,-2.6606,-2.6606,-2.6657,-2.6691,-2.6691,-2.6691,-2.6691,-2.6691,-2.6691,-2.6742,-2.6893,0.0,0.0,-2.6975,-2.7007,-2.7007,-2.7007,-2.7087,-2.7135,-2.7135,-2.7181,-2.7293,-2.7404,-2.7434,-2.7496,-2.7617,-2.7647,-2.7659,-2.773,-2.8063,-2.8228,-2.8228,-2.7433,-2.6996,-2.6925,-2.5372,-2.4563,-2.4426,-2.375,-2.336,-2.3241,-2.3241,-2.3175,-2.3144,-2.3126,-2.3144,-2.3144,-2.3144,-2.3144,-2.3144,-2.3102,-2.3045,-2.2944,-3.18,-3.18,-3.18,-3.18,-3.18,-3.18,-3.18,-3.18,-3.18,-3.18,-3.18,-3.18,-3.18,-3.1386,-3.111,-3.111,-3.0403,-2.9955,-2.9955,-2.9679,-2.9765,-3.0351,-3.0368,-3.0368,-3.0368,-3.0368,-3.0368,-3.0421,-3.0421,-3.0474,-3.0595,-3.0595,-3.0629,-3.0662,-3.0366,-3.0193,-3.0126,-2.9848,-2.9415,-2.89,-2.8834,-2.8507,-2.7926,-2.757,-2.7368,-2.7267,-2.6894,-2.6725,-2.6623,-2.6606,-2.6537,-2.6417,-2.6345,-2.6274,-2.617,-2.6099,-2.6026,-2.6043,-2.6115,-2.6258,-2.6399,-2.6485,-2.652,-2.6554,-2.6554,-2.6572,-2.6572,-2.6572,-2.6572,-2.6572,-2.6572,-2.6572,-2.6606,-2.6657,0.0,-2.6657,-2.6691,-2.6725,-2.6742,-2.6742,-2.6876,-2.6975,-2.6975,-2.7023,-2.7087,-2.7169,-2.7184,-2.723,-2.7293,-2.7324,-2.7369,-2.74,-2.7504,-2.7672,-2.7876,-2.7593,-2.7204,-2.6735,-2.6055,-2.5191,-2.4233,-2.3893,-2.3431,-2.2944,-2.285,-2.2816,-2.279,-2.2738,-2.2738,-2.2738,-2.2764,-2.279,-2.279,-2.279,-2.2738,-2.2632,-3.18,-3.18,-3.18,-3.18,-3.18,-3.18,-3.18,-3.18,-3.18,-3.18,-3.18,-3.1714,-3.1472,-3.0989,-3.0593,-3.0351,-2.961,-2.9161,-2.9161,-2.8937,-2.9023,-2.9489,-2.9506,-2.9506,-2.9506,-2.9506,-2.9506,-2.9506,-2.9506,-2.9558,-2.9626,-2.9626,-2.9659,-2.9692,-2.9449,-2.9329,-2.9262,-2.902,-2.8589,-2.7991,-2.7925,-2.755,-2.7023,-2.6942,-2.6859,-2.6775,-2.6691,-2.6623,-2.6554,-2.6537,-2.6382,-2.6241,-2.6151,-2.6079,-2.5954,-2.5917,-2.5897,-2.5897,-2.5897,-2.6026,-2.6206,-2.6329,-2.6399,-2.6434,-2.6434,-2.6485,-2.6485,-2.6485,-2.6485,-2.6485,-2.6434,-2.6434,-2.6434,-2.6415,-2.6415,-2.6415,-2.6415,-2.6468,-2.6503,-2.6503,-2.664,-2.6759,-2.6759,-2.6826,-2.6842,-2.6876,-2.6925,-2.694,-2.6956,-2.7021,-2.7053,-2.7053,-2.7053,-2.7132,-2.7352,-2.7444,-2.726,-2.6742,-2.6375,-2.564,-2.459,-2.404,-2.3457,-2.2914,-2.2566,-2.2426,-2.2398,-2.2371,-2.2343,-2.2343,-2.2398,-2.2426,-2.2426,-2.2426,-2.2371,-2.2304,-3.18,-3.18,-3.18,-3.18,-3.18,-3.18,-3.18,-3.18,-3.18,-3.18,-3.1783,-3.1507,-3.0765,-3.0679,-3.0351,-2.9558,-2.8816,-2.8385,-2.8385,-2.7713,-2.7954,-2.942,-2.9489,-2.9489,-2.9489,-2.9489,-2.9489,-2.9489,-2.9489,-2.9489,-2.9489,-2.9489,-2.9489,-2.9455,-2.8713,-2.8385,-2.8334,-2.7609,-2.7233,-2.7103,-2.7103,-2.7023,-2.6893,-2.6893,-2.6775,-2.6606,-2.6606,-2.6554,-2.6485,-2.6347,-2.6241,-2.6168,-2.6026,-2.5954,-2.5897,-2.5897,-2.5897,-2.5897,-2.5897,-2.5897,-2.5917,-2.599,-2.6154,-2.6295,-2.6295,-2.6399,-2.6502,-2.6502,-2.6502,-2.6434,-2.633,-2.6295,-2.626,-2.6206,-2.6206,-2.6206,-2.6206,-2.626,-2.6295,-2.6295,-2.6399,-2.6502,-2.6502,-2.6485,-2.652,-2.6572,-2.6606,-2.664,-2.6691,-2.6691,-2.6691,-2.6691,-2.6691,-2.6657,-2.6607,-2.694,-2.7103,-2.7085,-2.6204,-2.5751,-2.5654,-2.419,-2.3405,-2.3143,-2.2433,-2.2084,-2.1998,-2.1998,-2.1982,-2.1982,-2.1998,-2.1998,-2.1998,-2.1998,-2.194,-2.1899,-3.18,-3.18,-3.18,-3.18,-3.18,-3.18,-3.18,-3.18,-3.18,-3.18,-3.1334,-3.0938,-3.0713,-2.973,-2.8989,-2.8747,-2.804,-2.7627,-2.7627,-2.742,-2.7489,-2.7937,-2.7954,-2.7954,-2.7954,-2.7954,-2.7954,-2.7954,-2.7954,-2.7954,-2.7954,-2.7954,-2.7954,-2.7937,-2.773,-2.7577,-2.7461,-2.7238,-2.712,-2.704,-2.6975,-2.6859,-2.6742,-2.6708,-2.6623,-2.652,-2.652,-2.6415,-2.6274,-2.6239,-2.6115,-2.597,-2.5787,-2.5621,-2.5546,-2.547,-2.5486,-2.547,-2.5546,-2.5637,-2.5712,-2.5881,-2.5954,-2.6026,-2.6026,-2.6026,-2.6079,-2.6079,-2.6079,-2.6079,-2.6026,-2.6026,-2.6026,-2.599,-2.599,-2.599,-2.599,-2.599,-2.6026,-2.6026,-2.6099,-2.6134,-2.6134,-2.6241,-2.6277,-2.6312,-2.6312,-2.6347,-2.633,-2.633,-2.633,-2.633,-2.626,-2.6189,-2.6189,-2.6572,-2.6691,-2.6624,-2.6303,-2.5866,-2.533,-2.4746,-2.4166,-2.3571,-2.2732,-2.2356,-2.2324,-2.1753,-2.1509,-2.1509,-2.157,-2.1584,-2.1584,-2.1584,-2.157,-2.1524,-3.18,-3.18,-3.18,-3.18,-3.18,-3.18,-3.18,-3.1541,-3.1351,-3.1351,-3.0696,-3.011,-2.9817,-2.8954,-2.8282,-2.7989,-2.7558,-2.7299,-2.7299,-2.7299,-2.7299,-2.7299,-2.7299,-2.7299,-2.7299,-2.7299,-2.7299,-2.7299,-2.7299,-2.7299,-2.7299,-2.7299,-2.7282,-2.7233,-2.7233,-2.7152,-2.7055,-2.7055,-2.7023,-2.6942,-2.6876,-2.6759,-2.6657,-2.6572,-2.6503,-2.6434,-2.638,-2.6274,-2.6132,-2.6096,-2.5934,-2.5749,-2.5524,-2.5448,-2.5355,-2.5333,-2.5294,-2.5333,-2.5355,-2.541,-2.5486,-2.5637,-2.5787,-2.5897,-2.5897,-2.5897,-2.5881,-2.5844,-2.5828,-2.5807,-2.5733,-2.5696,-2.5696,-2.5675,-2.5659,-2.5659,-2.5659,-2.5696,-2.5696,-2.5696,-2.5791,-2.5828,-2.5828,-2.5917,-2.5954,-2.5954,-2.5954,-2.5937,-2.5937,-2.5937,-2.5937,-2.5937,-2.5828,-2.5754,-2.5717,-2.5921,-2.6049,-2.612,-2.6066,-2.5779,-2.528,-2.4844,-2.4362,-2.3837,-2.3022,-2.2647,-2.2581,-2.208,-2.1887,-2.1855,-2.1632,-2.1553,-2.152,-2.1263,-2.1166,-2.1166,-3.1783,-3.18,-3.18,-3.18,-3.1748,-3.1696,-3.1696,-3.1058,-3.0575,-3.0575,-2.9903,-2.9161,-2.8472,-2.8334,-2.8023,-2.7351,-2.7299,-2.7299,-2.7299,-2.7299,-2.7299,-2.7299,-2.7299,-2.7299,-2.7299,-2.7299,-2.7299,-2.7299,-2.7299,-2.7299,-2.7299,-2.7282,-2.7233,-2.7103,-2.7103,-2.7055,-2.6975,-2.6975,-2.6942,-2.6859,-2.6742,-2.6607,-2.6554,-2.6485,-2.6399,-2.6277,-2.6203,-2.6079,-2.5937,-2.5881,-2.5749,-2.554,-2.5333,-2.5294,-2.5294,-2.5294,-2.5256,-2.5294,-2.5294,-2.5294,-2.5294,-2.5294,-2.56,-2.586,-2.586,-2.586,-2.5807,-2.5701,-2.5663,-2.5589,-2.5416,-2.5378,-2.5355,-2.5278,-2.5294,-2.5294,-2.5294,-2.5317,-2.5378,-2.5378,-2.5454,-2.553,-2.553,-2.553,-2.5546,-2.554,-2.5546,-2.553,-2.553,-2.553,-2.553,-2.553,-2.5416,-2.5317,-2.5256,-2.5107,-2.5246,-2.5626,-2.5567,-2.5492,-2.5323,-2.4628,-2.4212,-2.3977,-2.328,-2.2907,-2.2849,-2.2771,-2.2755,-2.2692,-2.2063,-2.1846,-2.1768,-2.1138,-2.087,-2.0807,-3.1679,-3.18,-3.18,-3.18,-3.1317,-3.0938,-3.0938,-3.0265,-2.9765,-2.9765,-2.911,-2.8575,-2.842,-2.7885,-2.7471,-2.7299,-2.7299,-2.7299,-2.7299,-2.7299,-2.7299,-2.7299,-2.7299,-2.7299,-2.7299,-2.7299,-2.7299,-2.7299,-2.7299,-2.7299,-2.7299,-2.7184,-2.7135,-2.7103,-2.7055,-2.6975,-2.6909,-2.6825,-2.6725,-2.6657,-2.6589,-2.645,-2.6274,-2.6274,-2.6151,-2.599,-2.597,-2.5881,-2.5738,-2.5567,-2.5432,-2.5333,-2.5201,-2.5146,-2.5146,-2.5084,-2.5045,-2.5084,-2.5107,-2.5146,-2.5146,-2.5294,-2.5371,-2.5448,-2.5448,-2.5448,-2.5432,-2.5394,-2.5394,-2.5355,-2.5317,-2.5333,-2.5278,-2.5146,-2.5146,-2.5107,-2.5084,-2.5084,-2.5084,-2.5084,-2.5123,-2.5123,-2.5123,-2.5123,-2.5123,-2.5139,-2.5123,-2.5123,-2.5123,-2.5123,-2.5123,-2.5123,-2.491,-2.4751,-2.4751,-2.4589,-2.471,-2.5146,-2.5162,-2.5068,-2.4934,-2.4673,-2.4491,-2.4356,-2.3561,-2.3188,-2.3157,-2.2578,-2.2308,-2.2331,-2.2192,-2.213,-2.2115,-2.196,-2.1538,-2.0962,-3.0627,-3.0696,-3.0696,-3.0696,-3.0386,-3.0127,-3.0127,-2.9472,-2.8989,-2.8989,-2.8334,-2.7868,-2.7868,-2.7523,-2.7299,-2.7299,-2.7299,-2.7299,-2.7299,-2.7299,-2.7299,-2.7299,-2.7299,-2.7299,-2.7299,-2.7233,-2.7233,-2.7299,-2.7233,-2.7201,-2.7201,-2.7087,-2.7023,-2.699,-2.6892,-2.6825,-2.6759,-2.6674,-2.6555,-2.6452,-2.638,-2.6274,-2.6115,-2.6059,-2.597,-2.5897,-2.5787,-2.5659,-2.5492,-2.5301,-2.5224,-2.5201,-2.5068,-2.5029,-2.5045,-2.5005,-2.4926,-2.4886,-2.4966,-2.491,-2.4871,-2.4966,-2.4966,-2.5045,-2.5256,-2.524,-2.5201,-2.5162,-2.51,-2.5045,-2.4966,-2.4966,-2.495,-2.4855,-2.4855,-2.4871,-2.4791,-2.4806,-2.4806,-2.4782,-2.4766,-2.4726,-2.467,-2.4686,-2.4686,-2.4686,-2.4686,-2.4686,-2.4686,-2.4686,-2.4686,-2.4686,-2.4467,-2.4343,-2.4302,-2.4135,-2.4162,-2.4328,-2.4549,-2.4589,-2.4426,-2.4343,-2.4219,-2.4036,-2.3629,-2.3436,-2.3405,-2.3016,-2.2864,-2.2834,-2.2515,-2.2339,-2.2269,-2.1952,-2.1527,-2.109,-2.9489,-2.9506,-2.9506,-2.9506,-2.9403,-2.9317,-2.9317,-2.8696,-2.8213,-2.8213,-2.7678,-2.7299,-2.7299,-2.7299,-2.7299,-2.7299,-2.7299,-2.7299,-2.7299,-2.7299,-2.7299,-2.7299,-2.7299,-2.7282,-2.7282,-2.7152,-2.7152,-2.7282,-2.7152,-2.707,-2.707,-2.699,-2.6909,-2.6842,-2.6725,-2.6623,-2.6589,-2.6485,-2.6364,-2.6277,-2.6187,-2.6079,-2.5937,-2.5881,-2.5807,-2.577,-2.56,-2.541,-2.524,-2.5146,-2.5107,-2.5068,-2.5005,-2.4982,-2.4966,-2.4926,-2.4846,-2.4782,-2.4782,-2.4686,-2.4589,-2.4589,-2.4589,-2.471,-2.5084,-2.5068,-2.4989,-2.4966,-2.4846,-2.4726,-2.463,-2.4589,-2.4589,-2.4549,-2.4549,-2.4549,-2.4508,-2.4508,-2.4482,-2.4416,-2.44,-2.4317,-2.4219,-2.4177,-2.4177,-2.4177,-2.4177,-2.4177,-2.4177,-2.4177,-2.4177,-2.4177,-2.4036,-2.3967,-2.3897,-2.3754,-2.361,-2.3508,-2.3909,-2.4009,-2.3897,-2.3897,-2.3739,-2.3465,-2.3465,-2.3465,-2.3465,-2.3465,-2.3465,-2.342,-2.2869,-2.2562,-2.2346,-2.1657,-2.1339,-2.1201,-2.9368,-2.9506,-2.9506,-2.9506,-2.8972,-2.8558,-2.8558,-2.792,-2.7437,-2.7437,-2.7351,-2.7299,-2.7299,-2.7299,-2.7299,-2.7299,-2.7299,-2.7299,-2.7299,-2.7299,-2.7299,-2.7299,-2.7299,-2.725,-2.7135,-2.7103,-2.7103,-2.7135,-2.7055,-2.7007,-2.7007,-2.6808,-2.6742,-2.6708,-2.6606,-2.652,-2.6485,-2.631,-2.6239,-2.6203,-2.6007,-2.5881,-2.5738,-2.5675,-2.5562,-2.547,-2.5371,-2.524,-2.5107,-2.5107,-2.5068,-2.5005,-2.4862,-2.4822,-2.4806,-2.4686,-2.463,-2.463,-2.463,-2.4589,-2.4589,-2.4589,-2.4589,-2.463,-2.467,-2.467,-2.467,-2.467,-2.463,-2.463,-2.4589,-2.4589,-2.4549,-2.4385,-2.4343,-2.4261,-2.4109,-2.4067,-2.4067,-2.4067,-2.3967,-2.3882,-2.3882,-2.3782,-2.3681,-2.3681,-2.3681,-2.3681,-2.3681,-2.3681,-2.3681,-2.3681,-2.3625,-2.3596,-2.3553,-2.3319,-2.3172,-2.3172,-2.3113,-2.3216,-2.3407,-2.3407,-2.326,-2.2979,-2.2979,-2.2979,-2.2979,-2.2979,-2.2979,-2.2965,-2.2877,-2.2759,-2.2538,-2.1712,-2.1396,-2.1281,-2.8213,-2.8265,-2.8265,-2.8265,-2.7989,-2.7782,-2.7782,-2.7506,-2.7299,-2.7299,-2.7299,-2.7299,-2.7299,-2.7299,-2.7299,-2.7299,-2.7299,-2.7299,-2.7299,-2.7299,-2.7282,-2.7184,-2.7184,-2.7152,-2.7055,-2.699,-2.6957,-2.6891,-2.6925,-2.6909,-2.6825,-2.6691,-2.6623,-2.6589,-2.6415,-2.631,-2.631,-2.6132,-2.6007,-2.5917,-2.5787,-2.5659,-2.553,-2.5448,-2.541,-2.5317,-2.524,-2.5123,-2.5029,-2.5029,-2.4966,-2.4902,-2.4822,-2.4742,-2.4686,-2.463,-2.4549,-2.4523,-2.4523,-2.4482,-2.4426,-2.44,-2.4374,-2.4359,-2.4261,-2.4261,-2.4302,-2.4426,-2.44,-2.4359,-2.4261,-2.4261,-2.4234,-2.4151,-2.4135,-2.4067,-2.3925,-2.3882,-2.3855,-2.3726,-2.3581,-2.3538,-2.3538,-2.3392,-2.3304,-2.3304,-2.3246,-2.3201,-2.3201,-2.3201,-2.3201,-2.3201,-2.3172,-2.3127,-2.3038,-2.2934,-2.2799,-2.2723,-2.2632,-2.2768,-2.2934,-2.2918,-2.2814,-2.2632,-2.254,-2.2495,-2.2495,-2.2495,-2.2495,-2.2495,-2.2495,-2.2388,-2.2128,-2.1583,-2.1407,-2.1365]},{"header":{"parameterUnit":"m.s-1","parameterCategory":1,"la1":30.6,"la2":28.766,"lo1":-90.7593,"lo2":-88.6598,"dy":0.0162,"dx":0.0183,"nx":116,"ny":114,"refTime":"2023-07-22T12:00:00:Z","depth":0,"parameterNumber":3,"parameterNumberName":"V-component_of_WINDS"},"data":[0.0,0.0,0.0,0.0,0.0,0.0,0.0,0.0,0.0,0.0,0.0,0.0,0.0,0.0,0.0,0.0,0.0,0.0,0.0,0.0,0.0,0.0,0.0,0.0,0.0,0.0,0.0,0.0,0.0,0.0,0.0,0.0,0.0,0.0,0.0,0.0,0.0,0.0,0.0,0.0,0.0,0.0,0.0,0.0,0.0,0.0,0.0,0.0,0.0,0.0,0.0,0.0,0.0,0.0,0.0,0.0,0.0,0.0,0.0,0.0,0.0,0.0,0.0,0.0,0.0,0.0,0.0,0.0,0.0,0.0,0.0,0.0,0.0,0.0,0.0,0.0,0.0,0.0,0.0,0.0,0.0,0.0,0.0,0.0,0.0,0.0,0.0,0.0,0.0,0.0,0.0,0.0,0.0,0.0,0.0,0.0,0.0,0.0,0.0,0.0,0.0,0.0,0.0,0.0,0.0,0.0,0.0,0.0,0.0,0.0,0.0,0.0,0.0,0.0,0.0,0.0,0.0,0.0,0.0,0.0,0.0,0.0,0.0,0.0,0.0,0.0,0.0,0.0,0.0,0.0,0.0,0.0,0.0,0.0,0.0,0.0,0.0,0.0,0.0,0.0,0.0,0.0,0.0,0.0,0.0,0.0,0.0,0.0,0.0,0.0,0.0,0.0,0.0,0.0,0.0,0.0,0.0,0.0,0.0,0.0,0.0,0.0,0.0,0.0,0.0,0.0,0.0,0.0,0.0,0.0,0.0,0.0,0.0,0.0,0.0,0.0,0.0,0.0,0.0,0.0,0.0,0.0,0.0,0.0,0.0,0.0,0.0,0.0,0.0,0.0,0.0,0.0,0.0,0.0,0.0,0.0,0.0,0.0,0.0,0.0,0.0,0.0,0.0,0.0,0.0,0.0,0.0,0.0,0.0,0.0,0.0,0.0,0.0,0.0,0.0,0.0,0.0,0.0,0.0,0.0,0.0,0.0,0.0,0.0,0.0,0.0,0.0,0.0,0.0,0.0,0.0,0.0,0.0,0.0,0.0,0.0,0.0,0.0,0.0,0.0,0.0,0.0,0.0,0.0,0.0,0.0,0.0,0.0,0.0,0.0,0.0,0.0,0.0,0.0,0.0,0.0,0.0,0.0,0.0,0.0,0.0,0.0,0.0,0.0,0.0,0.0,0.0,0.0,0.0,0.0,0.0,0.0,0.0,0.0,0.0,0.0,0.0,0.0,0.0,0.0,0.0,0.0,0.0,0.0,0.0,0.0,0.0,0.0,0.0,0.0,0.0,0.0,0.0,0.0,0.0,0.0,0.0,0.0,0.0,0.0,0.0,0.0,0.0,0.0,0.0,0.0,0.0,0.0,0.0,0.0,0.0,0.0,0.0,0.0,0.0,0.0,0.0,0.0,0.0,0.0,0.0,0.0,0.0,0.0,0.0,0.0,0.0,0.0,0.0,0.0,0.0,0.0,0.0,0.0,0.0,0.0,0.0,0.0,0.0,0.0,0.0,0.0,0.0,0.0,0.0,0.0,0.0,0.0,0.0,0.0,0.0,0.0,0.0,0.0,0.0,0.0,0.0,0.0,0.0,0.0,0.0,0.0,0.0,0.0,0.0,0.0,0.0,0.0,0.0,0.0,0.0,0.0,0.0,0.0,0.0,0.0,0.0,0.0,0.0,0.0,0.0,0.0,0.0,0.0,0.0,0.0,0.0,0.0,0.0,0.0,0.0,0.0,0.0,0.0,0.0,0.0,0.0,0.0,0.0,0.0,0.0,0.0,0.0,0.0,0.0,0.0,0.0,0.0,0.0,0.0,0.0,0.0,0.0,0.0,0.0,0.0,0.0,0.0,0.0,0.0,0.0,0.0,0.0,0.0,0.0,0.0,0.0,0.0,0.0,0.0,0.0,0.0,0.0,0.0,0.0,0.0,0.0,0.0,0.0,0.0,0.0,0.0,0.0,0.0,0.0,0.0,0.0,0.0,0.0,0.0,0.0,0.0,0.0,0.0,0.0,0.0,0.0,0.0,0.0,0.0,0.0,0.0,0.0,0.0,0.0,0.0,0.0,0.0,0.0,0.0,0.0,0.0,0.0,0.0,0.0,0.0,0.0,0.0,0.0,0.0,0.0,0.0,0.0,0.0,0.0,0.0,0.0,0.0,0.0,0.0,0.0,0.0,0.0,0.0,0.0,0.0,0.0,0.0,0.0,0.0,0.0,0.0,0.0,0.0,0.0,0.0,0.0,0.0,0.0,0.0,0.0,0.0,0.0,0.0,0.0,0.0,0.0,0.0,0.0,0.0,0.0,0.0,0.0,0.0,0.0,0.0,0.0,0.0,0.0,0.0,0.0,0.0,0.0,0.0,0.0,0.0,0.0,0.0,0.0,0.0,0.0,0.0,0.0,0.0,0.0,0.0,0.0,0.0,0.0,0.0,0.0,0.0,0.0,0.0,0.0,0.0,0.0,0.0,0.0,0.0,0.0,0.0,0.0,0.0,0.0,0.0,0.0,0.0,0.0,0.0,0.0,0.0,0.0,0.0,0.0,0.0,0.0,0.0,0.0,0.0,0.0,0.0,0.0,0.0,0.0,0.0,0.0,0.0,0.0,0.0,0.0,0.0,0.0,0.0,0.0,0.0,0.0,0.0,0.0,0.0,0.0,0.0,0.0,0.0,0.0,0.0,0.0,0.0,0.0,0.0,0.0,0.0,0.0,0.0,0.0,0.0,0.0,0.0,0.0,0.0,0.0,0.0,0.0,0.0,0.0,0.0,0.0,0.0,0.0,0.0,0.0,0.0,0.0,0.0,0.0,0.0,0.0,0.0,0.0,0.0,0.0,0.0,0.0,0.0,0.0,0.0,0.0,0.0,0.0,0.0,0.0,0.0,0.0,0.0,0.0,0.0,0.0,0.0,0.0,0.0,0.0,0.0,0.0,0.0,0.0,0.0,0.0,0.0,0.0,0.0,0.0,0.0,0.0,0.0,0.0,0.0,0.0,0.0,0.0,0.0,0.0,0.0,0.0,0.0,0.0,0.0,0.0,0.0,0.0,0.0,0.0,0.0,0.0,0.0,0.0,0.0,0.0,0.0,0.0,0.0,0.0,0.0,0.0,0.0,0.0,0.0,0.0,0.0,0.0,0.0,0.0,0.0,0.0,0.0,0.0,0.0,0.0,0.0,0.0,0.0,0.0,0.0,0.0,0.0,0.0,0.0,0.0,0.0,0.0,0.0,0.0,0.0,0.0,0.0,0.0,0.0,0.0,0.0,0.0,0.0,0.0,0.0,0.0,0.0,0.0,0.0,0.0,0.0,0.0,0.0,0.0,0.0,0.0,0.0,0.0,0.0,0.0,0.0,0.0,0.0,0.0,0.0,0.0,0.0,0.0,0.0,0.0,0.0,0.0,0.0,0.0,0.0,0.0,0.0,0.0,0.0,0.0,0.0,0.0,0.0,0.0,0.0,0.0,0.0,0.0,0.0,0.0,0.0,0.0,0.0,0.0,0.0,0.0,0.0,0.0,0.0,0.0,0.0,0.0,0.0,0.0,0.0,0.0,0.0,0.0,0.0,0.0,0.0,0.0,0.0,0.0,0.0,0.0,0.0,0.0,0.0,0.0,0.0,0.0,0.0,0.0,0.0,0.0,0.0,0.0,0.0,0.0,0.0,0.0,0.0,0.0,0.0,0.0,0.0,0.0,0.0,0.0,0.0,0.0,0.0,0.0,0.0,0.0,0.0,0.0,0.0,0.0,0.0,0.0,0.0,0.0,0.0,0.0,0.0,0.0,0.0,0.0,0.0,0.0,0.0,0.0,0.0,0.0,0.0,0.0,0.0,0.0,0.0,0.0,0.0,0.0,0.0,0.0,0.0,0.0,0.0,0.0,0.0,0.0,0.0,0.0,0.0,0.0,0.0,0.0,0.0,0.0,0.0,0.0,0.0,0.0,0.0,0.0,0.0,0.0,0.0,0.0,0.0,0.0,0.0,0.0,0.0,0.0,0.0,0.0,0.0,0.0,0.0,0.0,0.0,0.0,0.0,0.0,0.0,0.0,0.0,0.0,0.0,0.0,0.0,0.0,0.0,0.0,0.0,0.0,0.0,0.0,0.0,0.0,0.0,0.0,0.0,0.0,0.0,0.0,0.0,0.0,0.0,0.0,0.0,0.0,0.0,0.0,0.0,0.0,0.0,0.0,0.0,0.0,0.0,0.0,0.0,0.0,0.0,0.0,0.0,0.0,0.0,0.0,0.0,0.0,0.0,0.0,0.0,0.0,0.0,0.0,0.0,0.0,0.0,0.0,0.0,0.0,0.0,0.0,0.0,0.0,0.0,0.0,0.0,0.0,0.0,0.0,0.0,0.0,0.0,0.0,0.0,0.0,0.0,0.0,0.0,0.0,0.0,0.0,0.0,0.0,0.0,0.0,0.0,0.0,0.0,0.0,0.0,0.0,0.0,0.0,0.0,0.0,0.0,0.0,0.0,0.0,0.0,0.0,0.0,0.0,0.0,0.0,0.0,0.0,0.0,0.0,0.0,0.0,0.0,0.0,0.0,0.0,0.0,0.0,0.0,0.0,0.0,0.0,0.0,0.0,0.0,0.0,0.0,0.0,0.0,0.0,0.0,0.0,0.0,0.0,0.0,0.0,0.0,0.0,0.0,0.0,0.0,0.0,0.0,0.0,0.0,0.0,0.0,0.0,0.0,0.0,0.0,0.0,0.0,0.0,0.0,0.0,0.0,0.0,0.0,0.0,0.0,0.0,0.0,0.0,0.0,0.0,0.0,0.0,0.0,0.0,0.0,0.0,0.0,0.0,0.0,0.0,0.0,0.0,0.0,0.0,0.0,0.0,0.0,0.0,0.0,0.0,0.0,0.0,0.0,0.0,0.0,0.0,0.0,0.0,0.0,0.0,0.0,0.0,0.0,0.0,0.0,0.0,0.0,0.0,0.0,0.0,0.0,0.0,0.0,0.0,0.0,0.0,0.0,0.0,0.0,0.0,0.0,0.0,0.0,0.0,0.0,0.0,0.0,0.0,0.0,0.0,0.0,0.0,0.0,0.0,0.0,0.0,0.0,0.0,0.0,0.0,0.0,0.0,0.0,0.0,0.0,0.0,0.0,0.0,0.0,0.0,0.0,0.0,0.0,0.0,0.0,0.0,0.0,0.0,0.0,0.0,0.0,0.0,0.0,0.0,0.0,0.0,0.0,0.0,0.0,0.0,0.0,0.0,0.0,0.0,0.0,0.0,0.0,0.0,0.0,0.0,0.0,0.0,0.0,0.0,0.0,0.0,0.0,0.0,0.0,0.0,0.0,0.0,0.0,0.0,0.0,0.0,0.0,0.0,0.0,0.0,0.0,0.0,0.0,0.0,0.0,0.0,0.0,0.0,0.0,0.0,0.0,0.0,0.0,0.0,0.0,0.0,0.0,0.0,0.0,0.0,0.0,0.0,0.0,0.0,0.0,0.0,0.0,0.0,0.0,0.0,0.0,0.0,0.0,0.0,0.0,0.0,0.0,0.0,0.0,0.0,0.0,0.0,0.0,0.0,0.0,0.0,0.0,0.0,0.0,0.0,0.0,0.0,0.0,0.0,0.0,0.0,0.0,0.0,0.0,0.0,0.0,0.0,0.0,0.0,0.0,0.0,0.0,0.0,0.0,0.0,0.0,0.0,0.0,0.0,0.0,0.0,0.0,0.0,0.0,0.0,0.0,0.0,0.0,0.0,0.0,0.0,0.0,0.0,0.0,0.0,0.0,0.0,0.0,0.0,0.0,0.0,0.0,0.0,0.0,0.0,0.0,0.0,0.0,0.0,0.0,0.0,0.0,0.0,0.0,0.0,0.0,0.0,0.0,0.0,0.0,0.0,0.0,0.0,0.0,0.0,0.0,0.0,0.0,0.0,0.0,0.0,0.0,0.0,0.0,0.0,0.0,0.0,0.0,0.0,0.0,0.0,0.0,0.0,0.0,0.0,0.0,0.0,0.0,0.0,0.0,0.0,0.0,0.0,0.0,0.0,0.0,0.0,0.0,0.0,0.0,0.0,0.0,0.0,0.0,0.0,0.0,0.0,0.0,0.0,0.0,0.0,0.0,0.0,0.0,0.0,0.0,-0.212,0.0,0.0,0.0,0.0,0.0,0.0,0.0,0.0,0.0,0.0,0.0,0.0,0.0,0.0,0.0,0.0,0.0,0.0,0.0,0.0,0.0,0.0,0.0,0.0,0.0,0.0,0.0,0.0,0.0,0.0,0.0,0.0,0.0,0.0,0.0,0.0,0.0,0.0,0.0,0.0,0.0,0.0,0.0,0.0,0.0,0.0,0.0,0.0,0.0,0.0,0.0,0.0,0.0,0.0,0.0,0.0,0.0,0.0,0.0,0.0,0.0,0.0,0.0,0.0,0.0,0.0,0.0,0.0,0.0,0.0,0.0,0.0,0.0,0.0,0.0,0.0,0.0,0.0,0.0,0.0,0.0,0.0,0.0,0.0,0.0,0.0,0.0,0.0,0.0,0.0,0.0,0.0,0.0,0.0,0.0,0.0,0.0,0.0,0.0,0.0,0.0,0.0,0.0,0.0,0.0,0.0,0.0,0.0,0.0,0.0,0.0,0.0,0.0,0.0,0.0,0.0,-0.2422,0.0,0.0,0.0,0.0,0.0,0.0,0.0,0.0,0.0,0.0,0.0,0.0,0.0,0.0,0.0,0.0,0.0,0.0,0.0,0.0,0.0,0.0,0.0,0.0,0.0,0.0,0.0,0.0,0.0,0.0,0.0,0.0,0.0,0.0,0.0,0.0,0.0,0.0,0.0,0.0,0.0,0.0,0.0,0.0,0.0,0.0,0.0,0.0,0.0,0.0,0.0,0.0,0.0,0.0,0.0,0.0,0.0,0.0,0.0,0.0,0.0,0.0,0.0,0.0,0.0,0.0,0.0,0.0,0.0,0.0,0.0,0.0,0.0,0.0,0.0,0.0,0.0,0.0,0.0,0.0,0.0,0.0,0.0,0.0,0.0,0.0,0.0,0.0,0.0,0.0,0.0,0.0,0.0,0.0,0.0,0.0,0.0,0.0,0.0,0.0,0.0,0.0,0.0,0.0,0.0,0.0,0.0,0.0,-0.1111,-0.1415,-0.1617,-0.1617,-0.1617,-0.1617,-0.212,-0.2321,-0.2522,0.0,0.0,0.0,0.0,0.0,0.0,0.0,0.0,0.0,0.0,0.0,0.0,0.0,0.0,0.0,0.0,0.0,0.0,0.0,0.0,0.0,0.0,0.0,0.0,0.0,0.0,0.0,0.0,0.0,0.0,0.0,0.0,0.0,0.0,0.0,0.0,0.0,0.0,0.0,1.1499,1.0722,0.9941,0.9074,0.7132,0.0,0.0,0.0,0.0,0.0,0.0,0.0,0.0,0.0,0.0,0.0,0.0,0.0,0.0,0.0,0.0,0.0,0.0,0.0,0.0,0.0,0.0,0.0,0.0,0.0,0.0,0.0,0.0,0.0,0.0,0.0,0.0,0.0,0.0,0.0,0.0,0.0,0.0,0.0,0.0,0.0,0.0,0.0,0.6437,0.6437,0.0,0.0,0.0,0.0,0.0,0.0,0.0,0.0,0.0,0.0,0.0,0.0,0.0,0.0808,0.0808,-0.0202,-0.0808,-0.0808,-0.1314,-0.1516,-0.1617,-0.1617,-0.1617,-0.1617,-0.192,0.0,-0.2422,-0.3027,0.0,0.0,0.0,0.0,0.0,0.0,0.0,0.0,0.0,0.0,0.0,0.0,0.0,0.0,0.0,0.0,0.0,0.0,0.0,0.0,0.0,0.0,0.0,0.0,0.0,0.0,0.0,0.0,0.0,0.0,0.0,0.0,0.0,0.0,0.0,0.0,1.3886,1.3209,1.2619,1.1757,1.1068,1.0463,0.9061,0.7658,0.6251,0.5361,0.0,0.0,0.0,0.0,0.0,0.0,0.0,0.0,0.0,0.0,0.0,0.0,0.0,0.0,0.0,0.0,0.0,0.0,0.0,0.0,0.0,0.0,0.0,0.0,0.0,0.0,0.0,0.0,0.0,0.0,0.0,0.0,0.0,0.0,0.0,0.0,0.0,0.0,0.0,0.6437,0.6437,0.6437,0.6437,0.6437,0.0,0.0,0.0,0.0,0.0,0.0,0.0,0.0,0.0,0.2422,0.1313,0.0808,0.0808,-0.0303,-0.0808,-0.0808,-0.1314,-0.1617,-0.1617,-0.1617,-0.1617,-0.1617,-0.1718,-0.202,-0.2422,-0.3027,-0.3531,-0.4033,0.0,0.0,0.0,0.0,-0.7341,-0.7842,0.0,0.0,0.0,0.0,0.0,0.0,0.0,0.0,0.0,0.0,0.0,0.0,0.0,0.0,0.0,1.9381,0.0,0.0,0.0,0.0,0.0,0.0,0.0,0.0,0.0,0.0,0.0,0.0,1.4566,1.4146,1.373,1.2784,1.21,1.1585,1.0722,0.924,0.7401,0.6517,0.5808,0.0,0.0,0.0,0.0,0.0,0.0,0.0,0.0,0.0,0.0,0.0,0.0,0.0,0.0,0.0,0.0,0.0,0.0,0.0,0.0,0.0,0.0,0.0,0.0,0.0,0.0,0.0,0.0,0.0,0.0,0.0,0.0,0.0,0.0,0.0,0.0,0.0,0.0,0.6437,0.6437,0.6437,0.6437,0.6337,0.0,0.0,0.0,0.0,0.0,0.0,0.4033,0.3025,0.2422,0.2422,0.1313,0.081,0.0814,-0.0305,-0.0814,-0.0814,-0.1323,-0.1624,-0.1617,-0.1617,-0.1617,-0.1617,-0.1617,-0.1818,-0.2321,-0.2826,-0.343,-0.4033,-0.4535,-0.5238,-0.5939,-0.6539,-0.7042,-0.7543,0.0,0.0,0.0,0.0,0.0,0.0,0.0,0.0,0.0,0.0,0.0,0.0,0.0,0.0,1.9566,1.9566,1.9794,1.9863,0.0,0.0,0.0,0.0,0.0,0.0,0.0,0.0,0.0,1.6004,1.534,1.4915,1.465,1.373,1.3052,1.2619,1.1671,1.0193,0.8368,0.7665,0.6959,0.6251,0.0,0.0,0.0,0.0,0.0,0.0,0.0,0.0,0.0,0.0,0.0,0.0,0.0,0.0,0.0,0.0,0.0,0.0,0.0,0.0,0.0,0.0,0.0,0.0,0.0,0.0,0.0,0.0,0.0,0.0,0.0,0.0,0.0,0.0,0.0,0.0,0.0,0.0,0.0,0.6437,0.6437,0.0,0.0,0.0,0.0,0.524,0.4435,0.4033,0.4033,0.3025,0.2422,0.2422,0.1313,0.0815,0.083,-0.0311,-0.083,-0.083,-0.1452,-0.1645,-0.1617,-0.1617,-0.1617,-0.1617,-0.1617,-0.1718,-0.2021,-0.2322,-0.3026,-0.4033,-0.4338,-0.4939,-0.5636,-0.6237,-0.6736,-0.7338,0.0,0.0,0.0,0.0,0.0,0.0,0.0,0.0,0.0,0.0,0.0,0.0,0.0,1.9557,1.9715,2.0029,2.0108,2.0186,2.0186,0.0,0.0,0.0,0.0,0.0,0.0,0.0,1.7805,1.7223,1.6653,1.6231,1.5871,1.474,1.3977,1.3548,1.2613,1.1494,1.0193,0.8978,0.8017,0.7238,0.6703,0.6289,0.0,0.0,0.0,0.0,0.0,0.0,0.0,0.0,0.0,0.0,0.0,0.0,0.0,0.0,0.0,0.0,0.0,0.0,0.0,0.0,0.0,0.0,0.0,0.0,0.0,0.0,0.0,0.0,0.0,0.0,0.0,0.0,0.0,0.0,0.0,0.0,0.0,0.6437,0.6437,0.0,0.6042,0.5737,0.5536,0.524,0.4435,0.4055,0.4104,0.308,0.2479,0.2508,0.1465,0.084,0.0845,-0.0106,-0.0634,-0.0846,-0.1268,-0.1571,-0.1646,-0.1646,-0.1635,-0.1617,-0.1617,-0.1718,-0.2021,-0.2322,-0.2825,-0.3531,-0.3934,-0.4636,-0.5438,-0.5939,-0.6639,-0.7238,0.0,0.0,0.0,0.0,0.0,0.0,0.0,0.0,0.0,0.0,0.0,1.9381,1.9566,1.9636,1.9872,2.0264,2.043,2.0508,2.0508,0.0,0.0,0.0,0.0,0.0,0.0,1.923,1.8852,1.8355,1.777,1.7344,1.6986,1.5996,1.5298,1.4785,1.3832,1.2964,1.2003,1.0676,0.9491,0.8383,0.7865,0.7394,0.7089,0.0,0.0,0.0,0.0,0.0,0.0,0.0,0.0,0.0,0.0,0.0,0.0,0.0,0.0,0.0,0.0,0.0,0.0,0.0,0.0,0.0,0.0,0.0,0.0,0.0,0.0,0.0,0.0,0.0,0.0,0.0,0.0,0.0,0.0,0.0,0.6337,0.6237,0.6237,0.6139,0.5741,0.5539,0.5352,0.5185,0.4478,0.4104,0.4181,0.314,0.2526,0.2556,0.1493,0.0856,0.0861,0.0,-0.0538,-0.0753,-0.1076,-0.1386,-0.1572,-0.1667,-0.1651,-0.1632,-0.1622,-0.1718,-0.192,-0.2221,-0.2623,-0.3027,-0.3732,-0.4435,-0.5138,-0.5639,-0.6339,-0.7138,0.0,0.0,0.0,0.0,0.0,0.0,0.0,0.0,0.0,0.0,1.9301,1.9381,1.9557,1.9794,2.002,2.0264,2.0664,2.0906,2.0906,2.1071,0.0,0.0,0.0,0.0,2.0624,2.0352,1.9938,1.9273,1.8749,1.8316,1.7874,1.7437,1.6815,1.6094,1.5383,1.4482,1.3586,1.2871,1.146,0.9646,0.9108,0.8574,0.7994,0.0,0.0,0.0,0.0,0.0,0.0,0.0,0.0,0.0,0.0,0.0,0.0,0.0,0.0,0.0,0.0,0.0,0.0,0.0,0.0,0.0,0.0,0.0,0.0,0.0,0.0,0.0,0.0,0.0,0.0,0.0,0.0,0.0,0.6437,0.6437,0.6337,0.6042,0.6042,0.5744,0.5244,0.5244,0.5183,0.4969,0.446,0.4184,0.4261,0.3199,0.2561,0.2562,0.1495,0.0861,0.0875,0.0,-0.0329,-0.0438,-0.0985,-0.1302,-0.1281,-0.1573,-0.1663,-0.166,-0.163,-0.1617,-0.1617,-0.212,-0.2422,-0.2521,-0.353,-0.4334,-0.4834,-0.5436,-0.6139,-0.6942,0.0,0.0,0.0,0.0,0.0,0.0,0.0,0.0,0.0,0.0,1.9222,1.946,1.9784,1.9863,2.0098,2.0489,2.0741,2.0906,2.0906,0.0,0.0,0.0,0.0,0.0,2.1524,2.1306,2.0943,2.0607,2.0165,1.973,1.9205,1.8327,1.7676,1.7056,1.6183,1.5377,1.4578,1.3857,1.2923,1.1822,1.0515,0.9703,0.92,0.0,0.0,0.0,0.0,0.0,0.0,0.0,0.0,0.0,0.0,0.0,0.0,0.0,0.0,0.0,0.0,0.0,0.0,0.0,0.0,0.0,0.0,0.0,0.0,0.0,0.0,0.0,0.0,0.0,0.0,0.0,0.0,0.6742,0.6437,0.6437,0.6337,0.6042,0.6042,0.5874,0.5342,0.5348,0.5285,0.5065,0.4545,0.4262,0.4339,0.3257,0.2622,0.2656,0.166,0.1109,0.0891,0.0446,0.0,-0.0446,-0.0557,-0.0883,-0.1303,-0.1388,-0.1473,-0.166,-0.163,-0.1617,-0.1617,-0.192,-0.2221,-0.2522,-0.3331,-0.4036,-0.4537,-0.514,-0.6039,-0.7138,0.0,0.0,0.0,0.0,0.0,0.0,0.0,0.0,0.0,0.0,1.9073,1.9311,1.9715,1.9863,2.0098,2.0411,0.0,0.0,0.0,0.0,0.0,0.0,0.0,2.273,2.2383,2.2284,2.1985,2.1549,2.1189,2.0748,2.0305,1.9462,1.8742,1.82,1.7394,1.6574,1.5762,1.5029,1.4297,1.3495,1.2156,1.1005,1.0056,0.9481,0.8928,0.8435,0.7935,0.7637,0.7537,0.7238,0.0,0.0,0.0,0.0,0.0,0.0,0.0,0.0,0.0,0.0,0.0,0.0,0.0,0.0,0.0,0.0,0.0,0.0,0.0,0.0,0.0,0.0,0.0,0.0,0.7141,0.6842,0.6639,0.6437,0.6237,0.5839,0.5881,0.5729,0.5279,0.5216,0.5174,0.4943,0.4521,0.4233,0.4195,0.3315,0.2776,0.2692,0.1908,0.1346,0.1121,0.0673,0.0224,-0.0112,-0.0336,-0.0558,-0.0883,-0.1078,-0.1273,0.0,-0.1431,-0.1516,-0.1617,-0.1921,-0.2121,0.0,0.0,0.0,0.0,0.0,-0.6142,-0.7138,0.0,0.0,0.0,0.0,0.0,0.0,0.0,0.0,0.0,0.0,0.0,1.9082,1.9557,1.9752,2.0096,0.0,0.0,0.0,0.0,0.0,0.0,2.3594,2.3982,2.3851,2.3222,2.3232,2.2882,2.2185,2.1998,2.1544,2.1087,2.0645,2.0011,1.9279,1.8711,1.7971,1.7131,1.6292,1.554,1.4688,1.3727,1.2365,1.09,1.0314,0.9821,0.9232,0.8435,0.8137,0.7939,0.7537,0.0,0.0,0.0,0.0,0.0,0.0,0.0,0.0,0.0,0.0,0.0,0.0,0.0,0.0,0.0,0.0,0.0,0.0,0.0,0.0,0.0,0.0,0.0,0.0,0.7441,0.7144,0.6862,0.6662,0.6255,0.5653,0.5748,0.5611,0.5106,0.5075,0.5054,0.4813,0.4493,0.4195,0.4035,0.0,0.0,0.0,0.0,0.1683,0.1346,0.0785,0.0449,0.0449,-0.0112,-0.0336,-0.0336,-0.065,-0.096,-0.1278,-0.1232,-0.1314,-0.1617,-0.1819,-0.2121,-0.2422,-0.3027,-0.3632,-0.4234,-0.5438,-0.6342,-0.6842,0.0,0.0,0.0,0.0,0.0,0.0,0.0,0.0,0.0,1.8676,1.8725,1.8922,1.9311,1.9854,0.0,0.0,0.0,2.2717,0.0,0.0,2.4043,2.431,2.4241,2.412,2.4024,2.3754,2.3406,2.2882,2.2872,2.2441,2.1553,2.1275,2.0817,2.0019,1.9371,1.8711,1.8056,1.7131,1.6292,1.5547,1.4688,0.0,1.198,1.1292,1.0507,0.9821,0.943,0.8832,0.8333,0.8233,0.8035,0.7839,0.7839,0.0,0.0,0.0,0.0,0.0,0.0,0.0,0.0,0.0,0.0,0.0,0.0,0.0,0.0,0.0,0.0,0.0,0.0,0.0,0.0,0.7646,0.7547,0.7384,0.6986,0.6899,0.6586,0.5867,0.586,0.5746,0.5184,0.5208,0.5146,0.4899,0.4571,0.4355,0.4036,0.3474,0.0,0.3026,0.2467,0.202,0.1683,0.1346,0.1009,0.0785,0.0,0.0,-0.0112,-0.0325,-0.064,-0.0958,-0.1129,-0.1212,-0.1313,-0.1617,-0.1919,-0.2521,-0.3429,-0.4034,-0.4437,-0.5336,-0.6037,-0.6537,0.0,0.0,0.0,0.0,0.0,0.0,0.0,0.0,0.0,0.0,1.8809,1.9011,1.9324,0.0,0.0,0.0,2.2099,0.0,0.0,2.4124,2.4312,2.4529,2.4368,2.4282,2.4206,2.4024,2.3841,2.3493,2.3222,2.2882,2.2353,2.1811,2.1275,2.0826,2.0102,1.9371,1.8719,1.7885,1.7044,1.6109,0.0,0.0,1.3238,1.2073,1.1194,1.0507,0.9821,0.9327,0.8931,0.873,0.8432,0.8237,0.8237,0.8137,0.8038,0.0,0.0,0.0,0.0,0.0,0.0,0.0,0.0,0.0,0.0,0.0,0.0,0.0,0.0,0.9331,0.0,0.0,0.8432,0.8038,0.7743,0.7594,0.7425,0.7294,0.6815,0.6185,0.6076,0.584,0.5454,0.5393,0.522,0.4927,0.4704,0.4369,0.4038,0.3587,0.325,0.3137,0.2802,0.2467,0.202,0.1683,0.1346,0.1121,0.0785,0.0449,0.0224,0.0108,-0.0213,-0.0639,-0.0719,-0.0909,-0.1212,-0.1617,-0.202,-0.2522,-0.3328,-0.3833,-0.4236,-0.4935,-0.5636,-0.6239,0.0,0.0,0.0,0.0,0.0,0.0,0.0,0.0,0.0,0.0,0.0,1.8981,1.9316,0.0,0.0,0.0,0.0,0.0,0.0,2.4368,2.4454,2.454,2.454,2.454,2.4368,2.4368,2.4186,2.3927,2.3493,2.3222,2.3047,2.2353,2.182,2.1454,2.0826,2.0102,1.9371,1.8635,1.78,1.6864,0.0,0.0,1.4292,1.2845,1.1878,1.1194,1.0216,0.9826,0.9529,0.9126,0.873,0.8432,0.8432,0.8333,0.8237,0.8432,0.8531,0.0,0.0,0.0,0.0,0.0,0.0,0.0,0.0,0.0,0.9535,0.9567,0.9575,0.9489,0.9229,0.9031,0.8829,0.8531,0.8062,0.7834,0.7975,0.77,0.7266,0.665,0.6413,0.6034,0.5702,0.5558,0.5268,0.4931,0.4704,0.437,0.4038,0.3813,0.3475,0.325,0.3137,0.2914,0.2355,0.2019,0.1795,0.1458,0.1121,0.0785,0.056,0.0433,0.0213,-0.0213,-0.0308,-0.0707,-0.1212,-0.1617,-0.202,-0.2322,-0.2826,-0.333,-0.3932,-0.4533,-0.5238,-0.5839,0.0,0.0,0.0,0.0,0.0,0.0,0.0,0.0,0.0,0.0,0.0,0.0,0.0,0.0,0.0,0.0,0.0,0.0,2.411,2.4206,2.4282,2.4454,2.47,2.4861,2.4775,2.4775,2.47,2.4454,2.4196,2.3764,2.3135,2.296,2.253,2.1651,2.1365,2.0916,2.011,1.9371,1.8635,0.0,0.0,0.0,1.486,1.38,1.2743,1.178,1.1194,1.0413,0.9628,0.9529,0.9126,0.8726,0.8726,0.8726,0.8726,0.8726,0.0,0.9103,0.9046,0.9176,0.9426,0.9405,0.9414,0.9426,0.0,0.0,0.9202,0.9352,0.9384,0.9336,0.9205,0.9133,0.9031,0.8825,0.8654,0.8497,0.833,0.8268,0.7979,0.7549,0.7022,0.6362,0.5806,0.5815,0.5489,0.4931,0.4817,0.4596,0.4038,0.3924,0.3813,0.3587,0.325,0.3025,0.3026,0.2467,0.2132,0.2132,0.157,0.1234,0.1232,0.065,0.032,0.0319,-0.0205,-0.0707,-0.1212,-0.1313,-0.1617,-0.2122,-0.2423,-0.2826,-0.343,-0.4435,-0.4834,-0.5035,0.0,0.0,0.0,0.0,0.0,0.0,0.0,0.0,0.0,0.0,0.0,0.0,0.0,0.0,0.0,0.0,0.0,0.0,2.3764,2.4034,2.4368,2.47,2.4861,2.4946,2.5031,2.5115,2.5031,2.4871,2.454,2.4196,2.3927,2.3396,2.2872,2.253,2.19,2.1275,2.0637,1.9828,1.8912,0.0,0.0,0.0,1.5445,1.4484,1.3619,1.2743,1.158,1.09,0.0,0.0,0.9624,0.9229,0.913,0.8928,0.8825,0.9031,0.906,0.0,0.925,0.9337,0.0,0.0,0.9662,0.9621,0.9697,0.9574,0.9516,0.9602,0.9544,0.9505,0.9497,0.9331,0.9133,0.0,0.897,0.8933,0.8884,0.8721,0.8442,0.8358,0.7712,0.6937,0.6381,0.6044,0.571,0.5487,0.5152,0.4817,0.4484,0.4148,0.3924,0.3813,0.3587,0.325,0.3137,0.2802,0.2691,0.2469,0.202,0.1785,0.1546,0.1078,0.0738,0.0413,0.0,-0.0404,-0.0808,-0.1111,-0.1415,-0.1819,-0.202,-0.2523,-0.3027,-0.3833,-0.4437,-0.4834,0.0,0.0,0.0,0.0,0.0,0.0,0.0,0.0,0.0,0.0,0.0,0.0,0.0,0.0,0.0,0.0,0.0,0.0,0.0,2.3851,2.4358,2.4861,2.4946,2.5115,2.5295,2.5285,2.5285,2.5285,2.4871,2.4625,2.4454,2.3841,2.3319,2.3057,2.2353,2.1731,2.1186,2.0275,1.9371,0.0,0.0,0.0,1.592,1.5166,1.4292,1.342,1.2068,1.1389,0.0,0.0,0.992,0.9628,0.943,0.913,0.9027,0.9232,0.9174,0.9056,0.925,0.0,0.0,0.9777,0.9754,0.9731,0.9772,0.9759,0.964,0.9639,0.9716,0.9714,0.9714,0.9596,0.9529,0.9529,0.9415,0.9393,0.9518,0.9187,0.9026,0.891,0.8374,0.7712,0.7157,0.649,0.5933,0.5822,0.5375,0.5041,0.4929,0.4484,0.4148,0.4038,0.3813,0.3587,0.325,0.3137,0.3026,0.2805,0.2457,0.2214,0.1858,0.1496,0.0936,0.0404,0.0202,-0.0101,-0.0404,-0.0909,-0.1212,-0.1516,-0.1819,-0.2223,-0.2625,-0.3232,-0.3835,-0.4535,0.0,0.0,0.0,0.0,0.0,0.0,0.0,0.0,0.0,0.0,0.0,0.0,0.0,0.0,0.0,0.0,0.0,0.0,0.0,2.3667,2.41,2.4861,2.5115,2.5295,2.5559,2.557,2.557,2.557,2.5295,2.4956,2.454,2.4454,2.3927,2.3057,2.2882,2.2353,2.1642,2.0925,0.0,0.0,0.0,0.0,1.6494,1.5439,1.4573,1.3715,1.2754,0.0,0.0,0.0,1.0216,0.992,0.9628,0.9628,0.0,0.9628,0.938,0.0,0.0,0.0,0.9362,0.9529,0.9616,0.962,0.9616,0.9446,0.9332,0.9444,0.9627,0.9809,1.001,1.0192,1.0314,1.0314,1.0222,1.0048,1.0052,0.9927,0.9585,0.8923,0.8923,0.8592,0.0,0.7157,0.6379,0.5822,0.5822,0.5487,0.4931,0.4929,0.4596,0.4038,0.4038,0.3813,0.3587,0.325,0.3137,0.3137,0.2758,0.2408,0.2184,0.1584,0.0926,0.0404,0.0404,0.0101,-0.0404,-0.0707,-0.101,-0.1313,-0.1819,-0.2022,-0.2122,-0.2624,-0.313,-0.3736,0.0,0.0,0.0,0.0,0.0,0.0,0.0,0.0,0.0,0.0,0.0,0.0,0.0,0.0,0.0,0.0,0.0,0.0,0.0,2.3406,2.409,2.4861,2.5115,2.5454,2.599,2.5979,2.5979,2.5979,2.5812,2.5559,2.5221,2.4711,2.4282,2.3851,2.3232,2.2618,2.1919,2.1186,0.0,0.0,0.0,0.0,1.6784,1.5724,1.4867,1.4004,0.0,0.0,0.0,0.0,1.0511,1.0216,0.9723,0.0,0.0,0.9344,0.9104,0.8964,0.0,0.0,0.9432,0.9777,0.9864,0.9864,0.9864,0.9777,0.9754,0.9782,0.9884,1.0081,1.0096,1.0285,1.0413,1.0413,1.0431,1.054,1.0659,1.0367,1.0128,1.0123,0.9364,0.0,0.0,0.0,0.0,0.671,0.6381,0.5935,0.5487,0.5373,0.5039,0.4596,0.426,0.3924,0.3813,0.3587,0.3456,0.3415,0.2999,0.2535,0.211,0.1856,0.1423,0.0909,0.0707,0.0505,0.0101,-0.0303,-0.0707,-0.101,-0.1314,-0.1718,-0.2018,-0.2192,-0.2478,-0.2872,0.0,0.0,0.0,0.0,0.0,0.0,0.0,0.0,0.0,0.0,0.0,0.0,0.0,0.0,0.0,0.0,0.0,0.0,0.0,0.0,2.4013,2.4861,2.52,2.5622,2.6157,2.6313,2.6313,2.6313,2.6146,2.5895,2.5644,2.5052,2.4625,2.4292,2.358,2.2882,2.2274,0.0,0.0,0.0,0.0,0.0,1.7167,1.6204,1.5343,0.0,0.0,0.0,0.0,0.0,0.0,0.0,0.0,0.9682,0.9474,0.9181,0.8966,0.8874,0.9134,0.9262,0.9432,0.9777,0.9951,1.0038,1.0038,1.0038,0.9989,1.0037,1.0285,1.0524,1.0566,1.0812,1.0998,1.0998,1.0979,1.1083,1.1272,1.0949,1.0712,1.0672,1.0025,0.0,0.0,0.0,0.0,0.7379,0.6937,0.6492,0.6156,0.5708,0.5373,0.5039,0.4594,0.426,0.4038,0.3789,0.3623,0.3433,0.3042,0.2688,0.2361,0.2133,0.1718,0.1314,0.101,0.0707,0.0404,-0.0101,-0.0404,-0.0707,-0.1103,-0.14,-0.1697,-0.1861,-0.2031,-0.2308,0.0,0.0,0.0,0.0,0.0,0.0,0.0,0.0,0.0,0.0,0.0,0.0,0.0,0.0,0.0,0.0,0.0,0.0,0.0,0.0,0.0,2.4861,2.5285,2.5717,2.624,2.6479,2.6655,2.6678,2.644,2.619,2.5939,2.5497,2.4967,2.4454,2.3851,2.3242,2.2706,0.0,0.0,0.0,0.0,0.0,1.7628,1.6871,0.0,0.0,0.0,0.0,0.0,0.0,0.0,0.0,0.0,0.9689,0.9311,0.9145,0.8958,0.8771,0.887,0.9087,0.9345,0.9519,0.9777,0.9951,1.0038,1.0038,1.0038,1.0294,1.0641,1.1037,0.0,0.0,1.198,1.198,1.1766,1.1576,1.1784,1.1572,1.1241,0.0,0.0,0.0,0.0,0.0,0.0,0.7718,0.0,0.7043,0.6712,0.6156,0.5708,0.5483,0.515,0.4594,0.4032,0.396,0.3648,0.332,0.3006,0.2875,0.2826,0.2223,0.1921,0.1617,0.1314,0.0909,0.0404,0.0101,-0.0101,-0.0403,-0.0988,-0.1176,-0.1272,-0.1727,-0.1788,-0.1948,0.0,0.0,0.0,0.0,0.0,0.0,0.0,0.0,0.0,0.0,0.0,0.0,0.0,0.0,0.0,0.0,0.0,0.0,0.0,0.0,0.0,0.0,0.0,0.0,0.0,0.0,0.0,0.0,0.0,2.7099,2.6686,2.6409,2.5701,0.0,2.4272,2.3677,2.2969,0.0,0.0,0.0,0.0,0.0,1.79,0.0,0.0,0.0,0.0,0.0,0.0,0.0,0.0,0.0,0.0,0.9413,0.9157,0.9112,0.8877,0.8709,0.8836,0.8911,0.9087,0.9515,0.9689,0.9777,0.9951,1.0125,1.0207,1.0294,1.0816,1.1216,0.0,0.0,0.0,1.198,1.1933,0.0,1.2074,1.1865,0.0,1.1633,0.0,1.0692,1.0472,0.9923,0.0,0.0,0.8266,0.7598,0.7043,0.6932,0.6487,0.571,0.5373,0.5008,0.4618,0.4055,0.3661,0.3628,0.3274,0.3043,0.2826,0.2624,0.2323,0.1921,0.1617,0.1314,0.1009,0.0497,0.0099,-0.0099,-0.0484,-0.0865,-0.1246,-0.1315,-0.1394,-0.1663,0.0,0.0,0.0,0.0,0.0,0.0,0.0,0.0,0.0,0.0,0.0,0.0,0.0,0.0,0.0,0.0,0.0,0.0,0.0,0.0,0.0,0.0,0.0,0.0,0.0,0.0,0.0,0.0,0.0,0.0,0.0,2.6852,2.6076,2.5115,2.4625,2.3937,2.3232,0.0,0.0,0.0,0.0,0.0,0.0,0.0,0.0,0.0,0.0,0.0,0.0,0.0,0.0,1.0117,0.9628,0.9188,0.8905,0.8812,0.0,0.8472,0.8556,0.8732,0.8999,0.9345,0.9515,0.9689,0.9951,1.0125,1.0294,1.0467,1.1,0.0,0.0,0.0,0.0,0.0,0.0,0.0,1.2547,1.2274,1.194,0.0,1.1624,0.0,1.0911,1.0472,1.0036,0.0,0.893,0.8263,0.782,0.7376,0.6932,0.6376,0.6001,0.5471,0.4912,0.4188,0.3819,0.3688,0.3449,0.323,0.2927,0.2826,0.2624,0.2324,0.0,0.1609,0.1296,0.0888,0.0488,0.0193,-0.0095,-0.047,-0.0845,-0.1012,-0.1187,-0.1367,0.0,0.0,0.0,0.0,0.0,0.0,0.0,0.0,0.0,0.0,0.0,0.0,0.0,0.0,0.0,0.0,0.0,0.0,0.0,0.0,0.0,0.0,0.0,0.0,0.0,0.0,0.0,0.0,0.0,0.0,0.0,0.0,0.0,0.0,0.0,0.0,0.0,0.0,0.0,0.0,0.0,0.0,0.0,0.0,0.0,0.0,0.0,0.0,0.0,0.0,1.0413,1.0216,0.943,0.8991,0.8613,0.8337,0.8197,0.8201,0.8201,0.8468,0.8911,0.9262,0.9432,0.9602,0.9951,1.0207,1.0381,1.0641,0.0,1.1951,1.2318,1.2814,1.3249,1.3443,0.0,1.2943,1.3071,1.2705,1.2314,1.2221,1.2102,1.1787,1.1236,1.0911,1.0582,1.0366,0.9588,0.8923,0.8595,0.782,0.7257,0.7133,0.6458,0.5771,0.5076,0.4446,0.3998,0.3737,0.3636,0.3433,0.323,0.2927,0.2822,0.2715,0.0,0.0,0.1663,0.1268,0.0868,0.0379,0.0186,-0.0092,-0.046,-0.0813,-0.1076,-0.1166,0.0,0.0,0.0,0.0,0.0,0.0,0.0,0.0,0.0,0.0,0.0,0.0,0.0,0.0,0.0,0.0,0.0,0.0,0.0,0.0,0.0,0.0,0.0,0.0,0.0,0.0,0.0,0.0,0.0,0.0,0.0,0.0,0.0,0.0,0.0,0.0,0.0,0.0,0.0,0.0,0.0,0.0,0.0,0.0,0.0,0.0,0.0,0.0,0.0,0.0,1.0413,0.992,0.943,0.8802,0.8337,0.8337,0.8106,0.8028,0.8113,0.8288,0.8464,0.917,0.9345,0.9432,0.9864,1.0299,0.0,0.0,0.0,1.2318,1.2409,1.3003,0.0,1.3443,0.0,0.0,0.0,0.0,1.3039,0.0,0.0,0.0,0.0,0.0,0.0,0.0,0.0,0.9699,0.8923,0.8481,0.7883,0.7018,0.627,0.573,0.5285,0.4898,0.4551,0.4237,0.3836,0.3536,0.3534,0.323,0.3002,0.2662,0.2465,0.0,0.1819,0.1318,0.0933,0.0742,0.0455,0.0,-0.0451,-0.0449,-0.0807,-0.1076,0.0,0.0,0.0,0.0,0.0,0.0,0.0,0.0,0.0,0.0,0.0,0.0,0.0,0.0,0.0,0.0,0.0,0.0,0.0,0.0,0.0,0.0,0.0,0.0,0.0,0.0,0.0,0.0,0.0,0.0,0.0,0.0,0.0,0.0,0.0,0.0,0.0,0.0,0.0,0.0,0.0,0.0,0.0,0.0,0.0,0.0,0.0,0.0,0.0,0.0,1.0314,0.9723,0.913,0.8605,0.8153,0.7969,0.784,0.768,0.7852,0.8025,0.8288,0.8815,0.9082,0.9345,0.9689,0.0,0.0,0.0,1.162,1.2409,1.2592,0.0,0.0,0.0,0.0,0.0,0.0,0.0,0.0,0.0,0.0,0.0,0.0,0.0,0.0,0.0,0.0,0.9923,0.9151,0.8639,0.7957,0.7015,0.6474,0.6077,0.572,0.5262,0.4836,0.4638,0.4237,0.3836,0.3635,0.3399,0.3168,0.2941,0.2619,0.0,0.2065,0.1672,0.1287,0.091,0.063,0.0359,0.0,-0.0269,-0.0535,-0.0795,0.0,0.0,0.0,0.0,0.0,0.0,0.0,0.0,0.0,0.0,0.0,0.0,0.0,0.0,0.0,0.0,0.0,0.0,0.0,0.0,0.0,0.0,0.0,0.0,0.0,0.0,0.0,0.0,0.0,0.0,0.0,0.0,0.0,0.0,0.0,0.0,0.0,0.0,0.0,0.0,0.0,0.0,0.0,0.0,0.0,0.0,0.0,0.0,0.0,0.0,1.0314,0.9624,0.9023,0.8434,0.7921,0.7701,0.7502,0.746,0.7514,0.7852,0.8201,0.8548,0.899,0.9345,0.9519,1.0207,0.0,0.0,1.1583,1.2444,1.2768,0.0,0.0,0.0,0.0,0.0,0.0,0.0,0.0,0.0,0.0,0.0,0.0,0.0,0.0,0.0,0.0,0.0,0.9435,0.8716,0.7982,0.725,0.6904,0.6535,0.6042,0.5639,0.5238,0.4834,0.462,0.4212,0.371,0.3543,0.3309,0.3098,0.2764,0.0,0.0,0.1931,0.1548,0.1166,0.0897,0.0626,0.0356,-0.0089,-0.0264,-0.0432,0.0,0.0,0.0,0.0,0.0,0.0,0.0,0.0,0.0,0.0,0.0,0.0,0.0,0.0,0.0,0.0,0.0,0.0,0.0,0.0,0.0,0.0,0.0,0.0,0.0,0.0,0.0,0.0,0.0,0.0,0.0,0.0,0.0,0.0,0.0,0.0,0.0,0.0,0.0,0.0,0.0,0.0,0.0,0.0,0.0,0.0,0.0,0.0,0.0,0.0,0.0,0.9821,0.9023,0.8311,0.7767,0.7638,0.0,0.0,0.7457,0.768,0.8028,0.846,0.899,0.9345,0.9519,0.0,0.0,1.0727,1.146,1.2249,1.274,1.3286,1.3738,0.0,0.0,0.0,0.0,0.0,0.0,0.0,0.0,0.0,0.0,0.0,0.0,0.0,0.0,0.0,0.9269,0.8664,0.8183,0.7849,0.7421,0.6848,0.6337,0.6337,0.5937,0.5138,0.4858,0.4524,0.4224,0.3663,0.3407,0.3254,0.2787,0.0,0.0,0.198,0.1618,0.1345,0.1166,0.0798,0.0437,0.0349,0.0,-0.0422,0.0,0.0,0.0,0.0,0.0,0.0,0.0,0.0,0.0,0.0,0.0,0.0,0.0,0.0,0.0,0.0,0.0,0.0,0.0,0.0,0.0,0.0,0.0,0.0,0.0,0.0,0.0,0.0,0.0,0.0,0.0,0.0,0.0,0.0,0.0,0.0,0.0,0.0,0.0,0.0,0.0,0.0,0.0,0.0,0.0,0.0,0.0,0.0,0.0,0.0,0.0,0.0,0.9023,0.8484,0.0,0.0,0.7492,0.7339,0.7276,0.7411,0.7768,0.8116,0.8552,0.899,0.9345,0.0,1.0386,1.0641,1.1356,1.2042,1.2643,1.3263,1.3708,0.0,0.0,0.0,0.0,0.0,0.0,0.0,0.0,0.0,0.0,0.0,0.0,0.0,0.0,0.0,0.9376,0.8841,0.8323,0.7928,0.7672,0.7241,0.6836,0.6537,0.6203,0.5844,0.5212,0.4774,0.443,0.3964,0.3633,0.3327,0.3103,0.0,0.0,0.2334,0.1974,0.1613,0.1415,0.1051,0.0782,0.06,0.0337,0.0,0.0,0.0,0.0,0.0,0.0,0.0,0.0,0.0,0.0,0.0,0.0,0.0,0.0,0.0,0.0,0.0,0.0,0.0,0.0,0.0,0.0,0.0,0.0,0.0,0.0,0.0,0.0,0.0,0.0,0.0,0.0,0.0,0.0,0.0,0.0,0.0,0.0,0.0,0.0,0.0,0.0,0.0,0.0,0.0,0.0,0.0,0.0,0.0,0.0,0.0,0.0,0.0,0.0,0.0,0.0,0.0,0.7556,0.7404,0.7251,0.7358,0.7591,0.7856,0.8288,0.8723,0.0,0.0,1.0125,1.0467,1.1035,1.1688,1.245,1.3021,1.3526,0.0,0.0,0.0,0.0,0.0,0.0,0.0,0.0,0.0,0.0,0.0,0.0,0.0,0.0,0.0,0.0,0.9109,0.8654,0.824,0.7942,0.7739,0.7437,0.6901,0.6541,0.6268,0.5615,0.5068,0.4624,0.425,0.3937,0.3481,0.0,0.0,0.0,0.2497,0.2312,0.1952,0.1649,0.1286,0.1023,0.0839,0.0575,0.0322,0.0,0.0,0.0,0.0,0.0,0.0,0.0,0.0,0.0,0.0,0.0,0.0,0.0,0.0,0.0,0.0,0.0,0.0,0.0,0.0,0.0,0.0,0.0,0.0,0.0,0.0,0.0,0.0,0.0,0.0,0.0,0.0,0.0,0.0,0.0,0.0,0.0,0.0,0.0,0.0,0.0,0.0,0.0,0.0,0.0,0.0,0.0,0.0,0.0,0.0,0.0,0.0,0.0,0.0,0.0,0.0,0.7709,0.7563,0.7411,0.7444,0.7591,0.7856,0.8288,0.8723,0.0,0.0,1.0038,1.0294,1.0651,1.1237,1.1962,1.2512,1.3044,1.3753,0.0,0.0,0.0,0.0,0.0,0.0,0.0,0.0,0.0,0.0,0.0,0.0,0.0,0.0,0.0,0.9335,0.9034,0.8825,0.8531,0.8233,0.8038,0.7599,0.7046,0.6265,0.6021,0.554,0.4804,0.4433,0.4123,0.0,0.0,0.0,0.0,0.2631,0.2435,0.2343,0.1866,0.1494,0.1303,0.1059,0.0802,0.055,0.0,0.0,0.0,0.0,0.0,0.0,0.0,0.0,0.0,0.0,0.0,0.0,0.0,0.0,0.0,0.0,0.0,0.0,0.0,0.0,0.0,0.0,0.0,0.0,0.0,0.0,0.0,0.0,0.0,0.0,0.0,0.0,0.0,0.0,0.0,0.0,0.0,0.0,0.0,0.0,0.0,0.0,0.0,0.0,0.0,0.0,0.0,0.0,0.0,0.0,0.0,0.0,0.0,0.0,0.0,0.0,0.0,0.0,0.7414,0.7348,0.7319,0.7768,0.8028,0.8292,0.8907,0.9257,0.9607,1.0038,1.0472,1.1046,1.1962,1.2323,1.2761,1.3555,1.3642,0.0,0.0,0.0,0.0,0.0,0.0,0.0,0.0,0.0,0.0,0.0,0.0,0.0,0.0,0.9529,0.9331,0.9034,0.8724,0.8376,0.8185,0.7644,0.724,0.6771,0.6219,0.5769,0.542,0.4851,0.0,0.0,0.0,0.0,0.0,0.296,0.2669,0.2289,0.2155,0.1882,0.1463,0.1439,0.1186,0.0786,0.0,0.0,0.0,0.0,0.0,0.0,0.0,0.0,0.0,0.0,0.0,0.0,0.0,0.0,0.0,0.0,0.0,0.0,0.0,0.0,0.0,0.0,0.0,0.0,0.0,0.0,0.0,0.0,0.0,0.0,0.0,0.0,0.0,0.0,0.0,0.0,0.0,0.0,0.0,0.0,0.0,0.0,2.0564,0.0,0.0,0.0,0.0,0.0,0.0,0.0,0.0,0.0,0.0,0.0,0.0,0.0,0.7907,0.0,0.0,0.7258,0.7228,0.7764,0.7944,0.8116,0.8736,0.9087,0.9432,0.9777,1.0207,1.0777,1.1689,1.2048,1.2477,1.3262,1.3346,0.0,0.0,0.0,0.0,0.0,0.0,0.0,0.0,0.0,0.0,0.0,0.0,0.0,0.0,0.9527,0.9397,0.9142,0.8902,0.8656,0.8402,0.7865,0.7461,0.7099,0.6497,0.6065,0.5719,0.528,0.0,0.0,0.0,0.0,0.0,0.306,0.2773,0.2402,0.2267,0.2086,0.1844,0.1738,0.1493,0.1178,0.0,0.0,0.0,0.0,0.0,0.0,0.0,0.0,0.0,0.0,0.0,0.0,0.0,0.0,0.0,0.0,0.0,0.0,0.0,0.0,0.0,0.0,0.0,0.0,0.0,0.0,0.0,2.3008,2.3714,2.4337,2.4861,0.0,0.0,0.0,0.0,0.0,0.0,0.0,0.0,0.0,0.0,0.0,0.0,0.0,0.0,0.0,0.0,0.0,0.0,0.0,0.0,0.0,0.0,0.0,0.0,0.0,0.0,0.0,0.0,0.0,0.0,0.0,0.7944,0.8032,0.8736,0.9087,0.0,0.9515,0.9946,1.0514,1.1232,1.1773,1.2297,1.2973,1.305,0.0,0.0,0.0,0.0,0.0,0.0,0.0,0.0,0.0,0.0,0.0,0.0,0.0,0.0,0.9336,0.9254,0.9084,0.9045,0.8859,0.8691,0.8063,0.7622,0.7444,0.7035,0.6435,0.5719,0.5711,0.0,0.0,0.0,0.0,0.0,0.3033,0.2843,0.259,0.2294,0.2196,0.2196,0.1963,0.1807,0.1572,0.0,0.0,0.0,0.0,0.0,0.0,0.0,0.0,0.0,0.0,0.0,0.0,0.0,0.0,0.0,0.0,0.0,0.0,0.0,0.0,0.0,0.0,0.0,0.0,0.0,0.0,0.0,2.2041,2.2921,2.3637,2.41,2.469,0.0,0.0,0.0,0.0,0.0,0.0,0.0,0.0,0.0,0.0,0.0,0.0,0.0,0.0,1.7225,1.6096,0.0,0.0,0.0,0.0,0.0,0.0,0.0,0.0,0.8005,0.757,0.7234,0.0,0.7228,0.7764,0.7944,0.8032,0.0,0.8823,0.9087,0.0,0.0,0.0,1.0958,1.1497,1.192,1.2485,1.2565,0.0,0.0,0.0,0.0,0.0,0.0,0.0,0.0,0.0,0.0,0.0,0.0,0.0,0.0,0.9157,0.9076,0.8889,0.8834,0.8746,0.852,0.8259,0.7908,0.7471,0.716,0.6786,0.6248,0.5717,0.0,0.0,0.0,0.0,0.3765,0.3336,0.3054,0.2768,0.2516,0.2353,0.2196,0.2118,0.1963,0.1808,0.0,0.0,0.0,0.0,0.0,0.0,0.0,0.0,0.0,0.0,0.0,0.0,0.0,0.0,0.0,0.0,0.0,0.0,0.0,0.0,0.0,0.0,0.0,0.0,0.0,0.0,0.0,0.0,0.0,2.2765,0.0,0.0,0.0,0.0,0.0,0.0,0.0,0.0,0.0,0.0,0.0,0.0,0.0,0.0,0.0,0.0,1.7699,1.6574,0.0,1.4382,1.3335,1.2365,0.0,0.0,0.0,0.0,0.8313,0.7789,0.7364,0.7231,0.7228,0.7764,0.7944,0.8032,0.848,0.0,0.0,0.0,0.0,0.0,0.0,0.0,0.0,0.0,0.0,0.0,0.0,0.0,0.0,0.0,0.0,0.0,0.0,0.0,0.0,0.0,0.0,0.0,0.0,0.897,0.8889,0.871,0.8706,0.8617,0.8527,0.834,0.8113,0.7852,0.7425,0.6954,0.6602,0.6034,0.5521,0.0,0.0,0.0,0.3836,0.3514,0.3173,0.2826,0.2668,0.2511,0.2353,0.2353,0.2198,0.2038,0.0,0.0,0.0,0.0,0.0,0.0,0.0,0.0,0.0,0.0,0.0,0.0,0.0,0.0,0.0,0.0,0.0,0.0,0.0,0.0,0.0,0.0,0.0,0.0,0.0,0.0,0.0,0.0,0.0,0.0,0.0,0.0,2.3493,0.0,0.0,0.0,0.0,0.0,0.0,0.0,2.2353,0.0,0.0,0.0,0.0,0.0,0.0,0.0,0.0,1.5064,1.401,1.2942,1.1935,0.0,0.0,0.0,0.0,0.0,0.7631,0.7411,0.7319,0.7764,0.794,0.8032,0.0,0.0,0.0,0.0,0.0,0.0,0.0,0.0,0.0,0.0,0.0,0.0,0.0,0.0,0.0,0.0,0.0,0.0,0.0,0.0,0.0,0.0,0.0,0.0,0.0,0.8783,0.8714,0.8572,0.8656,0.864,0.8611,0.8341,0.8162,0.8162,0.7647,0.7147,0.6888,0.6315,0.5776,0.0,0.0,0.0,0.3841,0.3604,0.3294,0.2826,0.2826,0.2668,0.2511,0.2511,0.2348,0.2176,0.0,0.0,0.0,0.0,0.0,0.0,0.0,0.0,0.0,0.0,0.0,0.0,0.0,0.0,0.0,0.0,0.0,0.0,0.0,0.0,0.0,0.0,0.0,0.0,0.0,0.0,0.0,0.0,0.0,0.0,2.1266,2.2167,2.2882,0.0,0.0,0.0,2.3503,2.3232,2.2882,2.2353,2.2176,0.0,0.0,0.0,0.0,0.0,0.0,0.0,0.0,1.5343,1.4286,1.3188,1.2035,0.0,0.0,0.0,0.0,0.0,0.7948,0.7768,0.7764,0.7852,0.8028,0.8201,0.8564,0.0,0.0,0.0,0.0,0.0,0.0,0.0,0.0,0.0,0.0,0.0,0.0,0.0,0.0,0.0,0.0,0.0,0.0,0.0,0.0,0.0,0.0,0.0,0.0,0.0,0.8597,0.8568,0.874,0.8748,0.8585,0.8414,0.8162,0.7901,0.7731,0.7315,0.6729,0.6495,0.6093,0.0,0.0,0.4711,0.4307,0.3919,0.3452,0.3062,0.2904,0.2668,0.2511,0.2511,0.2477,0.2342,0.0,0.0,0.0,0.0,0.0,0.0,0.0,0.0,0.0,0.0,0.0,0.0,0.0,0.0,0.0,0.0,0.0,0.0,0.0,0.0,0.0,0.0,0.0,0.0,0.0,0.0,0.0,0.0,0.0,1.9438,2.0175,2.1347,2.2167,2.2715,0.0,0.0,2.2882,2.2784,2.253,2.2185,0.0,0.0,0.0,0.0,0.0,0.0,0.0,0.0,0.0,0.0,1.4573,1.3471,1.2278,0.0,0.0,0.0,0.0,0.0,0.8204,0.8208,0.8212,0.8116,0.8113,0.8288,0.8564,0.0,0.0,0.0,0.0,0.0,0.0,0.0,0.0,0.0,0.0,0.0,0.0,0.0,0.0,0.0,0.0,0.0,0.0,0.0,0.0,0.0,0.0,0.0,0.0,0.0,0.8607,0.8591,0.8669,0.8666,0.8559,0.8457,0.8296,0.8146,0.7714,0.7384,0.7057,0.6583,0.6202,0.5883,0.0,0.4849,0.4543,0.4155,0.3686,0.3294,0.3061,0.2803,0.2611,0.2428,0.2303,0.2172,0.0,0.0,0.0,0.0,0.0,0.0,0.0,0.0,0.0,0.0,0.0,0.0,0.0,0.0,0.0,0.0,0.0,0.0,0.0,0.0,0.0,0.0,0.0,0.0,0.0,0.0,1.5032,1.617,1.7203,1.8326,1.9446,2.0447,2.1275,0.0,0.0,0.0,2.2264,2.2176,2.2097,2.1919,0.0,0.0,0.0,0.0,0.0,0.0,0.0,0.0,0.0,0.0,0.0,0.0,0.0,0.0,0.0,0.9813,0.9283,0.8907,0.838,0.8472,0.8564,0.838,0.0,0.838,0.8564,0.0,0.0,0.0,0.0,0.0,0.0,0.0,0.0,0.0,0.0,0.0,0.0,0.0,0.0,0.0,0.0,0.0,0.0,0.0,0.0,0.0,0.0,0.0,0.0,0.0,0.8504,0.8569,0.856,0.8638,0.8611,0.8542,0.8382,0.8286,0.7772,0.7446,0.7363,0.6695,0.6412,0.6261,0.5476,0.5007,0.4776,0.4311,0.3919,0.3524,0.3198,0.2914,0.2543,0.2335,0.2212,0.2031,0.0,0.0,0.0,0.0,0.0,0.0,0.0,0.0,0.0,0.0,0.0,0.0,0.0,0.0,0.0,0.0,0.0,0.0,0.0,0.0,0.0,0.0,0.0,0.0,0.0,1.2242,1.3494,1.4746,1.6075,1.7584,1.9188,1.9546,2.0184,2.1087,0.0,0.0,2.1741,2.1571,2.1482,2.1392,2.1186,0.0,0.0,0.0,0.0,0.0,0.0,0.0,0.0,0.0,0.0,0.0,0.0,0.0,1.1136,0.9744,0.927,0.9174,0.874,0.8568,0.8568,0.8568,0.8568,0.0,0.8568,0.8568,0.0,0.0,0.0,0.0,0.0,0.0,0.0,0.0,0.0,0.0,0.0,0.0,0.0,0.0,0.0,0.0,0.0,0.0,0.0,0.0,0.0,0.0,0.0,0.0,0.0,0.8296,0.8539,0.8693,0.8657,0.8718,0.848,0.8087,0.7909,0.759,0.72,0.6949,0.6637,0.6261,0.5792,0.5321,0.4927,0.454,0.4151,0.3754,0.3213,0.2692,0.2334,0.2202,0.2178,0.2096,0.0,0.0,0.0,0.0,0.0,0.0,0.0,0.0,0.0,0.0,0.0,0.0,0.0,0.0,0.0,0.0,0.0,0.0,0.0,0.0,0.0,0.0,0.0,0.5722,0.7518,0.9985,1.1848,1.3017,1.474,1.6271,1.7591,1.8149,0.0,0.0,0.0,0.0,2.0628,2.0654,2.0753,2.0663,2.0374,2.0192,0.0,0.0,0.0,0.0,0.0,0.0,0.0,0.0,1.4754,1.3614,0.0,0.0,1.087,0.9689,0.9262,0.9174,0.874,0.8568,0.8568,0.8568,0.8472,0.0,0.0,0.0,0.0,0.0,0.0,0.0,0.0,0.0,0.0,0.0,0.0,0.0,0.0,0.0,0.0,0.0,0.0,0.0,0.0,0.0,0.0,0.0,0.0,0.0,0.0,0.0,0.0,0.8341,0.8493,0.8559,0.8672,0.8672,0.8594,0.8285,0.7987,0.7727,0.7569,0.7257,0.6945,0.6637,0.6018,0.5553,0.5162,0.4618,0.4192,0.3817,0.3152,0.2655,0.2414,0.228,0.2188,0.2116,0.0,0.0,0.0,0.0,0.0,0.0,0.0,0.0,0.0,0.0,0.0,0.0,0.0,0.0,0.0,0.0,0.0,0.0,0.0,0.0,0.0,0.0,0.0,0.3825,0.4933,0.7515,0.9592,1.1165,1.3204,1.4841,1.5988,0.0,0.0,0.0,0.0,0.0,0.0,1.9629,1.9737,1.9837,1.9654,1.9471,0.0,0.0,0.0,0.0,0.0,0.0,0.0,0.0,0.0,0.0,0.0,0.0,0.0,0.0,0.9262,0.9174,0.874,0.8564,0.8472,0.0,0.0,0.0,0.0,0.0,0.0,0.0,0.0,0.0,0.0,0.0,0.0,0.0,0.0,0.0,0.0,0.0,0.0,0.0,0.0,0.0,0.0,0.0,0.0,0.0,0.0,0.0,0.0,0.0,0.0,0.0,0.8295,0.8462,0.8703,0.8703,0.8627,0.8475,0.8102,0.788,0.7804,0.7415,0.7099,0.6865,0.6251,0.5789,0.5318,0.4737,0.4105,0.3605,0.3054,0.2648,0.242,0.2237,0.2221,0.2154,0.0,0.0,0.0,0.0,0.0,0.0,0.0,0.0,0.0,0.0,0.0,0.0,0.0,0.0,0.0,0.0,0.0,0.0,0.0,0.0,0.0,0.0,0.0,0.252,0.3527,0.4933,0.6725,0.9197,1.1551,1.3403,1.4657,1.5121,0.0,0.0,0.0,0.0,0.0,0.0,1.8535,1.8735,1.8735,1.8635,1.8442,0.0,0.0,0.0,0.0,0.0,0.0,0.0,1.3933,0.0,0.0,0.0,0.0,0.0,0.9262,0.9174,0.874,0.8384,0.8201,0.0,0.0,0.0,0.0,0.0,0.0,0.0,0.0,0.0,0.0,0.0,0.0,0.0,0.0,0.0,0.0,0.0,0.0,0.0,0.0,0.0,0.0,0.0,0.0,0.0,0.0,0.0,0.0,0.0,0.0,0.0,0.8102,0.8331,0.8703,0.8703,0.8703,0.8703,0.8331,0.803,0.7804,0.7415,0.7099,0.6865,0.6486,0.6025,0.5547,0.4879,0.4031,0.3081,0.287,0.2617,0.2357,0.2221,0.2221,0.2154,0.0,0.0,0.0,0.0,0.0,0.0,0.0,0.0,0.0,0.0,0.0,0.0,0.0,0.0,0.0,0.0,0.0,0.0,0.0,0.0,0.0,0.0,0.0,0.0,0.0,0.0,0.6126,0.8916,1.0386,1.1653,0.0,0.0,0.0,1.5146,0.0,0.0,0.0,1.6943,1.7138,1.7239,1.7239,1.7239,1.7138,0.0,0.0,0.0,0.0,0.0,0.0,0.0,0.0,0.0,0.0,0.0,0.0,0.9538,0.9174,0.8911,0.8468,0.8288,0.0,0.0,0.0,0.0,0.0,0.0,0.0,0.0,0.0,0.0,0.0,0.0,0.0,0.0,0.0,0.0,0.0,0.0,0.0,0.0,0.0,0.0,0.0,0.0,0.0,0.0,0.0,0.0,0.0,0.0,0.0,0.0,0.8102,0.8331,0.8703,0.8703,0.8703,0.8703,0.8331,0.8102,0.803,0.7565,0.7253,0.6857,0.6439,0.6019,0.5475,0.452,0.3831,0.342,0.2946,0.2707,0.2554,0.2287,0.2087,0.1951,0.0,0.0,0.0,0.0,0.0,0.0,0.0,0.0,0.0,0.0,0.0,0.0,0.0,0.0,0.0,0.0,0.0,0.0,0.0,0.0,0.0,0.0,0.0,0.0,0.0,0.2819,0.4724,0.0,0.0,0.0,0.0,0.0,0.0,1.3221,0.0,1.4549,0.0,0.0,1.5724,1.5818,1.5913,1.6008,1.6008,0.0,0.0,0.0,0.0,0.0,0.0,0.0,0.0,0.0,0.0,0.0,0.0,0.9165,0.8907,0.8644,0.8201,0.0,0.0,0.0,0.0,0.0,0.0,0.0,0.0,0.0,0.0,0.0,0.0,0.0,0.0,0.0,0.0,0.0,0.0,0.0,0.0,0.0,0.0,0.0,0.0,0.0,0.0,0.0,0.0,0.0,0.0,0.0,0.0,0.0,0.8103,0.8289,0.8581,0.8496,0.8453,0.8453,0.8018,0.7873,0.7878,0.7497,0.7112,0.6663,0.612,0.5612,0.5189,0.4252,0.3753,0.3507,0.2907,0.2686,0.2686,0.2354,0.2087,0.1884,0.0,0.0,0.0,0.0,0.0,0.0,0.0,0.0,0.0,0.0,0.0,0.0,0.0,0.0,0.0,0.0,0.0,0.0,0.0,0.0,0.0,0.0,0.0,0.0,0.0,0.0,0.0,0.0,0.0,0.0,0.0,0.0,1.0583,1.137,0.0,1.2732,0.0,1.3806,1.419,1.4472,1.4765,1.486,1.4867,1.4592,0.0,0.0,0.0,0.0,0.0,0.0,0.0,0.0,1.0643,0.0,0.934,0.8723,0.8548,0.8464,0.8028,0.0,0.0,0.0,0.0,0.0,0.0,0.0,0.0,0.0,0.0,0.0,0.0,0.0,0.0,0.0,0.0,0.0,0.0,0.0,0.0,0.0,0.0,0.0,0.0,0.0,0.0,0.0,0.0,0.0,0.0,0.0,0.0,0.0,0.8114,0.8157,0.8373,0.8179,0.808,0.0,0.7664,0.7517,0.7504,0.7265,0.6883,0.6354,0.5568,0.5065,0.4737,0.4181,0.378,0.3496,0.2956,0.2753,0.2686,0.2354,0.2087,0.1817,0.0,0.0,0.0,0.0,0.0,0.0,0.0,0.0,0.0,0.0,0.0,0.0,0.0,0.0,0.0,0.0,0.0,0.0,0.0,0.0,0.0,0.0,0.0,0.0,0.0,0.0,0.0,0.0,0.0,0.0,0.0,0.0,0.0,0.9702,0.0,1.0979,1.1678,1.2058,1.2446,1.2948,1.2948,1.3141,1.3335,1.3244,1.3244,0.0,0.0,0.0,0.0,0.0,0.0,0.0,0.9922,0.9174,0.846,0.8285,0.8201,0.794,0.0,0.7507,0.0,0.0,0.0,0.0,0.0,0.0,0.0,0.0,0.0,0.0,0.0,0.0,0.0,0.0,0.0,0.0,0.0,0.0,0.0,0.0,0.0,0.0,0.0,0.0,0.0,0.0,0.0,0.0,0.0,0.0,0.0,0.8101,0.7975,0.7941,0.8151,0.8103,0.808,0.0,0.7664,0.7443,0.7367,0.7141,0.6773,0.6194,0.5703,0.5274,0.4739,0.4403,0.4051,0.3694,0.3293,0.2956,0.2686,0.2423,0.2085,0.1681,0.0,0.0,0.0,0.0,0.0,0.0,0.0,0.0,0.0,0.0,0.0,0.0,0.0,0.0,0.0,0.0,0.0,0.0,0.0,0.0,0.0,0.0,0.0,0.0,0.0,0.0,0.0,0.0,0.0,0.0,0.0,0.0,0.0,0.7925,0.0,0.9308,0.9706,1.0391,1.0783,1.1086,1.1389,1.1492,1.1683,1.178,1.178,1.1688,1.1683,0.0,0.0,0.0,0.0,0.0,0.0,0.0,0.7845,0.7584,0.7411,0.7323,0.0,0.0,0.0,0.0,0.0,0.0,0.0,0.0,0.0,0.0,0.0,0.0,0.0,0.0,0.0,0.0,0.0,0.0,0.0,0.0,0.0,0.0,0.0,0.0,0.0,0.0,0.0,0.0,0.0,0.0,0.0,0.7846,0.7816,0.7965,0.7835,0.7869,0.7938,0.7834,0.7782,0.7646,0.7382,0.7124,0.6894,0.672,0.6439,0.6022,0.5684,0.5235,0.4764,0.4434,0.4097,0.3758,0.336,0.3023,0.2686,0.249,0.2085,0.1614,0.0,0.0,0.0,0.0,0.0,0.0,0.0,0.0,0.0,0.0,0.0,0.0,0.0,0.0,0.0,0.0,0.0,0.0,0.0,0.0,0.0,0.0,0.0,0.0,0.0,0.0,0.0,0.0,0.0,0.0,0.0,0.0,0.0,0.6134,0.0,0.0,0.7822,0.8814,0.9213,0.941,0.9813,1.0113,1.0113,1.0408,1.031,1.0109,1.0271,0.9964,0.9531,0.9374,0.0,0.0,0.0,0.0,0.7136,0.67,0.6615,0.6526,0.0,0.0,0.0,0.0,0.0,0.0,0.0,0.0,0.0,0.0,0.0,0.0,0.0,0.0,0.0,0.0,0.0,0.0,0.0,0.0,0.0,0.0,0.0,0.0,0.0,0.0,0.0,0.0,0.0,0.0,0.7828,0.7785,0.7822,0.7822,0.7766,0.7725,0.7725,0.7612,0.7396,0.7204,0.6942,0.6683,0.642,0.628,0.6086,0.5888,0.5627,0.5229,0.4764,0.45,0.4164,0.3758,0.3426,0.3023,0.2686,0.2488,0.2085,0.1614,0.0,0.0,0.0,0.0,0.0,0.0,0.0,0.0,0.0,0.0,0.0,0.0,0.0,0.0,0.0,0.0,0.0,0.0,-0.6753,0.0,0.0,-0.514,-0.4736,0.0,0.0,0.0,0.0,0.0,0.0,0.0,0.0,0.0,0.0,0.473,0.0,0.0,0.0,0.7235,0.7829,0.8219,0.8528,0.8825,0.9023,0.9023,0.9023,0.9004,0.8661,0.8497,0.8343,0.7887,0.7492,0.0,0.0,0.0,0.6257,0.5899,0.5811,0.5811,0.0,0.0,0.0,0.0,0.0,0.0,0.0,0.0,0.0,0.0,0.0,0.0,0.0,0.0,0.0,0.0,0.0,0.0,0.0,0.0,0.0,0.0,0.0,0.0,0.0,0.0,0.0,0.0,0.0,0.0,0.8061,0.7864,0.782,0.782,0.7612,0.7564,0.7564,0.7536,0.7396,0.7204,0.6872,0.6613,0.642,0.635,0.6218,0.5888,0.5826,0.5425,0.4831,0.4764,0.4361,0.3825,0.3758,0.3288,0.2686,0.2686,0.2217,0.1614,0.0,0.0,0.0,0.0,0.0,0.0,0.0,0.0,0.0,0.0,0.0,0.0,0.0,0.0,0.0,-0.7018,-0.727,-0.7283,-0.7051,-0.6539,-0.6139,-0.5839,-0.5338,-0.4836,0.0,0.0,0.0,0.0,0.0,0.0,0.0,0.0504,0.1814,0.0,0.0,0.0,0.0,0.0,0.6134,0.6631,0.6936,0.7235,0.0,0.0,0.7579,0.7403,0.7346,0.7127,0.6882,0.6676,0.6494,0.6239,0.5735,0.0,0.0,0.0,0.0,0.0,0.0,0.0,0.0,0.0,0.0,0.0,0.0,0.0,0.0,0.0,0.0,0.0,0.0,0.0,0.0,0.0,0.0,0.0,0.0,0.0,0.0,0.0,0.0,0.0,0.0,0.0,0.0,0.0,0.0,0.8132,0.7924,0.7711,0.7598,0.7598,0.7574,0.7521,0.7521,0.7396,0.7199,0.6937,0.6675,0.6482,0.642,0.642,0.6222,0.5888,0.5888,0.5495,0.4831,0.4831,0.4428,0.3825,0.3825,0.3355,0.2686,0.2686,0.2261,0.1576,0.0,0.0,0.0,0.0,0.0,0.0,0.0,0.0,0.0,0.0,0.0,0.0,0.0,0.0,0.0,0.0,-0.7412,-0.7449,-0.7347,-0.6839,-0.6637,-0.6637,-0.5939,-0.5438,-0.5236,0.0,0.0,0.0,0.0,0.0,-0.1615,-0.1313,-0.0202,0.0,0.2318,0.0,0.0,0.0,0.0,0.0,0.0,0.0,0.0,0.0,0.0,0.0,0.6096,0.5868,0.5532,0.5504,0.5345,0.5186,0.4743,0.4565,0.0,0.0,0.0,0.0,0.0,0.0,0.0,0.0,0.0,0.0,0.0,0.0,0.0,0.0,0.0,0.0,0.0,0.0,0.0,0.0,0.0,0.0,0.0,0.0,0.0,0.0,0.0,0.0,0.0,0.0,0.0,0.0,0.0,0.7984,0.7779,0.7612,0.7526,0.7521,0.7521,0.7521,0.7521,0.7265,0.7007,0.6675,0.6482,0.642,0.642,0.642,0.6222,0.5888,0.5888,0.5495,0.4831,0.4831,0.4428,0.3825,0.3825,0.3355,0.2684,0.2666,0.2165,0.1545,0.0,0.0,0.0,0.0,0.0,0.0,0.0,0.0,0.0,0.0,0.0,0.0,0.0,-0.6931,-0.7308,-0.7734,-0.7928,-0.7849,-0.7547,-0.7341,-0.7138,-0.7138,-0.6637,0.0,-0.6337,0.0,0.0,0.0,0.0,0.0,-0.2725,-0.2422,-0.1716,-0.0606,0.0706,0.1714,0.2521,0.0,0.0,0.0,0.0,0.0,0.0,0.0,0.0,0.0,0.0,0.0,0.4514,0.4426,0.4212,0.3939,0.3764,0.3496,0.0,0.0,0.0,0.0,0.0,0.0,0.0,0.0,0.0,0.0,0.0,0.0,0.0,0.0,0.0,0.0,0.0,0.0,0.0,0.0,0.0,0.0,0.0,0.0,0.0,0.0,0.0,0.0,0.0,0.0,0.0,0.0,0.0,0.7899,0.769,0.7671,0.7661,0.7521,0.7521,0.7521,0.7521,0.7138,0.6811,0.6675,0.6482,0.642,0.642,0.642,0.6222,0.5888,0.5888,0.5495,0.4831,0.4831,0.4428,0.3825,0.3825,0.3355,0.2678,0.2479,0.2065,0.154,0.0,0.0,0.0,0.0,0.0,0.0,0.0,0.0,0.0,0.0,0.0,0.0,0.0,-0.7269,-0.7563,-0.7912,-0.8168,-0.8237,-0.8137,-0.7739,-0.7444,-0.7444,-0.7138,-0.6839,-0.6642,-0.6239,0.0,0.0,0.0,-0.4234,-0.353,-0.3128,-0.2522,-0.1817,-0.0606,0.0505,0.1414,0.1615,0.0,0.0,0.0,0.0,0.0,0.0,0.0,0.0,0.0,0.0,0.0,0.3413,0.3224,0.2956,0.278,0.0,0.0,0.0,0.0,0.0,0.0,0.0,0.0,0.0,0.0,0.0,0.0,0.0,0.0,0.0,0.0,0.0,0.0,0.0,0.0,0.0,0.0,0.0,0.0,0.0,0.0,0.0,0.0,0.0,0.0,0.0,0.0,0.0,0.0,0.0,0.7932,0.7797,0.7666,0.7661,0.7526,0.7396,0.7138,0.6946,0.6749,0.6482,0.6416,0.642,0.642,0.642,0.6222,0.5888,0.5888,0.5495,0.4831,0.4831,0.4428,0.3818,0.3687,0.327,0.261,0.2345,0.1919,0.1399,0.0,0.0,0.0,0.0,0.0,0.0,0.0,0.0,0.0,0.0,0.0,0.0,0.0,0.0,-0.7942,-0.8237,-0.8432,-0.8531,-0.8531,-0.8237,-0.7942,-0.7842,-0.764,-0.7341,-0.7045,-0.6839,0.0,0.0,0.0,0.0,0.0,-0.3932,-0.3429,-0.2925,-0.2019,-0.0909,0.0,0.0,0.0,0.1513,0.0,0.0,0.2255,0.0,0.0,0.0,0.0,0.0,0.0,0.0,0.0,0.0,0.0,0.0,0.0,0.0,0.0,0.0,0.0,0.0,0.0,0.0,0.0,0.0,0.0,0.0,0.0,0.0,0.0,0.0,0.0,0.0,0.0,0.0,0.0,0.0,0.0,0.0,0.0,0.0,0.0,0.0,0.0,0.0,0.0,0.0,0.0,0.0,0.8057,0.7917,0.7792,0.7731,0.7591,0.733,0.6881,0.6881,0.6749,0.642,0.642,0.642,0.642,0.642,0.6222,0.5885,0.5829,0.5446,0.4827,0.4779,0.4366,0.3699,0.3597,0.3111,0.2533,0.2211,0.1799,0.1354,0.0,0.0,0.0,0.0,0.0,0.0,0.0,0.0,0.0,0.0,0.0,0.0,0.0,0.0,0.0,-0.8825,-0.8825,-0.8825,-0.8825,-0.8825,-0.8726,-0.8432,-0.8137,-0.7942,-0.7646,-0.7341,0.0,0.0,0.0,0.0,0.0,0.0,-0.4533,0.0,-0.3432,-0.2322,-0.0909,0.0,-0.0404,0.0404,0.0,0.0898,0.1175,0.0,0.0,0.0,0.1355,0.1345,0.0,0.0,0.0,0.0,0.0,0.0,0.0,0.0,0.0,0.0,0.0,0.0,0.0,0.0,0.0,0.0,0.0,0.0,0.0,0.0,0.0,0.0,0.0,0.0,0.0,0.0,0.0,0.0,0.0,0.0,0.0,0.0,0.0,0.0,0.0,0.0,0.0,0.0,0.0,0.8236,0.8236,0.8172,0.8042,0.7731,0.7591,0.733,0.6881,0.6881,0.6749,0.642,0.642,0.642,0.642,0.6412,0.6214,0.5873,0.577,0.5338,0.4809,0.4675,0.4174,0.3594,0.3425,0.3015,0.2455,0.2021,0.1704,0.1289,0.0,0.0,0.0,0.0,0.0,0.0,0.0,0.0,0.0,0.0,0.0,0.0,0.0,0.0,0.0,-0.9133,-0.9133,-0.9133,-0.9133,-0.8928,-0.8726,-0.8726,-0.863,-0.8528,-0.8432,-0.8038,0.0,0.0,0.0,0.0,0.0,0.0,0.0,0.0,-0.4236,-0.3632,-0.2823,-0.2017,0.0,0.0,-0.0497,-0.0196,0.0,0.0,0.0,0.0,0.0,0.0359,0.0359,0.0,0.0179,-0.0179,0.0,0.0,0.0,0.0,0.0,0.0,-0.0599,0.0,0.0,0.0,0.0,0.0,0.0,0.0,0.0,0.0,0.0,0.0,0.0,0.0,0.0,0.0,0.0,0.0,0.0,0.0,0.0,0.0,0.0,0.0,0.0,0.0,0.0,0.0,0.8143,0.8236,0.8376,0.8182,0.7922,0.7731,0.7591,0.733,0.6881,0.6881,0.6749,0.642,0.642,0.642,0.6416,0.6278,0.6029,0.5762,0.5538,0.5119,0.4528,0.4491,0.4047,0.342,0.3255,0.2858,0.2376,0.1842,0.1536,0.125,0.0,0.0,0.0,0.0,0.0,0.0,0.0,0.0,0.0,0.0,0.0,0.0,0.0,0.0,0.0,-0.9723,-0.9723,-0.9723,-0.9723,-0.9521,-0.932,-0.9126,-0.9126,-0.9023,-0.8825,-0.8531,0.0,0.0,0.0,0.0,0.0,0.0,0.0,0.0,0.0,0.0,0.0,0.0,0.0,0.0,-0.1385,0.0,0.0,-0.0653,-0.0548,0.0,0.0,0.0,-0.0628,-0.0628,-0.0713,0.0,0.0,0.0,0.0,0.0,0.0,0.0,0.0,0.0,0.0,0.0,0.0,0.0,-0.1239,-0.107,0.0,0.0,0.0,0.0,0.0,0.0,0.0,0.0,0.0,0.0,0.0,0.0,0.0,0.0,0.0,0.0,0.0,0.0,0.0,0.7997,0.8107,0.8306,0.8517,0.8182,0.7922,0.7862,0.7591,0.733,0.6881,0.6881,0.6749,0.642,0.642,0.6379,0.6302,0.6129,0.5856,0.553,0.525,0.4819,0.4276,0.4163,0.3816,0.3313,0.3089,0.2707,0.2244,0.1752,0.1459,0.1234,0.0,0.0,0.0,0.0,0.0,0.0,0.0,0.0,0.0,0.0,0.0,0.0,0.0,0.0,0.0,0.0,0.0,-1.0511,-1.0413,-1.0413,0.0,-0.9727,-0.9727,-0.9426,-0.9023,-0.8924,0.0,0.0,0.0,0.0,0.0,0.0,0.0,0.0,0.0,0.0,0.0,0.0,0.0,-0.261,-0.2269,-0.1937,0.0,0.0,-0.155,0.0,-0.1525,-0.1525,-0.1524,-0.1521,-0.1672,0.0,0.0,0.0,0.0,0.0,-0.2587,0.0,0.0,0.0,0.0,0.0,0.0,0.0,-0.2512,-0.2285,-0.1949,0.0,0.0,0.0,0.0,0.0,0.0,0.0,0.0,0.0,0.0,0.0,0.0,0.0,0.0,0.0,0.0,0.7171,0.7591,0.7922,0.8107,0.8306,0.8517,0.8182,0.7987,0.7987,0.7657,0.733,0.6881,0.6881,0.6741,0.6388,0.6388,0.629,0.6116,0.5915,0.5636,0.5306,0.4848,0.4493,0.4137,0.3739,0.3475,0.3263,0.2941,0.2573,0.2128,0.174,0.1459,0.1234,-0.7839,0.0,0.0,0.0,0.0,0.0,0.0,0.0,0.0,0.0,0.0,0.0,0.0,0.0,0.0,0.0,0.0,0.0,0.0,-1.0703,-1.0609,-1.0216,-1.0216,-1.0216,-1.0113,-0.9624,0.0,0.0,0.0,0.0,0.0,0.0,0.0,0.0,0.0,0.0,0.0,0.0,0.0,-0.4234,-0.3479,0.0,-0.2467,-0.2289,-0.2252,-0.2244,-0.2244,-0.2422,-0.2592,0.0,-0.2557,-0.2635,0.0,0.0,0.0,0.0,0.0,0.0,0.0,0.0,0.0,0.0,0.0,0.0,-0.3384,-0.331,-0.3145,0.0,0.0,0.0,0.0,0.0,0.0,0.0,0.0,0.0,0.0,0.0,0.0,0.0,0.0,0.0,0.0,0.6626,0.7064,0.7591,0.7977,0.8306,0.8517,0.8182,0.7987,0.7987,0.7657,0.733,0.6881,0.6881,0.6672,0.626,0.626,0.6107,0.5803,0.5612,0.535,0.5071,0.4685,0.434,0.4005,0.3702,0.3426,0.3102,0.2751,0.2408,0.2128,0.157,0.1347,0.1234,-0.8832,0.0,0.0,0.0,0.0,0.0,0.0,0.0,0.0,0.0,0.0,0.0,0.0,0.0,0.0,0.0,0.0,0.0,0.0,0.0,-1.1292,-1.0998,-1.09,-1.0708,-1.0609,-1.0216,0.0,0.0,0.0,0.0,0.0,0.0,0.0,0.0,0.0,0.0,0.0,0.0,-0.5534,-0.5185,-0.4223,0.0,-0.3181,-0.3087,-0.3051,-0.3051,-0.3051,-0.3207,-0.3337,-0.3316,-0.3313,0.0,0.0,-0.3486,-0.3608,0.0,-0.3995,-0.4073,0.0,0.0,0.0,-0.4463,0.0,0.0,0.0,-0.4327,-0.4182,-0.3804,0.0,0.0,0.0,0.0,0.0,0.0,0.0,0.0,0.0,0.0,0.0,0.0,0.0,0.0,0.0,0.6145,0.6736,0.7456,0.7852,0.8112,0.8252,0.7987,0.7857,0.7857,0.7591,0.733,0.6881,0.685,0.6621,0.6207,0.6055,0.5799,0.5514,0.5308,0.5048,0.4738,0.4383,0.4079,0.3802,0.3469,0.319,0.2854,0.2633,0.2298,0.1962,0.1458,0.1234,0.1122,-1.0019,0.0,0.0,0.0,0.0,0.0,0.0,0.0,0.0,0.0,0.0,0.0,0.0,0.0,0.0,0.0,0.0,0.0,0.0,0.0,0.0,0.0,-1.1585,-1.1292,-1.0998,-1.0703,-1.0507,0.0,0.0,0.0,0.0,0.0,0.0,0.0,0.0,0.0,0.0,0.0,0.0,-0.5896,0.0,-0.4315,-0.3876,-0.3796,-0.3855,-0.3853,-0.3838,-0.3858,-0.401,-0.403,0.0,-0.4099,-0.4021,-0.4153,0.0,0.0,0.0,0.0,0.0,0.0,0.0,0.0,0.0,-0.5308,0.0,0.0,0.0,-0.4768,0.0,0.0,0.0,0.0,0.0,0.0,0.0,0.0,0.0,0.0,0.0,0.0,0.0,0.0,0.0,0.5749,0.6474,0.733,0.7722,0.7922,0.7922,0.7792,0.7731,0.7731,0.7526,0.7265,0.6881,0.6753,0.6446,0.6091,0.5791,0.5502,0.5285,0.4987,0.4745,0.4408,0.4079,0.3802,0.3583,0.3188,0.2854,0.2635,0.2521,0.2188,0.1741,0.1403,0.1178,0.101,-1.1194,-1.1002,0.0,0.0,0.0,0.0,0.0,0.0,0.0,0.0,0.0,0.0,0.0,0.0,0.0,0.0,0.0,0.0,-1.2953,0.0,0.0,0.0,0.0,0.0,-1.1878,-1.1389,-1.1096,0.0,0.0,0.0,0.0,0.0,0.0,0.0,-0.8634,0.0,0.0,0.0,-0.6905,0.0,-0.6118,-0.546,0.0,-0.4608,-0.4572,-0.4561,-0.4651,-0.4667,-0.4661,0.0,-0.48,-0.4865,0.0,-0.4849,0.0,0.0,0.0,0.0,0.0,0.0,0.0,0.0,-0.6099,0.0,0.0,0.0,-0.5973,-0.5572,0.0,0.0,0.0,0.0,0.0,0.0,0.0,0.0,0.0,0.0,0.0,0.0,0.0,0.0,0.0,0.0,0.6342,0.6942,0.733,0.7591,0.7731,0.7731,0.7731,0.7731,0.74,0.7138,0.6881,0.6561,0.6195,0.5726,0.5557,0.5213,0.4772,0.4601,0.4425,0.4193,0.3805,0.3638,0.3583,0.297,0.2633,0.2521,0.2296,0.2074,0.1741,0.1403,0.1122,0.0898,-1.2242,-1.2175,0.0,0.0,0.0,0.0,0.0,0.0,0.0,0.0,0.0,0.0,0.0,0.0,0.0,0.0,0.0,-1.3919,0.0,0.0,0.0,0.0,0.0,0.0,-1.2467,-1.2078,-1.178,-1.1683,-1.1292,0.0,0.0,0.0,0.0,0.0,-0.9217,0.0,-0.8475,0.0,0.0,0.0,0.0,0.0,0.0,-0.5476,-0.524,-0.5175,-0.5315,-0.525,-0.5261,0.0,-0.5442,0.0,0.0,0.0,0.0,0.0,0.0,0.0,0.0,0.0,0.0,0.0,0.0,0.0,0.0,0.0,-0.6861,0.0,0.0,0.0,0.0,0.0,0.0,0.0,0.0,0.0,0.0,0.0,0.0,0.0,0.0,0.0,0.0,0.0,0.0,0.0,0.0,0.7068,0.7209,0.7209,0.7209,0.7209,0.7073,0.6894,0.6587,0.6279,0.5908,0.5553,0.5152,0.4867,0.4574,0.4411,0.4135,0.386,0.3697,0.3416,0.3081,0.2802,0.2467,0.2076,0.202,0.1796,0.1459,0.129,0.101,0.0729,-1.3294,0.0,0.0,0.0,0.0,0.0,0.0,0.0,0.0,0.0,0.0,0.0,-1.4286,-1.4484,0.0,0.0,0.0,-1.4682,0.0,0.0,-1.4292,0.0,0.0,0.0,0.0,0.0,-1.2436,-1.2083,0.0,0.0,0.0,0.0,0.0,0.0,0.0,-0.9349,-0.9001,0.0,0.0,-0.7833,-0.7279,-0.7034,-0.691,-0.6201,-0.586,-0.5738,-0.5856,-0.5891,-0.5842,-0.6054,-0.6173,0.0,-0.6402,0.0,0.0,0.0,0.0,0.0,-0.7411,0.0,0.0,0.0,0.0,0.0,0.0,0.0,0.0,0.0,0.0,0.0,0.0,0.0,0.0,0.0,0.0,0.0,0.0,0.0,0.0,0.0,0.0,0.0,0.0,0.0,0.0,0.0,0.621,0.6548,0.6749,0.6815,0.6881,0.6881,0.6881,0.6655,0.6341,0.6035,0.562,0.5216,0.4818,0.4522,0.4353,0.4138,0.386,0.3583,0.3416,0.3081,0.2691,0.2523,0.2189,0.1797,0.1628,0.1403,0.1178,0.1066,0.0842,0.0561,-1.4185,-1.3772,0.0,0.0,0.0,0.0,0.0,0.0,0.0,0.0,0.0,0.0,0.0,0.0,0.0,0.0,0.0,-1.5635,-1.5343,0.0,-1.5153,0.0,0.0,-1.41,0.0,0.0,0.0,0.0,0.0,0.0,0.0,0.0,0.0,0.0,0.0,-0.9732,-0.9199,-0.8915,-0.8539,-0.8208,-0.7944,-0.7755,-0.7521,0.0,-0.6408,-0.6261,-0.6367,0.0,0.0,-0.6563,-0.6872,0.0,0.0,0.0,0.0,0.0,0.0,0.0,0.0,0.0,0.0,-0.8627,0.0,0.0,0.0,0.0,-0.8495,0.0,0.0,0.0,0.0,0.0,0.0,0.0,0.0,0.0,0.0,0.0,0.0,0.0,0.0,0.0,0.0,0.0,0.0,0.5087,0.562,0.609,0.642,0.6613,0.6745,0.6881,0.6745,0.6521,0.6211,0.5847,0.5374,0.4749,0.4594,0.4353,0.4024,0.3749,0.3585,0.3583,0.297,0.2691,0.2635,0.2077,0.1797,0.1741,0.1178,0.0898,0.0898,0.0898,0.0673,0.0393,0.0,0.0,0.0,0.0,0.0,0.0,0.0,-1.4968,0.0,0.0,0.0,0.0,0.0,0.0,-1.6298,0.0,0.0,-1.64,-1.6494,-1.6103,0.0,0.0,0.0,-1.4779,0.0,0.0,0.0,0.0,0.0,0.0,0.0,0.0,0.0,0.0,0.0,-1.0243,0.0,0.0,0.0,0.0,0.0,-0.8255,-0.7944,0.0,0.0,-0.702,-0.7046,-0.7081,0.0,-0.7326,-0.748,-0.7633,-0.7944,-0.8021,-0.8097,-0.8246,-0.847,0.0,0.0,0.0,-0.9013,-0.9241,0.0,0.0,0.0,0.0,0.0,0.0,0.0,0.0,0.0,0.0,0.0,0.0,0.0,0.0,0.0,0.0,0.0,0.0,0.0,0.0,0.0,0.0,0.0,0.4359,0.4894,0.5359,0.0,0.5885,0.6083,0.6218,0.6104,0.5899,0.567,0.5258,0.4865,0.4538,0.4209,0.391,0.3749,0.3527,0.3302,0.297,0.2802,0.2467,0.2077,0.1909,0.1572,0.1178,0.0954,0.0729,0.0449,0.0561,0.0393,0.0056,-1.4177,0.0,0.0,0.0,0.0,0.0,0.0,0.0,0.0,0.0,-1.6197,0.0,-1.6567,0.0,-1.7059,0.0,-1.7246,-1.7153,-1.7254,-1.6958,0.0,-1.6211,-1.5819,0.0,0.0,0.0,0.0,0.0,0.0,-1.2597,0.0,0.0,0.0,0.0,0.0,0.0,0.0,0.0,-0.9777,0.0,0.0,-0.88,0.0,0.0,-0.7865,-0.7656,0.0,-0.7811,-0.7868,-0.8089,-0.8165,-0.8241,-0.8546,-0.8632,-0.8784,-0.8932,-0.9084,-0.9231,-0.9382,-0.9539,0.0,-0.9846,-0.9857,0.0,-0.9942,0.0,0.0,0.0,0.0,0.0,0.0,0.0,0.0,0.0,0.0,0.0,0.0,-0.3889,0.0,0.0,0.0,0.0,0.0,0.0,0.2889,0.3491,0.4025,0.4561,0.0,0.0,0.5422,0.5693,0.5599,0.5377,0.5161,0.4762,0.4441,0.4187,0.3799,0.3577,0.3357,0.319,0.2912,0.2521,0.2411,0.2132,0.1741,0.1572,0.1234,0.0898,0.0673,0.0393,0.0112,0.0224,0.0,-0.0393,0.0,0.0,0.0,0.0,-1.5337,0.0,0.0,0.0,-1.6588,0.0,-1.6878,-1.716,-1.7333,-1.7621,-1.7815,-1.8087,-1.8179,0.0,-1.7721,-1.7721,0.0,0.0,-1.6472,-1.5922,-1.5443,0.0,0.0,0.0,0.0,0.0,0.0,0.0,0.0,0.0,-1.1413,0.0,-1.0982,-1.0554,-1.0376,-1.026,-0.9785,-0.9379,-0.9025,-0.9011,-0.8607,-0.8107,-0.8317,-0.8403,-0.8479,-0.8703,-0.8851,-0.8998,-0.9079,-0.916,-0.9397,-0.962,-0.9625,-0.9695,-1.0143,-1.0218,-1.0288,-1.0501,0.0,0.0,0.0,0.0,-0.9621,0.0,0.0,0.0,0.0,0.0,0.0,0.0,0.0,0.0,0.0,0.0,0.0,0.0,0.0,0.0,0.0,0.1143,0.1814,0.2552,0.3153,0.0,0.0,0.0,0.4897,0.5296,0.5206,0.4991,0.4671,0.4398,0.4032,0.3583,0.3413,0.3188,0.285,0.2745,0.2465,0.2128,0.1908,0.1685,0.1515,0.1066,0.0842,0.0785,0.0224,-0.0056,-0.0056,-0.0056,-0.0393,-0.0954,-1.4734,-1.4986,-1.5234,0.0,-1.5762,-1.613,0.0,0.0,0.0,0.0,-1.752,-1.79,-1.8164,-1.8265,-1.845,-1.8912,-1.8735,0.0,0.0,0.0,0.0,-1.718,-1.6901,-1.6271,-1.5455,-1.4838,0.0,-1.394,0.0,0.0,-1.2619,0.0,0.0,0.0,0.0,0.0,-1.1499,-1.1413,-1.1059,-1.0447,-0.9811,-0.9513,0.0,0.0,-0.9326,-0.9163,-0.8946,-0.8932,-0.9094,-0.9316,-0.9392,-0.9463,-0.9765,-0.9916,-0.9992,-1.0218,-1.0293,-1.0293,-1.0588,-1.0663,-1.0691,-1.0797,-1.084,-1.0742,0.0,0.0,0.0,0.0,0.0,0.0,0.0,0.0,0.0,0.0,0.0,0.0,0.0,0.0,0.0,-0.4087,0.0,0.0,-0.0403,0.0403,0.1008,0.1613,0.2283,0.0,0.0,0.0,0.0,0.4361,0.4278,0.4212,0.4119,0.3787,0.3495,0.3244,0.2968,0.2687,0.235,0.2238,0.2017,0.174,0.1515,0.1291,0.1066,0.0673,0.0393,0.0168,-0.0168,-0.0561,-0.0954,-0.0729,-0.0898,-0.1234,-1.5151,0.0,0.0,-1.5842,0.0,0.0,-1.6886,0.0,0.0,-1.7792,-1.8172,0.0,-1.8819,-1.892,-1.9104,-1.9387,-1.9204,0.0,0.0,0.0,0.0,-1.7474,-1.7232,-1.6615,-1.5727,-1.5155,0.0,-1.4243,0.0,0.0,-1.3137,0.0,0.0,0.0,0.0,-1.2198,0.0,-1.173,-1.1316,-1.0735,-1.0306,0.0,0.0,-0.997,-0.9992,-0.9992,-0.9836,-0.976,-0.9695,-0.9916,-0.9992,-1.0067,-1.0368,-1.0438,-1.0513,-1.0812,-1.0887,-1.0962,-1.1111,-1.1186,-1.1199,-1.1147,-1.1062,-1.0899,-1.0691,-1.0346,-1.0086,0.0,0.0,0.0,0.0,0.0,0.0,0.0,0.0,0.0,0.0,0.0,0.0,0.0,0.0,0.0,-0.208,-0.0873,0.0067,0.0672,0.0,0.0,0.0,0.0,0.0,0.3558,0.3554,0.3505,0.3505,0.318,0.291,0.2685,0.2519,0.2186,0.1793,0.1737,0.1513,0.1178,0.101,0.0785,0.0561,0.0224,-0.0056,-0.0224,-0.0617,-0.1177,-0.1682,-0.1513,-0.1569,-0.1738,0.0,0.0,0.0,0.0,0.0,0.0,0.0,-1.784,0.0,-1.8542,0.0,-1.9012,-1.9279,-1.9479,-1.9654,-1.9604,0.0,-1.9447,-1.8977,-1.8952,-1.8611,-1.7739,-1.7437,-1.6908,-1.5989,-1.5624,0.0,0.0,0.0,0.0,0.0,0.0,0.0,0.0,0.0,0.0,0.0,-1.1821,-1.1381,0.0,-1.0873,-1.0724,-1.0519,-1.0594,-1.0588,-1.0663,-1.0887,-1.0663,-1.0293,-1.0519,-1.0588,-1.0663,-1.0887,-1.0887,-1.0962,-1.1335,-1.1409,-1.1484,-1.1706,-1.1755,-1.1659,-1.1455,-1.1172,-1.0889,-1.0599,-1.0283,-1.011,-1.011,-1.011,-1.0047,0.0,0.0,0.0,0.0,0.0,0.0,0.0,0.0,0.0,0.0,0.0,0.0,0.0,-0.2348,0.0,0.0,0.0,0.0,0.0,0.0,0.0,0.2822,0.2795,0.0,0.2893,0.0,0.2296,0.2073,0.1959,0.1624,0.1178,0.1178,0.0954,0.0617,0.0393,0.0224,0.0112,-0.0336,-0.0561,-0.0673,-0.1234,-0.1737,-0.2296,-0.2296,-0.2352,-0.2408,0.0,0.0,0.0,0.0,0.0,-1.7329,-1.7554,-1.819,-1.8727,-1.9004,-1.9296,-1.9579,-1.9745,-1.9837,-1.9819,-1.9694,-1.966,0.0,0.0,0.0,0.0,-1.7883,-1.748,-1.7051,-1.6578,-1.5756,-1.5311,0.0,0.0,0.0,0.0,0.0,0.0,0.0,0.0,0.0,-1.2444,-1.1775,0.0,-1.1355,-1.0825,-1.0628,-1.0738,-1.0962,-1.1111,-1.126,-1.1484,-1.1186,-1.0738,-1.1111,-1.126,-1.126,-1.1484,-1.1558,-1.1558,-1.1632,-1.1632,-1.1706,-1.2077,-1.1979,-1.1799,-1.1854,-1.162,-1.1317,-1.1015,-1.0975,-1.0933,-1.0933,-1.0807,-1.0618,-1.0498,0.0,0.0,0.0,0.0,0.0,0.0,0.0,0.0,0.0,0.0,0.0,0.0,0.0,0.0,0.0,0.0,0.0,0.0,0.0,0.0,0.0,0.0,0.0,0.0,0.0,0.168,0.1458,0.1346,0.1009,0.0561,0.0561,0.0393,0.0112,-0.0168,-0.028,-0.0336,-0.0898,-0.1345,-0.1736,-0.1961,-0.2296,-0.2633,-0.2854,-0.3132,-0.3304,0.0,0.0,0.0,0.0,0.0,0.0,0.0,-1.8559,0.0,-1.9001,-1.9179,-1.9445,-1.9701,-1.9798,-1.9817,-1.9722,-1.9791,-1.954,-1.9065,-1.887,-1.854,-1.8002,-1.7656,0.0,-1.6738,-1.6319,-1.5816,-1.5394,0.0,0.0,0.0,0.0,0.0,0.0,0.0,-1.2609,0.0,0.0,0.0,-1.1601,-1.1241,-1.1186,-1.126,-1.1335,-1.1484,-1.1632,-1.1929,-1.1855,-1.1558,-1.1558,-1.1632,-1.1781,-1.1929,-1.2077,-1.2157,-1.2298,-1.2298,-1.2345,-1.2335,-1.2257,-1.2038,-1.1789,-1.1626,-1.1437,-1.1129,-1.1122,-1.1122,-1.1122,-1.0996,-1.087,-1.0744,-1.0434,0.0,0.0,0.0,0.0,0.0,0.0,0.0,0.0,0.0,0.0,0.0,0.0,0.0,0.0,0.0,0.0,0.0,0.0,0.0,0.0,0.0,0.0,0.0,0.0,0.0,0.0729,0.0673,0.0393,0.0,0.0,-0.0168,-0.0505,-0.0729,-0.0842,-0.0898,-0.1513,-0.2015,-0.246,-0.2629,-0.2854,-0.3193,-0.3466,-0.3799,-0.4024,0.0,-1.6656,0.0,0.0,-1.7383,0.0,-1.8237,-1.865,-1.8973,-1.8981,-1.9162,-1.9333,-1.9504,-1.9683,-1.9742,-1.9653,-1.9645,-1.9477,-1.9162,-1.898,-1.8594,-1.8129,-1.787,-1.7456,-1.6902,-1.6738,-1.6281,0.0,0.0,0.0,0.0,0.0,0.0,0.0,0.0,0.0,0.0,0.0,-1.1998,-1.1781,-1.1706,-1.1706,-1.1781,-1.1781,-1.1855,-1.1929,-1.2305,-1.2452,-1.2378,-1.2077,-1.2077,-1.2231,-1.2378,-1.2526,-1.2673,-1.2826,-1.2851,-1.2818,-1.2572,-1.241,-1.2253,-1.1831,-1.166,-1.1546,-1.1367,-1.131,-1.131,-1.131,-1.1247,-1.1185,-1.0989,-1.087,0.0,0.0,0.0,0.0,0.0,0.0,0.0,0.0,0.0,0.0,0.0,0.0,0.0,0.0,0.0,0.0,0.0,0.0,0.0,0.0,0.0,0.0186,0.0309,0.0,0.0113,0.0,-0.0056,-0.028,-0.0617,-0.0617,-0.0841,-0.1121,-0.1402,-0.157,-0.1737,-0.2184,-0.2629,-0.3074,-0.3241,-0.3469,-0.3749,-0.4079,-0.4349,-0.457,0.0,0.0,0.0,0.0,0.0,0.0,0.0,-1.8279,-1.8711,-1.9323,-1.9589,-1.9768,-1.9768,-1.9768,-1.9627,-1.9256,-1.9221,-1.9144,-1.8771,-1.8754,-1.8647,-1.8362,-1.8112,-1.7797,-1.731,-1.6902,-1.6335,0.0,0.0,0.0,0.0,0.0,0.0,0.0,0.0,0.0,0.0,-1.2123,-1.1955,-1.1929,-1.1781,-1.1781,-1.2003,-1.215,-1.2378,-1.2526,-1.2753,-1.2826,-1.29,-1.3046,-1.2973,-1.2826,-1.2826,-1.2893,-1.29,-1.29,-1.2841,-1.2756,-1.2875,-1.257,-1.2232,-1.2375,-1.2198,-1.2034,-1.2003,-1.2003,-1.2003,-1.2003,-1.1872,-1.1685,-1.156,-1.1373,-1.1115,0.0,0.0,0.0,0.0,0.0,0.0,0.0,0.0,0.0,0.0,0.0,0.0,0.0,0.0,0.0,0.0,0.0,0.0,-0.1008,0.0,-0.076,-0.0432,-0.0597,0.0,-0.0617,-0.0842,-0.1066,-0.1234,-0.14,-0.1623,-0.1903,-0.2071,-0.2406,-0.2963,-0.3019,-0.3244,-0.3583,-0.3802,-0.391,-0.4021,-0.4625,-0.4842,-0.4901,0.0,0.0,0.0,0.0,0.0,0.0,0.0,-1.8523,-1.887,-1.9181,-1.9235,-1.9317,-1.9317,-1.9389,-1.9399,-1.9236,-1.9218,-1.9236,-1.9091,-1.8922,-1.8656,-1.8258,-1.8022,-1.7595,-1.6896,-1.6583,-1.6204,0.0,0.0,0.0,0.0,0.0,0.0,0.0,0.0,-1.256,-1.2298,-1.2224,-1.2231,-1.2378,-1.2305,-1.2378,-1.2526,-1.2599,-1.2673,-1.2826,-1.3119,-1.3273,-1.3346,-1.363,-1.3557,-1.3273,-1.3419,-1.3484,-1.3622,-1.3622,-1.3393,-1.3175,-1.305,-1.2721,-1.2372,-1.2373,-1.2282,-1.2243,-1.2305,-1.2367,-1.2367,-1.2367,-1.2236,-1.2058,-1.1934,-1.1747,-1.1553,0.0,0.0,0.0,0.0,0.0,0.0,0.0,0.0,0.0,0.0,0.0,0.0,0.0,0.0,0.0,0.0,0.0,0.0,-0.2284,0.0,-0.1779,-0.1543,-0.1614,-0.1563,-0.1456,-0.1681,-0.1849,-0.2018,-0.2128,-0.235,-0.2685,-0.2854,-0.3132,-0.3519,-0.3633,-0.3747,-0.3971,-0.4408,-0.4515,-0.4625,-0.512,-0.5395,-0.5504,-1.7806,0.0,-1.7942,0.0,-1.8273,-1.8523,-1.8603,-1.8843,-1.9002,-1.9073,-1.8973,-1.8946,-1.9063,-1.9222,-1.9301,-1.9301,-1.9191,-1.9127,-1.9127,-1.887,-1.8524,-1.8006,-1.7852,0.0,-1.6683,-1.6463,-1.6032,-1.547,-1.5157,0.0,0.0,0.0,0.0,0.0,-1.2673,-1.2599,-1.2452,-1.2452,-1.2526,-1.2673,-1.2673,-1.2746,-1.29,-1.3046,-1.3046,-1.3119,-1.3564,-1.371,-1.3783,-1.4137,-1.4065,-1.3928,-1.3863,-1.4,-1.4186,-1.4014,-1.3816,-1.3553,-1.322,-1.2936,-1.2601,-1.2553,-1.249,-1.2552,-1.2613,-1.2674,-1.2674,-1.2674,-1.2552,-1.249,-1.2313,-1.2182,-1.1996,-1.1809,0.0,0.0,0.0,0.0,0.0,0.0,0.0,-0.9145,-0.8748,0.0,0.0,0.0,0.0,0.0,0.0,0.0,0.0,0.0,0.0,0.0,0.0,-0.2531,-0.245,-0.235,-0.2462,-0.2631,-0.2745,-0.291,-0.313,-0.3461,-0.3633,-0.3855,-0.4076,-0.4187,-0.4353,-0.4522,-0.4959,-0.512,-0.523,-0.5618,-0.5891,-0.6105,-1.862,-1.8531,-1.8442,-1.862,-1.87,-1.8772,-1.8922,-1.9002,-1.9073,-1.9301,-1.8962,-1.8861,-1.9256,-1.9301,-1.9301,-1.9301,-1.8944,-1.8715,-1.8715,-1.8357,-1.8053,0.0,0.0,-1.7304,-1.6918,-1.6471,-1.5918,-1.5189,0.0,0.0,-1.3805,0.0,-1.3127,-1.29,-1.29,-1.29,-1.29,-1.29,-1.29,-1.29,-1.29,-1.29,-1.2973,-1.3346,-1.3492,-1.3564,-1.392,-1.4209,-1.4425,-1.4569,-1.4721,-1.4792,-1.4274,-1.4209,-1.4291,-1.3894,-1.381,-1.3711,-1.3381,-1.3143,-1.2989,-1.2989,-1.2981,-1.2981,-1.2981,-1.2981,-1.2981,-1.2981,-1.2981,-1.292,-1.2805,-1.2683,-1.2498,-1.2305,0.0,0.0,0.0,0.0,0.0,0.0,-1.0238,-0.9792,-0.9338,0.0,0.0,0.0,0.0,0.0,0.0,0.0,0.0,-0.4287,-0.4092,0.0,-0.3378,-0.3376,-0.3273,-0.3074,-0.3299,-0.3413,-0.3413,-0.3799,-0.4073,-0.4177,-0.4405,-0.4574,-0.4691,-0.4846,-0.4956,-0.5128,-0.5458,-0.5673,-0.5828,-0.6114,-0.6386,-0.6701,-1.8647,-1.8391,-1.8205,-1.8284,-1.8217,-1.8114,-1.8181,-1.8267,-1.8428,-1.8504,-1.8394,-1.8357,-1.8485,-1.8495,-1.8495,0.0,-1.8385,-1.8311,0.0,-1.8192,-1.7926,-1.7424,-1.726,-1.6925,-1.6364,-1.5931,-1.5574,-1.517,0.0,0.0,0.0,-1.3645,-1.3419,-1.3119,-1.3119,-1.3046,-1.29,-1.29,-1.2973,-1.3119,-1.3273,-1.3419,-1.3564,-1.3775,-1.3992,-1.4137,-1.4353,-1.4569,-1.4792,-1.4919,-1.5141,-1.5251,-1.4792,-1.4649,-1.4555,-1.4449,-1.4038,-1.3654,-1.3548,-1.3376,-1.3216,-1.3338,-1.3459,-1.3588,-1.3649,-1.3709,-1.3649,-1.3588,-1.3528,-1.3467,-1.3216,-1.3094,-1.2972,-1.2674,-1.2498,0.0,0.0,0.0,0.0,0.0,0.0,-1.0555,0.0,-0.9792,0.0,0.0,0.0,0.0,0.0,0.0,0.0,0.0,-0.5024,0.0,-0.4302,-0.4235,-0.4107,-0.3846,-0.4073,-0.4187,-0.4301,-0.4629,-0.4794,-0.4846,-0.4952,-0.5062,-0.512,-0.5391,-0.5555,-0.5614,-0.6,-0.6268,-0.6431,-0.6603,-0.6879,-0.7149,-1.8437,-1.8199,-1.802,-1.8105,-1.7974,-1.7886,-1.7886,-1.8044,-1.8128,-1.8128,-1.799,-1.7889,-1.7889,-1.7752,0.0,-1.81,-1.7981,-1.7889,-1.7889,-1.7752,-1.7478,-1.708,-1.692,-1.6661,-1.6211,0.0,0.0,-1.5275,-1.4856,-1.4425,-1.4008,-1.3928,-1.3783,-1.3557,-1.3557,-1.3477,-1.3331,-1.3331,-1.3404,-1.3557,-1.3702,-1.3855,-1.4008,-1.4209,-1.4425,-1.4649,-1.4856,-1.5078,-1.53,-1.5488,-1.5536,-1.5523,-1.5292,-1.4967,-1.4679,-1.4547,-1.4275,-1.3933,-1.3789,-1.3638,-1.358,-1.37,-1.3761,-1.389,-1.401,-1.401,-1.401,-1.389,-1.389,-1.383,-1.358,-1.3519,-1.339,-1.3103,-1.2981,-1.2797,-1.249,0.0,0.0,0.0,0.0,0.0,0.0,-1.0428,0.0,0.0,0.0,0.0,0.0,0.0,0.0,-0.621,-0.6017,0.0,-0.5363,-0.5182,-0.4963,-0.4766,-0.4875,-0.5014,-0.5183,-0.5344,-0.5454,-0.5504,-0.5609,-0.566,-0.566,-0.5991,-0.6154,-0.6154,-0.6539,-0.6761,-0.6928,-0.709,-0.7311,-0.7526,-1.8044,-1.7942,0.0,0.0,-1.8054,0.0,-1.8036,-1.8036,-1.8036,-1.8036,-1.7697,-1.7449,-1.7449,-1.7128,-1.7211,-1.7972,0.0,0.0,0.0,-1.711,-1.6908,-1.6908,-1.6682,-1.6542,-1.6272,-1.6008,-1.5726,-1.5505,-1.4927,-1.4569,-1.4425,-1.4209,-1.4129,-1.4129,-1.4129,-1.4129,-1.4129,-1.4129,-1.4129,-1.4129,-1.4129,-1.4281,-1.4433,-1.4569,-1.4792,-1.5015,-1.5434,-1.563,-1.5833,-1.6026,-1.5894,-1.5695,-1.5668,-1.5171,-1.4613,-1.4416,-1.4399,-1.4489,-1.4107,-1.401,-1.401,-1.401,-1.407,-1.407,-1.407,-1.407,-1.407,-1.407,-1.407,-1.407,-1.401,-1.395,-1.3769,-1.3571,-1.339,-1.3208,-1.2867,0.0,0.0,0.0,0.0,0.0,0.0,-1.0996,-1.0618,0.0,0.0,0.0,0.0,0.0,-0.7521,-0.7269,-0.6937,-0.6711,-0.658,-0.6214,-0.5909,-0.5764,-0.5703,-0.5841,-0.6059,-0.6055,-0.6164,-0.6263,-0.6263,-0.6263,-0.6317,-0.6647,-0.6756,-0.681,-0.7031,-0.7252,-0.7365,-0.7521,-0.7735,-0.7955,0.0,0.0,-1.7569,-1.7642,-1.7394,-1.7193,-1.7193,-1.7193,-1.7193,-1.7193,-1.711,-1.7046,-1.7046,-1.6963,-1.6991,-1.7174,-1.7101,-1.7046,-1.7046,-1.6963,-1.6908,-1.6908,-1.6682,-1.6542,-1.6272,-1.614,-1.5859,-1.5505,-1.5204,-1.4848,-1.4569,-1.4497,-1.4346,-1.4129,-1.4129,-1.4129,-1.4129,-1.4129,-1.4201,-1.4353,-1.4425,-1.4569,-1.4792,-1.515,-1.5434,-1.5584,-1.5859,-1.587,-1.5745,-1.5813,-1.5757,-1.5642,-1.5342,-1.5311,-1.5216,-1.4675,-1.4338,-1.4134,-1.4036,-1.4181,-1.435,-1.435,-1.4538,-1.4734,-1.4734,-1.4734,-1.4725,-1.4597,-1.4529,-1.4478,-1.4267,-1.4207,-1.4139,-1.389,-1.364,-1.345,-1.3338,-1.3103,0.0,0.0,-1.2498,-1.2251,-1.1872,-1.156,-1.1247,0.0,0.0,0.0,0.0,-0.953,-0.8947,-0.7977,-0.7912,-0.7737,-0.7394,-0.7123,-0.6769,-0.6394,-0.6514,-0.6603,-0.6717,-0.6815,-0.6864,-0.6864,-0.6864,-0.6972,-0.7074,-0.7241,-0.7354,-0.7503,-0.7664,-0.783,-0.8008,-0.8162,-0.8315,-0.8474,-1.7523,-1.7385,-1.7229,-1.7229,-1.7055,-1.6908,-1.6908,-1.6908,-1.6908,-1.6908,-1.6908,-1.6908,-1.6908,-1.6908,-1.6908,-1.6908,-1.6908,-1.6908,-1.6908,-1.6908,-1.6908,-1.6908,-1.683,-1.6612,-1.6403,-1.6403,-1.6132,-1.5647,-1.5426,-1.5213,-1.4848,-1.4848,-1.4776,-1.4625,-1.4625,-1.4625,-1.4625,-1.4625,-1.4705,-1.4776,-1.4848,-1.507,-1.5371,-1.5584,-1.5788,-1.6053,-1.6078,-1.6011,-1.5932,-1.5809,-1.5744,-1.5629,-1.5414,-1.5341,-1.5242,-1.4888,-1.4611,-1.4428,-1.4428,-1.4606,-1.4725,-1.4725,-1.4843,-1.497,-1.497,-1.497,-1.497,-1.4843,-1.4843,-1.4784,-1.4556,-1.4488,-1.4437,-1.4198,-1.395,-1.3821,-1.3761,-1.3459,0.0,-1.3155,-1.2867,-1.2621,-1.2436,-1.212,-1.1809,-1.156,0.0,0.0,-1.0555,-1.0491,-0.997,-0.8812,-0.8753,-0.8623,-0.8428,-0.7957,-0.7602,-0.7345,-0.7296,-0.73,-0.7354,-0.7456,-0.745,-0.745,-0.7568,-0.7622,-0.7723,-0.7937,-0.8043,-0.815,-0.8256,-0.8374,-0.8487,-0.8692,-0.8791,-0.889,-1.6908,-1.6908,-1.6908,-1.6908,-1.6908,-1.6908,-1.6908,-1.6908,-1.6908,-1.6908,-1.6908,-1.6908,-1.6908,-1.6908,-1.6908,-1.6908,-1.6908,-1.6908,-1.6908,-1.6908,-1.6908,-1.6908,-1.6908,-1.683,-1.6603,-1.6533,-1.6333,-1.5867,-1.5647,-1.5497,-1.5275,-1.5275,-1.5204,-1.5204,-1.5204,-1.5204,-1.5204,-1.5204,-1.5204,-1.5275,-1.5275,-1.5497,-1.5859,-1.5807,-1.6062,-1.6278,-1.608,-1.6108,-1.614,-1.5909,-1.5707,-1.5552,-1.5552,-1.5314,-1.5088,-1.5088,-1.5088,-1.5088,-1.5029,-1.5029,-1.5039,-1.5088,-1.5088,-1.5088,-1.5088,-1.5088,-1.5029,-1.5029,-1.5029,-1.497,-1.4775,-1.4775,-1.4656,-1.4387,-1.4327,-1.4258,-1.407,0.0,-1.3571,-1.3571,-1.3155,-1.2928,-1.2928,-1.2552,-1.2305,-1.2182,-1.1996,-1.1677,0.0,-1.1247,-1.08,-0.9837,-0.9588,-0.9448,-0.9406,-0.8794,-0.8479,-0.8385,-0.8009,-0.7937,-0.8037,-0.8037,-0.8037,-0.809,-0.8262,-0.8321,-0.8374,-0.8626,-0.8732,-0.8784,-0.8903,-0.891,-0.8962,-0.9211,-0.9316,-0.9368,-1.6908,-1.6908,-1.6908,-1.6908,-1.6908,-1.6908,-1.6908,-1.6908,-1.6908,-1.6908,-1.6908,-1.6908,-1.6908,-1.6908,-1.6908,-1.6908,-1.6908,-1.6908,-1.6908,-1.6908,-1.6908,-1.6908,-1.6908,-1.683,-1.6603,-1.6403,-1.6272,-1.6061,-1.5991,-1.585,-1.5426,-1.5426,-1.5355,-1.5204,-1.5204,-1.5204,-1.5204,-1.5204,-1.5426,-1.5726,-1.5726,-1.5929,-1.6175,-1.6047,-1.6125,-1.6282,-1.6002,-1.5824,-1.5704,-1.5638,-1.5467,-1.5252,-1.5252,-1.5312,-1.5362,-1.5556,-1.5614,-1.5498,-1.5088,-1.5098,-1.5215,-1.5303,-1.5362,-1.5362,-1.5362,-1.5362,-1.5303,-1.5205,-1.5156,-1.5098,-1.497,-1.497,-1.4902,-1.4656,-1.4538,-1.4419,-1.4267,0.0,-1.3941,-1.3941,-1.364,-1.339,-1.339,-1.2981,-1.2683,-1.2683,-1.249,-1.2243,-1.1934,-1.1934,-1.1747,-1.1303,-1.0681,-1.0316,-1.0071,-0.9676,-0.9354,-0.9101,-0.877,-0.8646,-0.8639,-0.8639,-0.8745,-0.885,-0.885,-0.9001,-0.9204,-0.9256,-0.9354,-0.9458,-0.9458,-0.9458,-0.9517,-0.9636,-0.9792,-0.9895,-1.6908,-1.6908,-1.6908,-1.6908,-1.6908,-1.6908,-1.6908,-1.6908,-1.6908,-1.6908,-1.6908,-1.6908,-1.6908,-1.6908,-1.6908,-1.6908,-1.6908,-1.6908,-1.6908,-1.6908,-1.6908,-1.6908,-1.6908,-1.683,-1.676,-1.6542,-1.6403,-1.6403,-1.6272,-1.6061,-1.585,-1.585,-1.5709,-1.5505,-1.5505,-1.5568,-1.57,-1.57,-1.573,-1.5748,-1.5748,-1.5771,-1.5838,-1.5839,-1.5907,-1.6058,-1.5832,-1.5747,-1.567,-1.5451,-1.5428,-1.5449,-1.5449,-1.5556,-1.5672,-1.5798,-1.5798,-1.574,-1.5439,-1.5439,-1.5439,-1.542,-1.541,-1.541,-1.541,-1.541,-1.5362,-1.5313,-1.5313,-1.5254,-1.5156,-1.5098,-1.5029,-1.4902,-1.4784,0.0,0.0,-1.4428,-1.424,-1.424,-1.4001,-1.3761,-1.3761,-1.3528,-1.3346,-1.3346,-1.3094,-1.285,-1.2613,-1.2498,-1.2367,-1.2112,-1.1498,-1.1058,-1.0972,-1.0601,-1.0284,-1.0024,-0.9719,-0.9432,-0.9211,-0.9316,-0.9361,-0.9465,-0.9577,-0.9732,-0.9836,-0.994,-1.0043,-1.0095,-1.0095,-1.0095,-1.0095,-1.0257,-1.036,-1.0514,-1.6908,-1.6908,-1.6908,-1.6908,-1.6908,-1.6908,-1.6908,-1.6908,-1.6908,-1.6908,-1.6908,-1.6908,-1.6908,-1.6908,-1.6908,-1.6908,-1.6817,-1.6771,-1.6771,-1.6679,-1.6707,-1.6899,-1.6908,-1.6908,-1.6908,-1.6751,-1.6673,-1.6603,-1.6473,-1.6272,-1.6132,-1.6132,-1.607,-1.5929,-1.5843,-1.5861,-1.5992,-1.5895,-1.5753,-1.5606,-1.5606,-1.5569,-1.5495,-1.5588,-1.5742,-1.5813,-1.5586,-1.5565,-1.5689,-1.538,-1.5508,-1.574,-1.574,-1.5798,-1.5914,-1.5972,-1.5972,-1.5972,-1.5798,-1.574,-1.573,-1.5536,-1.5478,-1.5478,-1.5478,-1.541,-1.541,-1.541,-1.541,-1.5362,-1.5264,-1.5264,-1.5205,-1.5088,0.0,0.0,0.0,-1.4784,-1.4597,-1.4597,-1.4359,-1.4189,-1.4189,-1.407,-1.3941,-1.389,-1.364,-1.3398,-1.3224,-1.3111,-1.292,-1.2728,-1.2112,-1.1809,-1.1809,-1.148,-1.1189,-1.0927,-1.0579,-1.0241,-0.9986,-1.0007,-1.0028,-1.0131,-1.03,-1.0403,-1.0454,-1.0616,-1.0675,-1.0675,-1.0675,-1.0675,-1.0718,-1.082,-1.0922,-1.1124,-1.6908,-1.6908,-1.6908,-1.6908,-1.6908,-1.6908,-1.6908,-1.6908,-1.6908,-1.6908,-1.6908,-1.6908,-1.6908,-1.6908,-1.6908,-1.6908,-1.6578,-1.6358,-1.6358,-1.5991,-1.612,-1.6872,-1.6908,-1.6908,-1.6908,-1.6908,-1.676,-1.6603,-1.6603,-1.6473,-1.6272,-1.6272,-1.6272,-1.6263,-1.5883,-1.5716,-1.5689,-1.5336,-1.5242,-1.542,-1.542,-1.5596,-1.5844,-1.5473,-1.551,-1.577,-1.5348,-1.5303,-1.5459,-1.5624,-1.5672,-1.574,-1.5856,-1.5914,-1.5914,-1.6066,-1.6249,-1.6316,-1.5972,-1.5914,-1.5856,-1.5856,-1.5798,-1.5672,-1.5672,-1.5546,-1.541,-1.541,-1.541,-1.541,-1.541,-1.541,-1.5362,-1.5215,0.0,0.0,-1.5029,-1.497,-1.497,-1.497,-1.4784,-1.4656,-1.4656,-1.4529,-1.4359,-1.4189,-1.413,-1.401,-1.3769,-1.3709,-1.364,-1.345,-1.2789,-1.2421,-1.2421,-1.2142,-1.2019,-1.1988,-1.1296,-1.1001,-1.1067,-1.0761,-1.0769,-1.1023,-1.1023,-1.1116,-1.1226,-1.1217,-1.1226,-1.1226,-1.1226,-1.1226,-1.1226,-1.1267,-1.1427,-1.1628,-1.6908,-1.6908,-1.6908,-1.6908,-1.6908,-1.6908,-1.6908,-1.6908,-1.6908,-1.6908,-1.6908,-1.6908,-1.6908,-1.6688,-1.6541,-1.6541,-1.6166,-1.5927,-1.5927,-1.578,-1.5826,-1.6138,-1.6147,-1.6147,-1.6147,-1.6147,-1.6147,-1.6005,-1.6005,-1.5948,-1.5757,-1.5757,-1.569,-1.5539,-1.5389,-1.5384,-1.5516,-1.5373,-1.5231,-1.5205,-1.5331,-1.5237,-1.5163,-1.5204,-1.5327,-1.5427,-1.5371,-1.543,-1.5604,-1.5672,-1.5788,-1.5951,-1.6144,-1.6259,-1.6353,-1.6467,-1.6581,-1.6591,-1.6477,-1.6249,-1.6019,-1.5914,-1.5856,-1.5798,-1.5798,-1.573,-1.573,-1.573,-1.573,-1.573,-1.573,-1.573,-1.5672,-1.5624,0.0,-1.5624,-1.5566,-1.5508,-1.5439,-1.5439,-1.5205,-1.5029,-1.5029,-1.4902,-1.4784,-1.4675,-1.4606,-1.4478,-1.4359,-1.43,-1.4172,-1.4112,-1.3863,-1.3571,-1.3147,-1.3014,-1.283,-1.268,-1.2428,-1.2151,-1.1754,-1.1783,-1.1746,-1.1628,-1.1769,-1.1877,-1.1927,-1.2026,-1.2026,-1.2026,-1.1977,-1.1927,-1.1927,-1.1927,-1.2026,-1.2224,-1.6908,-1.6908,-1.6908,-1.6908,-1.6908,-1.6908,-1.6908,-1.6908,-1.6908,-1.6908,-1.6908,-1.6862,-1.6734,-1.6477,-1.6266,-1.6138,-1.5744,-1.5505,-1.5505,-1.5386,-1.5432,-1.568,-1.5689,-1.5689,-1.5689,-1.5689,-1.5689,-1.5689,-1.5689,-1.5633,-1.5504,-1.5504,-1.544,-1.5292,-1.5167,-1.5186,-1.5314,-1.5187,-1.5041,-1.4961,-1.5083,-1.5037,-1.4902,-1.5088,-1.5274,-1.5381,-1.5488,-1.5604,-1.5798,-1.5788,-1.6009,-1.6239,-1.642,-1.6534,-1.6694,-1.6751,-1.6818,-1.6818,-1.6818,-1.6581,-1.6296,-1.6134,-1.6019,-1.5961,-1.5961,-1.5914,-1.5914,-1.5914,-1.5914,-1.5914,-1.5961,-1.5961,-1.5961,-1.6029,-1.6029,-1.6029,-1.6029,-1.5904,-1.5846,-1.5846,-1.5614,-1.5449,-1.5449,-1.5332,-1.5264,-1.5205,-1.5079,-1.501,-1.4942,-1.4824,-1.4765,-1.4765,-1.4765,-1.4579,-1.4163,-1.3983,-1.374,-1.3553,-1.3584,-1.3347,-1.2869,-1.2782,-1.267,-1.2442,-1.2508,-1.2559,-1.2608,-1.2657,-1.2706,-1.2706,-1.2608,-1.2559,-1.2559,-1.2559,-1.2657,-1.2813,-1.6908,-1.6908,-1.6908,-1.6908,-1.6908,-1.6908,-1.6908,-1.6908,-1.6908,-1.6908,-1.6899,-1.6752,-1.6358,-1.6312,-1.6138,-1.5716,-1.5322,-1.5093,-1.5093,-1.4735,-1.4864,-1.5643,-1.568,-1.568,-1.568,-1.568,-1.568,-1.568,-1.568,-1.568,-1.568,-1.568,-1.568,-1.5661,-1.5267,-1.5093,-1.5065,-1.468,-1.4556,-1.4715,-1.4715,-1.4902,-1.5215,-1.5215,-1.5381,-1.5672,-1.5672,-1.5798,-1.5914,-1.6066,-1.6239,-1.6431,-1.6581,-1.6694,-1.6818,-1.6818,-1.6818,-1.6818,-1.6818,-1.6818,-1.6751,-1.6637,-1.6343,-1.6114,-1.6114,-1.6019,-1.5924,-1.5924,-1.5924,-1.5961,-1.6056,-1.6114,-1.6171,-1.6296,-1.6296,-1.6296,-1.6296,-1.6171,-1.6114,-1.6114,-1.6019,-1.5924,-1.5924,-1.5914,-1.5856,-1.573,-1.5672,-1.5614,-1.541,-1.541,-1.541,-1.541,-1.541,-1.5468,-1.5594,-1.501,-1.4715,-1.4706,-1.4525,-1.4495,-1.4588,-1.3686,-1.3445,-1.37,-1.3214,-1.3074,-1.3218,-1.3218,-1.3208,-1.3208,-1.3218,-1.3218,-1.3218,-1.3218,-1.3314,-1.342,-1.6908,-1.6908,-1.6908,-1.6908,-1.6908,-1.6908,-1.6908,-1.6908,-1.6908,-1.6908,-1.6661,-1.645,-1.6331,-1.5808,-1.5414,-1.5285,-1.4909,-1.4689,-1.4689,-1.4579,-1.4616,-1.4854,-1.4864,-1.4864,-1.4864,-1.4864,-1.4864,-1.4864,-1.4864,-1.4864,-1.4864,-1.4864,-1.4864,-1.4854,-1.4744,-1.474,-1.4833,-1.4712,-1.4725,-1.4911,-1.5029,-1.5196,-1.5362,-1.5498,-1.5682,-1.5856,-1.5856,-1.6029,-1.6259,-1.6316,-1.6477,-1.6705,-1.6987,-1.72,-1.7312,-1.7423,-1.7434,-1.7423,-1.7312,-1.7211,-1.7099,-1.6807,-1.6694,-1.6581,-1.6581,-1.6581,-1.6534,-1.6534,-1.6534,-1.6534,-1.6581,-1.6581,-1.6581,-1.6637,-1.6637,-1.6637,-1.6637,-1.6637,-1.6581,-1.6581,-1.6467,-1.641,-1.641,-1.6239,-1.6181,-1.6124,-1.6124,-1.6066,-1.6056,-1.6056,-1.6056,-1.6056,-1.6171,-1.6285,-1.6285,-1.5652,-1.541,-1.5526,-1.5571,-1.5465,-1.522,-1.5165,-1.5027,-1.48,-1.4482,-1.438,-1.4359,-1.4127,-1.4035,-1.4035,-1.3941,-1.3884,-1.3884,-1.3884,-1.3941,-1.3978,-1.6908,-1.6908,-1.6908,-1.6908,-1.6908,-1.6908,-1.6908,-1.6771,-1.667,-1.667,-1.6321,-1.601,-1.5854,-1.5395,-1.5038,-1.4882,-1.4653,-1.4515,-1.4515,-1.4515,-1.4515,-1.4515,-1.4515,-1.4515,-1.4515,-1.4515,-1.4515,-1.4515,-1.4515,-1.4515,-1.4515,-1.4515,-1.4506,-1.4556,-1.4556,-1.4666,-1.4843,-1.4843,-1.4902,-1.5088,-1.5205,-1.5371,-1.5546,-1.573,-1.5846,-1.5961,-1.6087,-1.6259,-1.6488,-1.6545,-1.6761,-1.7043,-1.7379,-1.749,-1.759,-1.7656,-1.7711,-1.7656,-1.759,-1.7545,-1.7434,-1.7211,-1.6987,-1.6818,-1.6818,-1.6818,-1.6807,-1.6864,-1.6853,-1.692,-1.7032,-1.7088,-1.7088,-1.7155,-1.7145,-1.7145,-1.7145,-1.7088,-1.7088,-1.7088,-1.6909,-1.6853,-1.6853,-1.6751,-1.6694,-1.6694,-1.6694,-1.6684,-1.6684,-1.6684,-1.6684,-1.6684,-1.6853,-1.6965,-1.7022,-1.6673,-1.6436,-1.6322,-1.6446,-1.6423,-1.6261,-1.6288,-1.6202,-1.6003,-1.5675,-1.5565,-1.5592,-1.5389,-1.5325,-1.5303,-1.5007,-1.4882,-1.486,-1.4614,-1.4547,-1.4547,-1.6899,-1.6908,-1.6908,-1.6908,-1.6881,-1.6853,-1.6853,-1.6514,-1.6257,-1.6257,-1.59,-1.5505,-1.5139,-1.5065,-1.49,-1.4543,-1.4515,-1.4515,-1.4515,-1.4515,-1.4515,-1.4515,-1.4515,-1.4515,-1.4515,-1.4515,-1.4515,-1.4515,-1.4515,-1.4515,-1.4515,-1.4506,-1.4556,-1.4715,-1.4715,-1.4843,-1.5029,-1.5029,-1.5088,-1.5274,-1.5362,-1.5594,-1.5798,-1.5914,-1.6019,-1.6181,-1.6374,-1.6534,-1.6684,-1.6807,-1.7043,-1.739,-1.7656,-1.7711,-1.7711,-1.7711,-1.7767,-1.7711,-1.7711,-1.7711,-1.7711,-1.7711,-1.7267,-1.6874,-1.6874,-1.6874,-1.692,-1.7011,-1.7067,-1.7179,-1.7468,-1.7523,-1.759,-1.77,-1.7711,-1.7711,-1.7711,-1.7645,-1.7523,-1.7523,-1.7412,-1.7301,-1.7301,-1.7301,-1.7312,-1.739,-1.7312,-1.7301,-1.7301,-1.7301,-1.7301,-1.7301,-1.7468,-1.7645,-1.7767,-1.7909,-1.7678,-1.7123,-1.7245,-1.7357,-1.7567,-1.7165,-1.7111,-1.734,-1.6837,-1.6719,-1.6831,-1.6773,-1.6761,-1.6715,-1.6251,-1.6018,-1.5961,-1.5499,-1.5302,-1.5256,-1.6844,-1.6908,-1.6908,-1.6908,-1.6652,-1.645,-1.645,-1.6092,-1.5826,-1.5826,-1.5478,-1.5194,-1.5111,-1.4827,-1.4607,-1.4515,-1.4515,-1.4515,-1.4515,-1.4515,-1.4515,-1.4515,-1.4515,-1.4515,-1.4515,-1.4515,-1.4515,-1.4515,-1.4515,-1.4515,-1.4515,-1.4606,-1.4656,-1.4715,-1.4843,-1.5029,-1.5147,-1.5254,-1.543,-1.5624,-1.574,-1.5972,-1.6259,-1.6259,-1.642,-1.6637,-1.6705,-1.6807,-1.6955,-1.7245,-1.7479,-1.7656,-1.781,-1.7854,-1.7854,-1.7975,-1.803,-1.7975,-1.7909,-1.7854,-1.7854,-1.7711,-1.7601,-1.749,-1.749,-1.749,-1.7479,-1.7534,-1.7534,-1.759,-1.7645,-1.7656,-1.77,-1.7854,-1.7854,-1.7909,-1.7975,-1.7975,-1.7975,-1.7975,-1.792,-1.792,-1.792,-1.792,-1.792,-1.7931,-1.792,-1.792,-1.792,-1.792,-1.792,-1.792,-1.8182,-1.8398,-1.8398,-1.8614,-1.8452,-1.7854,-1.7865,-1.7963,-1.8116,-1.8174,-1.8289,-1.8437,-1.7997,-1.7874,-1.785,-1.7482,-1.7351,-1.729,-1.7183,-1.7135,-1.7123,-1.7003,-1.6751,-1.6378,-1.6285,-1.6321,-1.6321,-1.6321,-1.6156,-1.6019,-1.6019,-1.567,-1.5414,-1.5414,-1.5065,-1.4818,-1.4818,-1.4634,-1.4515,-1.4515,-1.4515,-1.4515,-1.4515,-1.4515,-1.4515,-1.4515,-1.4515,-1.4515,-1.4515,-1.4556,-1.4556,-1.4515,-1.4556,-1.4616,-1.4616,-1.4784,-1.4902,-1.4961,-1.5137,-1.5254,-1.5449,-1.5556,-1.572,-1.5894,-1.6087,-1.6259,-1.6477,-1.6602,-1.6705,-1.6818,-1.6987,-1.7145,-1.7357,-1.7634,-1.7744,-1.781,-1.7963,-1.8018,-1.803,-1.8084,-1.8193,-1.8247,-1.8139,-1.8182,-1.8236,-1.8139,-1.8139,-1.803,-1.7767,-1.7755,-1.781,-1.7865,-1.7986,-1.803,-1.8139,-1.8139,-1.8127,-1.8224,-1.8224,-1.8236,-1.8344,-1.8356,-1.8356,-1.8422,-1.841,-1.8464,-1.8506,-1.8518,-1.8518,-1.8518,-1.8518,-1.8518,-1.8518,-1.8518,-1.8518,-1.8518,-1.8774,-1.8934,-1.8987,-1.9198,-1.9133,-1.8922,-1.8667,-1.8614,-1.8827,-1.8934,-1.9093,-1.9291,-1.9049,-1.8978,-1.8953,-1.8721,-1.8598,-1.8573,-1.8314,-1.8252,-1.8276,-1.8016,-1.7825,-1.7618,-1.568,-1.5689,-1.5689,-1.5689,-1.5634,-1.5588,-1.5588,-1.5258,-1.5001,-1.5001,-1.4717,-1.4515,-1.4515,-1.4515,-1.4515,-1.4515,-1.4515,-1.4515,-1.4515,-1.4515,-1.4515,-1.4515,-1.4515,-1.4506,-1.4506,-1.4666,-1.4666,-1.4506,-1.4666,-1.4775,-1.4775,-1.4961,-1.5147,-1.5264,-1.543,-1.5604,-1.574,-1.5914,-1.6077,-1.6181,-1.6363,-1.6534,-1.6684,-1.6807,-1.692,-1.6976,-1.7267,-1.7545,-1.7755,-1.7854,-1.7909,-1.7963,-1.8084,-1.815,-1.8139,-1.8193,-1.8302,-1.8422,-1.8422,-1.8518,-1.8614,-1.8614,-1.8614,-1.8452,-1.7975,-1.7963,-1.8073,-1.8139,-1.8302,-1.8464,-1.856,-1.8614,-1.8614,-1.8667,-1.8667,-1.8667,-1.8721,-1.8721,-1.8786,-1.8905,-1.8893,-1.8999,-1.9093,-1.9146,-1.9146,-1.9146,-1.9146,-1.9146,-1.9146,-1.9146,-1.9146,-1.9146,-1.9291,-1.9408,-1.9525,-1.9668,-1.9811,-1.9901,-1.9448,-1.9356,-1.9525,-1.9525,-1.9656,-1.9952,-1.9952,-1.9952,-1.9952,-1.9952,-1.9952,-1.9914,-1.9446,-1.9355,-1.9425,-1.8909,-1.8797,-1.8923,-1.5615,-1.5689,-1.5689,-1.5689,-1.5404,-1.5184,-1.5184,-1.4845,-1.4588,-1.4588,-1.4543,-1.4515,-1.4515,-1.4515,-1.4515,-1.4515,-1.4515,-1.4515,-1.4515,-1.4515,-1.4515,-1.4515,-1.4515,-1.4565,-1.4656,-1.4715,-1.4715,-1.4656,-1.4843,-1.497,-1.497,-1.5245,-1.5362,-1.542,-1.5672,-1.5856,-1.5914,-1.6202,-1.6316,-1.6374,-1.6648,-1.6807,-1.6955,-1.7155,-1.7323,-1.7423,-1.7601,-1.7755,-1.7909,-1.7909,-1.7963,-1.8084,-1.8313,-1.8367,-1.8356,-1.8518,-1.856,-1.856,-1.856,-1.8614,-1.8614,-1.8614,-1.8614,-1.856,-1.8506,-1.8506,-1.8506,-1.8506,-1.856,-1.856,-1.8614,-1.8614,-1.8667,-1.8881,-1.8934,-1.904,-1.9263,-1.9316,-1.9316,-1.9316,-1.9408,-1.9512,-1.9512,-1.9604,-1.9695,-1.9695,-1.9695,-1.9695,-1.9695,-1.9695,-1.9695,-1.9695,-1.9823,-1.9888,-1.9939,-2.0182,-2.0321,-2.0321,-2.0359,-2.0271,-2.008,-2.008,-2.022,-2.051,-2.051,-2.051,-2.051,-2.051,-2.051,-2.0497,-2.0419,-2.0492,-2.0562,-2.0247,-2.0127,-2.0107,-1.5001,-1.5029,-1.5029,-1.5029,-1.4882,-1.4772,-1.4772,-1.4625,-1.4515,-1.4515,-1.4515,-1.4515,-1.4515,-1.4515,-1.4515,-1.4515,-1.4515,-1.4515,-1.4515,-1.4515,-1.4506,-1.4606,-1.4606,-1.4666,-1.4843,-1.4961,-1.502,-1.5059,-1.5079,-1.5147,-1.5254,-1.5488,-1.5604,-1.5662,-1.6029,-1.6202,-1.6202,-1.6488,-1.6648,-1.6751,-1.6987,-1.7145,-1.7301,-1.749,-1.7545,-1.7645,-1.7755,-1.792,-1.8018,-1.8018,-1.8139,-1.8259,-1.8367,-1.8476,-1.8518,-1.856,-1.8667,-1.8732,-1.8732,-1.8786,-1.8827,-1.8893,-1.8958,-1.8946,-1.904,-1.904,-1.8987,-1.8827,-1.8893,-1.8946,-1.904,-1.904,-1.9105,-1.921,-1.9198,-1.9316,-1.946,-1.9512,-1.9577,-1.9733,-1.9875,-1.9926,-1.9926,-2.0067,-2.0169,-2.0169,-2.0207,-2.0258,-2.0258,-2.0258,-2.0258,-2.0258,-2.0321,-2.0372,-2.0472,-2.056,-2.0709,-2.0822,-2.0921,-2.0772,-2.056,-2.0636,-2.0723,-2.0921,-2.1019,-2.1068,-2.1068,-2.1068,-2.1068,-2.1068,-2.1068,-2.1153,-2.1369,-2.1395,-2.1407,-2.1365]}]]